[[{"header":{"parameterUnit":"m.s-1","parameterCategory":1,"la1":30.6,"la2":29.2853,"lo1":-89.7004,"lo2":-87.6739,"dy":0.0162,"dx":0.0183,"nx":112,"ny":82,"refTime":"2023-08-11T18:00:00:Z","depth":0,"parameterNumber":2,"parameterNumberName":"U-component_of_WINDS"},"data":[0.0,0.0,0.0,0.0,0.0,0.0,0.0,0.0,0.0,0.0,0.0,0.0,0.0,0.0,0.0,0.0,0.0,0.0,0.0,0.0,0.0,0.0,0.0,0.0,0.0,0.0,0.0,0.0,0.0,0.0,0.0,0.0,0.0,0.0,0.0,0.0,0.0,0.0,0.0,0.0,0.0,0.0,0.0,0.0,0.0,0.0,0.0,0.0,0.0,0.0,0.0,0.0,0.0,0.0,0.0,0.0,0.0,0.0,0.0,0.0,0.0,0.0,0.0,0.0,0.0,0.0,0.0,0.0,0.0,0.0,0.0,0.0,0.0,0.0,0.0,0.0,0.0,0.0,0.0,0.0,0.0,0.0,0.0,0.0,0.0,0.0,0.0,0.0,0.0,0.0,0.0806,0.0067,-0.1344,-0.2555,-0.3159,-0.3677,-0.4078,-0.447,0.0,0.0,0.0,0.0,0.0,0.0,0.0,0.0,0.0,0.0,0.0,0.0,0.0,0.0,0.0,0.0,0.0,0.0,0.0,0.0,0.0,0.0,0.0,0.0,0.0,0.0,0.0,0.0,0.0,0.0,0.0,0.0,0.0,0.0,0.0,0.0,0.0,0.0,0.0,0.0,0.0,0.0,0.0,0.0,0.0,0.0,0.0,0.0,0.0,0.0,0.0,0.0,0.0,0.0,0.0,0.0,0.0,0.0,0.0,0.0,0.0,0.0,0.0,0.0,0.0,0.0,0.0,0.0,0.0,0.0,0.0,0.0,0.0,0.0,0.0,0.0,0.0,0.0,0.0,0.0,0.0,0.0,0.0,0.0,0.0,0.0,0.0,0.0,0.0,0.0,0.0,0.0,0.0,0.0,0.0,0.0,0.0,0.0,0.0,0.0,0.0,0.0,0.0,0.0,0.0269,-0.1143,-0.2083,-0.282,-0.342,-0.4074,-0.4596,-0.4992,0.0,0.0,0.0,0.0,0.0,0.0,0.0,0.0,0.0,0.0,0.0,0.0,0.0,0.0,0.0,0.0,0.0,0.0,0.0,0.0,0.0,0.0,0.0,0.0,0.0,0.0,0.0,0.0,0.0,0.0,0.0,0.0,0.0,0.0,0.0,0.0,0.0,0.0,0.0,0.0,0.0,0.0,0.0,0.0,0.0,0.0,0.0,0.0,0.0,0.0,0.0,0.0,0.0,0.0,0.0,0.0,0.0,0.0,0.0,0.0,0.0,0.0,0.0,0.0,0.0,0.0,0.0,0.0,0.0,0.0,0.0,0.0,0.0,0.0,0.0,0.0,0.0,0.0,0.0,0.0,0.0,0.0,0.0,0.0,0.0,0.0,0.0,0.0,0.0,0.0,0.0,0.0,0.0,0.0,0.0,0.0,0.0,0.0,0.0,0.0,0.0,0.0,0.0,0.1076,0.0067,-0.121,-0.1747,-0.2284,-0.3088,-0.3825,-0.4428,-0.4824,-0.4903,0.0,0.0,0.0,0.0,0.0,0.0,0.0,0.0,0.0,0.0,0.0,0.0,0.0,0.0,0.0,0.0,0.0,0.0,0.0,0.0,0.0,0.0,0.0,0.0,0.0,0.0,0.0,0.0,0.0,0.0,0.0,0.0,0.0,0.0,0.0,0.0,0.0,0.0,0.0,0.0,0.0,0.0,0.0,0.0,0.0,0.0,0.0,0.0,0.0,0.0,0.0,0.0,0.0,0.0,0.0,0.0,0.0,0.0,0.0,0.0,0.0,0.0,0.0,0.0,0.0,0.0,0.0,0.0,0.0,0.0,0.0,0.0,0.0,0.0,0.0,0.0,0.0,0.0,0.0,0.0,0.0,0.0,0.0,0.0,0.0,0.0,0.0,0.0,0.0,0.0,0.0,0.0,0.0,0.0,0.0,0.0,0.0,0.0,0.0,0.0,0.0,0.0,0.0605,-0.0,-0.0942,-0.1345,-0.195,-0.2755,-0.3625,-0.4225,-0.4625,-0.5093,0.0,0.0,0.0,0.0,0.0,0.0,0.0,0.0,0.0,0.0,0.0,0.0,0.0,0.0,0.0,0.0,0.0,0.0,0.0,0.0,0.0,0.0,0.0,0.0,0.0,0.0,0.0,0.0,0.0,0.0,0.0,0.0,0.0,0.0,0.0,0.0,0.0,0.0,0.0,0.0,0.0,0.0,0.0,0.0,0.0,0.0,0.0,0.0,0.0,0.0,0.0,0.0,0.0,0.0,0.0,0.0,0.0,0.0,0.0,0.0,0.0,0.0,0.0,0.0,0.0,0.0,0.0,0.0,0.0,0.0,0.0,0.0,0.0,0.0,0.0,0.0,0.0,0.0,0.0,0.0,0.0,0.0,0.0,0.0,0.0,0.0,0.0,0.0,0.0,0.0,0.0,0.0,0.0,0.0,0.0,0.0,0.0,0.0,0.0,0.0,0.0,0.0,0.0336,-0.0135,-0.0674,-0.1549,-0.2287,-0.2686,-0.3687,-0.4422,-0.4764,-0.5163,0.0,0.0,0.0,0.0,0.0,0.0,0.0,0.0,0.0,0.0,0.0,0.0,0.0,0.0,0.0,0.0,0.0,0.0,0.0,0.0,0.0,0.0,0.0,0.0,0.0,0.0,0.0,0.0,0.0,0.0,0.0,0.0,0.0,0.0,0.0,0.0,0.0,0.0,0.0,0.0,0.0,0.0,0.0,0.0,0.0,0.0,0.0,0.0,0.0,0.0,0.0,0.0,0.0,0.0,0.0,0.0,0.0,0.0,0.0,0.0,0.0,0.0,0.0,0.0,0.0,0.0,0.0,0.0,0.0,0.0,0.0,0.0,0.0,0.0,0.0,0.0,0.0,0.0,0.0,0.0,0.0,0.0,0.0,0.0,0.0,0.0,0.0,0.0,0.0,0.0,0.0,0.0,0.0,0.0,0.0,0.0,0.0,0.0,0.0,0.0,0.0,0.0,0.0067,-0.0672,0.0,-0.2223,-0.2827,-0.3228,-0.3889,-0.4422,-0.4628,0.0,0.0,0.0,0.0,0.0,0.0,0.0,0.0,0.0,0.0,0.0,0.0,0.0,0.0,0.0,0.0,0.0,0.0,0.0,0.0,0.0,0.0,0.0,0.0,0.0,0.0,0.0,0.0,0.0,0.0,0.0,0.0,0.0,0.0,0.0,0.0,0.0,0.0,0.0,0.0,0.0,0.0,0.0,0.0,0.0,0.0,0.0,0.0,0.0,0.0,0.0,0.0,0.0,0.0,0.0,0.0,0.0,0.0,0.0,0.0,0.0,0.0,0.0,0.0,0.0,0.0,0.0,0.0,0.0,0.0,0.0,0.0,0.0,0.0,0.0,0.0,0.0,0.0,0.0,0.0,0.0,0.0,0.0,0.0,0.0,0.0,0.0,0.0,0.0,0.0,0.0,0.0,0.0,0.0,0.0,0.0,0.0,0.0,0.0,0.0,0.0,0.0,0.0276,-0.0345,-0.1173,0.0,-0.2832,-0.3313,-0.3726,-0.4233,-0.4616,-0.4821,0.0,0.0,0.0,0.0,0.0,0.0,0.0,0.0,0.0,0.0,0.0,0.0,0.0,0.0,0.0,0.0,0.0,0.0,0.0,0.0,0.0,0.0,0.0,0.0,0.0,0.0,0.0,0.0,0.0,0.0,0.0,0.0,0.0,0.0,0.0,0.0,0.0,0.0,0.0,0.0,0.0,0.0,0.0,0.0,0.0,0.0,0.0,0.0,0.0,0.0,0.0,0.0,0.0,0.0,0.0,0.0,0.0,0.0,0.0,0.0,0.0,0.0,0.0,0.0,0.0,0.0,0.0,0.0,0.0,0.0,0.0,0.0,0.0,0.0,0.0,0.0,0.0,0.0,0.0,0.0,0.0,0.0,0.0,0.0,0.0,0.0,0.0,0.0,0.0,0.0,0.0,0.0,0.0,0.0,0.0,0.0,0.0,0.0,0.0,0.0,0.0,0.0,-0.0437,-0.1021,-0.1749,-0.2767,-0.3346,-0.3779,-0.421,-0.4748,-0.5164,0.0,0.0,0.0,0.0,0.0,0.0,0.0,0.0,0.0,0.0,0.0,0.0,0.0,0.0,0.0,0.0,0.0,0.0,0.0,0.0,0.0,0.0,0.0,0.0,0.0,0.0,0.0,0.0,0.0,0.0,0.0,0.0,0.0,0.0,0.0,0.0,0.0,0.0,0.0,0.0,0.0,0.0,0.0,0.0,0.0,0.0,0.0,0.0,0.0,0.0,0.0,0.0,0.0,0.0,0.0,0.0,0.0,0.0,0.0,0.0,0.0,0.0,0.0,0.0,0.0,0.0,0.0,0.0,0.0,0.0,0.0,0.0,0.0,0.0,0.0,0.0,0.0,0.0,0.0,0.0,0.0,0.0,0.0,0.0,0.0,0.0,0.0,0.0,0.0,0.0,0.0,0.0,0.0,0.0,0.0,0.0,0.0,0.0,0.0,0.0,0.0,0.0,0.0,-0.1747,-0.2331,-0.2913,-0.3566,-0.3926,-0.4357,-0.4718,-0.512,-0.5386,-0.5458,0.0,0.0,0.0,0.0,0.0,0.0,0.0,0.0,0.0,0.0,0.0,0.0,0.0,0.0,0.0,0.0,0.0,0.0,0.0,0.0,0.0,0.0,0.0,0.0,0.0,0.0,0.0,0.0,0.0,0.0,0.0,0.0,0.0,0.0,0.0,0.0,0.0,0.0,0.0,0.0,0.0,0.0,0.0,0.0,0.0,0.0,0.0,0.0,0.0,0.0,0.0,0.0,0.0,0.0,0.0,0.0,0.0,0.0,0.0,0.0,0.0,0.0,0.0,0.0,0.0,0.0,0.0,0.0,0.0,0.0,0.0,0.0,0.0,0.0,0.0,0.0,0.0,0.0,0.0,0.0,0.0,0.0,0.0,0.0,0.0,0.0,0.0,0.0,0.0,0.0,0.0,0.0,0.0,0.0,0.0,0.0,0.0,0.0,0.0,0.0,0.0,0.0,-0.255,-0.3151,-0.3676,-0.4271,-0.4643,-0.5015,-0.5309,-0.5561,-0.5752,-0.5822,0.0,0.0,0.0,0.0,0.0,0.0,0.0,0.0,0.0,0.0,0.0,0.0,0.0,0.0,0.0,0.0,0.0,0.0,0.0,0.0,0.0,0.0,0.0,0.0,0.0,0.0,0.0,0.0,0.0,0.0,0.0,0.0,0.0,0.0,0.0,0.0,0.0,0.0,0.0,0.0,0.0,0.0,0.0,0.0,0.0,0.0,0.0,0.0,0.0,0.0,0.0,0.0,0.0,0.0,0.0,0.0,0.0,0.0,0.0,0.0,0.0,0.0,0.0,0.0,0.0,0.0,0.0,0.0,0.0,0.0,0.0,0.0,0.0,0.0,0.0,0.0,0.0,0.0,0.0,0.0,0.0,0.0,0.0,0.0,0.0,0.0,0.0,0.0,0.0,0.0,0.0,0.0,0.0,0.0,0.0,0.0,0.0,0.0,0.0,0.0,0.0,0.0,-0.3134,-0.3604,-0.4151,-0.5004,-0.5398,-0.5715,-0.5941,-0.5977,-0.6122,-0.6343,0.0,0.0,0.0,0.0,0.0,0.0,0.0,0.0,0.0,0.0,0.0,0.0,0.0,0.0,0.0,0.0,0.0,0.0,0.0,0.0,0.0,0.0,0.0,0.0,0.0,0.0,0.0,0.0,0.0,0.0,0.0,0.0,0.0,0.0,0.0,0.0,0.0,0.0,0.0,0.0,0.0,0.0,0.0,0.0,0.0,0.0,0.0,0.0,0.0,0.0,0.0,0.0,0.0,0.0,0.0,0.0,0.0,0.0,0.0,0.0,-0.5163,0.0,0.0,0.0,0.0,0.0,0.0,0.0,0.0,0.0,0.0,0.0,0.0,0.0,0.0,0.0,0.0,0.0,0.0,0.0,0.0,0.0,0.0,0.0,0.0,0.0,0.0,0.0,0.0,0.0,0.0,0.0,0.0,0.0,0.0,0.0,0.0,0.0,0.0,0.0,0.0,0.0,-0.3606,-0.3995,-0.4618,-0.5628,-0.5786,-0.5944,-0.618,-0.623,-0.6287,-0.651,-0.636,0.0,0.0,0.0,0.0,0.0,0.0,0.0,0.0,0.0,0.0,0.0,0.0,0.0,0.0,0.0,0.0,0.0,0.0,0.0,0.0,0.0,0.0,0.0,0.0,0.0,0.0,0.0,0.0,0.0,0.0,0.0,0.0,0.0,0.0,0.0,0.0,0.0,0.0,0.0,0.0,0.0,0.0,0.0,0.0,0.0,0.0,0.0,0.0,0.0,0.0,0.0,0.0,0.0,0.0,0.0,0.0,0.0,0.0,0.0,0.0,-0.5431,0.0,0.0,0.0,0.0,0.0,0.0,0.0,0.0,0.0,0.0,0.0,0.0,0.0,0.0,0.0,0.0,0.0,0.0,0.0,0.0,0.0,0.0,0.0,0.0,0.0,0.0,0.0,0.0,0.0,0.0,0.0,0.0,0.0,0.0,0.0,0.0,0.0,0.0,0.0,0.0,-0.3995,-0.454,-0.5162,-0.6022,-0.6099,-0.618,-0.6261,-0.6338,-0.6412,-0.6714,-0.663,0.0,0.0,0.0,0.0,0.0,0.0,0.0,0.0,0.0,0.0,0.0,0.0,0.0,0.0,0.0,0.0,0.0,0.0,0.0,0.0,0.0,0.0,0.0,0.0,0.0,0.0,0.0,0.0,0.0,0.0,0.0,0.0,0.0,0.0,0.0,0.0,0.0,0.0,0.0,0.0,0.0,0.0,0.0,0.0,0.0,0.0,0.0,0.0,0.0,0.0,0.0,0.0,0.0,-0.6805,-0.6676,-0.6462,-0.6462,-0.639,-0.6179,-0.603,-0.585,-0.58,-0.58,0.0,0.0,0.0,0.0,0.0,0.0,0.0,0.0,0.0,0.0,0.0,0.0,0.0,0.0,0.0,0.0,0.0,0.0,0.0,0.0,0.0,0.0,0.0,0.0,-0.4323,-0.4337,-0.3573,0.0,0.0,0.0,0.0,0.0,0.0,0.0,0.0,0.0,0.0,0.0,-0.4387,-0.4929,-0.5553,-0.6261,-0.6338,-0.6338,-0.6338,-0.6338,-0.649,-0.6788,-0.6865,-0.7176,0.0,0.0,0.0,0.0,0.0,0.0,0.0,0.0,0.0,0.0,0.0,0.0,0.0,0.0,0.0,0.0,0.0,0.0,0.0,0.0,0.0,0.0,0.0,0.0,0.0,0.0,0.0,0.0,0.0,0.0,0.0,0.0,-1.0461,-1.0501,0.0,0.0,0.0,0.0,0.0,0.0,0.0,0.0,0.0,0.0,0.0,0.0,0.0,-0.8488,-0.7858,-0.7748,-0.7474,-0.6962,-0.704,-0.7034,-0.6798,-0.6798,-0.6725,-0.6499,-0.6499,0.0,-0.58,-0.58,0.0,0.0,0.0,0.0,0.0,0.0,0.0,0.0,0.0,0.0,0.0,0.0,0.0,0.0,0.0,0.0,0.0,0.0,0.0,0.0,0.0,0.0,-0.4363,-0.4523,-0.4763,-0.4919,0.0,-0.4199,-0.3667,-0.3589,-0.2895,0.0,0.0,0.0,0.0,0.0,0.0,0.0,-0.4555,-0.501,-0.5553,-0.6261,-0.6338,-0.6338,-0.6338,-0.6338,-0.6412,-0.6637,-0.6788,-0.7096,-0.7484,-0.7621,0.0,0.0,0.0,0.0,0.0,0.0,0.0,0.0,0.0,0.0,0.0,0.0,0.0,0.0,0.0,0.0,0.0,0.0,0.0,0.0,0.0,0.0,0.0,0.0,0.0,0.0,0.0,0.0,0.0,-1.0862,-1.1049,-1.1049,-1.1028,-1.0966,0.0,0.0,0.0,0.0,0.0,0.0,0.0,0.0,0.0,-1.0115,-0.9963,-0.9593,-0.9013,-0.8891,-0.8491,-0.7966,-0.7905,-0.7714,-0.7411,-0.7249,-0.7096,-0.6788,-0.6788,-0.6481,-0.6061,-0.6061,-0.6061,-0.6061,0.0,0.0,0.0,0.0,-0.5529,-0.5304,-0.5078,-0.4774,-0.4551,-0.4324,0.0,0.0,0.0,0.0,0.0,0.0,0.0,0.0,0.0,0.0,-0.5283,-0.5594,-0.5773,-0.5935,-0.5935,-0.5609,-0.5106,0.0,-0.3957,-0.3516,-0.322,0.0,0.0,0.0,0.0,-0.4613,-0.5057,-0.5612,-0.6099,-0.6508,-0.6508,-0.6474,-0.6386,-0.638,-0.6499,-0.6567,-0.6714,-0.6945,-0.748,-0.7488,-0.7609,0.0,0.0,0.0,0.0,0.0,0.0,0.0,0.0,0.0,0.0,0.0,0.0,0.0,0.0,0.0,0.0,0.0,0.0,0.0,0.0,0.0,0.0,0.0,0.0,0.0,0.0,0.0,0.0,-1.1289,-1.1423,-1.1423,-1.1358,-1.1405,0.0,0.0,0.0,0.0,0.0,0.0,-1.119,-1.1304,-1.1291,-1.1145,-1.0918,-1.065,-1.0182,-0.9951,-0.9566,-0.8864,-0.8631,-0.8329,-0.7947,-0.77,-0.7462,-0.707,-0.707,-0.6838,-0.6523,-0.6369,-0.6338,-0.6338,-0.6338,-0.6285,-0.6315,-0.6152,-0.6097,-0.6051,-0.5735,-0.5653,-0.5495,-0.5258,-0.5102,-0.4864,-0.4388,0.0,0.0,0.0,0.0,-0.4636,-0.5208,-0.5719,-0.6069,-0.6334,-0.6529,-0.6702,-0.6702,-0.6646,-0.629,0.0,-0.5054,-0.4789,-0.4561,0.0,0.0,0.0,0.0,-0.5144,-0.5538,-0.6031,-0.6446,-0.6698,-0.6702,-0.6654,-0.6539,-0.6529,-0.6548,-0.6553,-0.6624,-0.6839,-0.7253,-0.7257,-0.7488,-0.8021,0.0,0.0,0.0,0.0,0.0,0.0,0.0,0.0,0.0,0.0,0.0,0.0,0.0,0.0,0.0,0.0,0.0,0.0,0.0,0.0,0.0,0.0,0.0,0.0,0.0,0.0,0.0,0.0,0.0,-1.1423,-1.1677,0.0,0.0,0.0,0.0,-1.2184,-1.2198,-1.2204,-1.2204,-1.2218,-1.2214,-1.2043,-1.1818,-1.1474,-1.0922,-1.0767,-1.0196,-0.938,-0.9136,-0.8733,-0.8332,-0.8074,-0.7823,-0.7667,-0.7424,-0.7256,-0.698,-0.6534,-0.6338,-0.6338,-0.6338,-0.6342,-0.6461,-0.6461,-0.6552,-0.6678,-0.6678,-0.6509,-0.6338,-0.6338,-0.6093,-0.5679,-0.5518,-0.5435,0.0,0.0,-0.5598,-0.5761,-0.5767,-0.6102,-0.635,-0.6357,-0.6529,-0.6702,-0.6702,-0.6814,-0.6786,0.0,-0.6022,-0.565,-0.5507,0.0,-0.5104,-0.5104,-0.536,-0.5573,-0.605,-0.628,-0.6446,-0.6698,-0.6702,-0.6698,-0.6692,-0.6688,-0.6624,-0.6551,-0.6704,-0.672,-0.6644,-0.7176,-0.7557,-0.7783,-0.8012,0.0,0.0,0.0,0.0,0.0,0.0,0.0,0.0,0.0,0.0,0.0,0.0,0.0,0.0,0.0,0.0,0.0,0.0,0.0,0.0,0.0,0.0,0.0,0.0,0.0,0.0,0.0,0.0,-1.1991,-1.2084,0.0,-1.2144,-1.2238,-1.2378,-1.2572,-1.2585,-1.2679,-1.2879,-1.2886,-1.2777,-1.2654,-1.2419,-1.2074,-1.1686,-1.1284,-1.0719,-0.9984,-0.9409,-0.9005,-0.8604,-0.818,-0.7851,-0.769,-0.7612,-0.7447,-0.7274,-0.7078,-0.6869,-0.6542,-0.6542,-0.6573,-0.662,-0.662,-0.6654,-0.6702,-0.6702,-0.6615,-0.6615,-0.6615,-0.6446,-0.6194,-0.6114,-0.5951,-0.5954,-0.6031,-0.6111,-0.6216,-0.6479,-0.659,-0.6783,-0.6873,-0.6897,-0.6983,-0.6983,-0.7027,-0.696,-0.6903,-0.6637,-0.6396,-0.6355,-0.6098,-0.6008,-0.6008,-0.6186,-0.6346,-0.656,-0.6724,-0.6893,-0.6983,-0.6983,-0.6946,-0.6854,-0.6848,-0.678,-0.6627,-0.661,-0.6614,-0.672,-0.685,-0.7099,-0.7633,-0.7714,-0.7868,0.0,0.0,0.0,0.0,0.0,0.0,0.0,0.0,0.0,0.0,0.0,0.0,0.0,0.0,0.0,0.0,0.0,0.0,0.0,0.0,0.0,0.0,0.0,0.0,0.0,0.0,-1.2338,-1.2438,-1.2452,-1.2492,-1.2599,-1.2605,-1.2692,-1.2886,-1.2906,-1.2993,-1.32,-1.3213,-1.3174,-1.3026,-1.2872,-1.2594,-1.2273,-1.1787,-1.1205,-1.0538,-0.9868,-0.9289,-0.8879,-0.8455,-0.8119,-0.8034,-0.7946,-0.7781,-0.7697,-0.7616,-0.7363,-0.6929,-0.6906,-0.6816,-0.6776,-0.6776,-0.6807,-0.6848,-0.6848,-0.6848,-0.6848,-0.6848,-0.6759,-0.6671,-0.6671,-0.6505,-0.6424,-0.659,-0.6671,-0.6698,-0.6887,-0.7,-0.7024,-0.7115,-0.7139,-0.7139,-0.7139,-0.7139,-0.7139,-0.7139,-0.6966,-0.6881,-0.6881,-0.6789,-0.6609,-0.6609,-0.6789,-0.6881,-0.6881,-0.7054,-0.7139,-0.7139,-0.7139,-0.7102,-0.7007,-0.7,-0.6936,-0.6787,-0.6681,-0.6688,-0.6799,-0.6773,-0.6928,-0.734,-0.7435,-0.7561,-0.7714,0.0,0.0,0.0,0.0,0.0,0.0,0.0,0.0,0.0,0.0,0.0,0.0,0.0,0.0,0.0,0.0,0.0,0.0,0.0,0.0,0.0,0.0,0.0,-1.2412,-1.2331,-1.2438,-1.2802,-1.2835,-1.2879,-1.318,-1.3213,-1.3213,-1.3227,-1.3227,-1.3227,-1.324,-1.324,-1.3287,-1.332,-1.3162,-1.2958,-1.2705,-1.2203,-1.1688,-1.0987,-1.0299,-0.9777,-0.9262,-0.8828,-0.8568,-0.8568,-0.8292,-0.8201,-0.8201,-0.8028,-0.7768,-0.7474,-0.7249,-0.7056,-0.6936,-0.6936,-0.7021,-0.7139,-0.7139,-0.7139,-0.7139,-0.7139,-0.7139,-0.7139,-0.7139,-0.7139,-0.7139,-0.7139,-0.7139,-0.7139,-0.7139,-0.7139,-0.7139,-0.7139,-0.7139,-0.7139,-0.7139,-0.7139,-0.7139,-0.7139,-0.7139,-0.7139,-0.7139,-0.7139,-0.7139,-0.7139,-0.7139,0.0,-0.7139,-0.7139,-0.7139,-0.7139,-0.7139,-0.7139,-0.7139,-0.7139,-0.7082,-0.6946,-0.6929,-0.6861,-0.6715,-0.6864,-0.7033,-0.7118,-0.7348,-0.7257,-0.6861,0.0,0.0,0.0,0.0,0.0,0.0,0.0,0.0,0.0,0.0,0.0,0.0,0.0,0.0,0.0,0.0,0.0,0.0,0.0,0.0,0.0,0.0,-1.3153,-1.2986,-1.2959,-1.2993,-1.3073,-1.308,-1.312,-1.32,-1.3213,-1.33,-1.3507,-1.3527,-1.3621,-1.3834,-1.3848,-1.3881,-1.3878,-1.3536,-1.3146,-1.2966,-1.2198,-1.1419,-1.0722,-1.0033,-0.9432,-0.8999,-0.874,-0.8476,-0.8292,-0.8472,-0.838,-0.8201,-0.8384,-0.8124,-0.7757,-0.7494,-0.7222,-0.7082,-0.7082,-0.7105,-0.7139,-0.7139,-0.7139,-0.7139,-0.7139,-0.7139,-0.7139,-0.7139,-0.7139,-0.7139,-0.7139,-0.7139,-0.7139,-0.7139,-0.7139,-0.7139,-0.7139,-0.7139,-0.7139,-0.7139,-0.7139,-0.7139,-0.7139,-0.7139,-0.7139,-0.7139,-0.7139,-0.7139,-0.7139,-0.7139,0.0,-0.7139,-0.7139,-0.7139,-0.7139,-0.7139,-0.7139,-0.7139,-0.7139,-0.7126,-0.7085,-0.6987,-0.6909,-0.6868,-0.6843,-0.6791,-0.6882,-0.707,-0.7066,0.0,0.0,0.0,0.0,0.0,0.0,0.0,0.0,0.0,0.0,0.0,0.0,0.0,0.0,0.0,0.0,0.0,0.0,0.0,0.0,0.0,0.0,-1.35,-1.3581,-1.3581,-1.3367,-1.326,-1.3373,-1.3394,-1.344,-1.3567,-1.3581,-1.3647,-1.3814,-1.3828,-1.3908,-1.4082,-1.4088,-1.4088,-1.4088,-1.3737,-1.3398,-1.3228,-1.2448,-1.1585,-1.0895,-1.0207,-0.9602,-0.9087,-0.8828,-0.856,-0.8201,-0.838,-0.8296,-0.8113,-0.8208,-0.812,0.0,0.0,0.0,0.0,0.0,-0.7139,-0.7139,-0.7139,-0.7139,-0.7139,-0.7139,-0.7139,-0.7139,-0.7139,-0.7139,-0.7139,-0.7139,-0.7139,-0.7139,-0.7139,-0.7139,-0.7139,-0.7139,-0.7139,-0.7139,-0.7139,-0.7139,-0.7139,-0.7139,-0.7139,0.0,-0.7139,-0.7139,-0.7139,-0.7139,-0.7139,-0.7139,-0.7139,-0.7139,-0.7139,-0.7139,-0.7139,-0.7139,-0.7139,-0.7139,0.0,0.0,0.0,-0.7017,-0.7017,-0.6875,0.0,0.0,0.0,-0.6748,-0.6581,0.0,0.0,0.0,-0.5781,-0.5667,0.0,0.0,0.0,0.0,0.0,0.0,0.0,0.0,0.0,0.0,0.0,0.0,0.0,0.0,0.0,0.0,-1.3915,-1.4088,-1.4088,-1.3641,-1.3407,-1.3661,-1.3694,-1.3801,-1.4062,-1.4088,-1.4088,-1.4088,-1.4088,-1.4088,-1.4088,0.0,0.0,0.0,0.0,-1.3568,-1.3398,-1.2705,-1.2032,-1.1278,-1.0676,-0.9998,-0.9411,-0.9151,-0.8705,-0.8255,-0.8255,-0.8082,-0.7908,-0.7912,-0.7823,-0.7556,-0.7782,-0.7499,-0.7139,-0.7139,-0.7139,-0.7139,-0.7139,0.0,0.0,-0.7139,-0.7139,-0.7139,-0.7139,-0.7139,-0.7139,-0.7139,-0.7139,-0.7139,-0.7139,-0.7139,-0.7139,-0.7139,-0.7139,-0.7139,-0.7139,-0.7139,-0.7139,-0.7139,-0.7139,-0.7139,-0.7139,-0.7139,-0.7139,-0.7139,-0.7139,-0.7139,-0.7139,-0.7139,-0.7139,-0.7139,0.0,0.0,-0.7139,-0.7139,-0.7139,-0.7139,-0.7139,-0.7139,-0.7139,-0.7017,-0.6946,-0.6929,-0.6661,-0.6515,-0.6498,-0.6356,-0.6285,-0.6285,-0.6028,-0.5941,0.0,0.0,0.0,0.0,0.0,0.0,0.0,0.0,0.0,0.0,0.0,0.0,0.0,0.0,0.0,-1.4001,-1.4048,-1.4088,-1.4088,-1.3988,-1.3941,-1.3995,-1.4001,-1.4021,-1.4082,-1.4088,-1.4088,-1.4088,-1.4088,-1.4088,-1.4088,-1.4088,-1.4088,-1.4088,-1.3828,-1.3568,-1.3137,-1.2625,-1.2037,-1.1269,0.0,0.0,-1.0095,-0.9819,-0.9263,-0.8609,-0.8609,-0.8336,-0.7877,-0.8151,-0.8062,-0.7759,-0.7417,-0.7231,-0.7139,-0.7139,-0.7139,-0.7139,-0.7139,-0.7139,-0.7139,-0.7139,-0.7139,-0.7139,-0.7139,-0.7139,0.0,-0.7139,-0.7139,-0.7139,-0.7139,-0.7139,-0.7139,-0.7139,-0.7139,-0.7139,-0.7139,-0.7139,-0.7139,-0.7139,-0.7139,-0.7139,-0.7139,-0.7139,-0.7139,-0.7139,-0.7139,-0.7139,-0.7139,-0.7139,-0.7139,-0.7139,-0.7139,-0.7139,-0.7139,-0.7139,-0.7139,-0.7139,-0.7139,-0.7139,-0.7139,-0.7112,-0.7044,-0.6929,-0.6871,-0.678,-0.6658,-0.6505,-0.643,-0.6427,-0.6312,-0.6257,0.0,0.0,0.0,0.0,0.0,0.0,0.0,0.0,0.0,0.0,0.0,-1.4088,0.0,0.0,-1.4088,-1.4088,-1.4088,-1.4088,-1.4088,-1.4088,-1.4088,-1.4088,-1.4088,-1.4088,-1.4088,-1.4088,-1.4088,-1.4088,-1.4088,-1.4088,-1.4088,-1.4088,-1.4088,-1.4088,-1.3997,-1.3809,-1.3694,-1.325,-1.278,-1.2237,-1.2057,-1.1572,-1.0852,-1.0575,-0.9921,-0.9076,-0.88,-0.843,-0.7969,-0.7969,-0.7875,-0.7768,-0.7431,-0.7322,-0.7248,-0.717,-0.7139,-0.7139,-0.7139,-0.7139,-0.7139,-0.7139,-0.7139,-0.7139,-0.7139,-0.7139,-0.7139,-0.7139,-0.7139,-0.7139,-0.7139,-0.7139,-0.7139,-0.7139,-0.7139,-0.7139,-0.7139,-0.7139,-0.7139,-0.7139,-0.7139,-0.7139,-0.7139,-0.7139,-0.7139,-0.7139,-0.7139,-0.7139,-0.7139,-0.7139,-0.7139,-0.7139,-0.7139,-0.7139,-0.7139,-0.7139,-0.7139,-0.7139,-0.7139,-0.7139,-0.7139,-0.7139,-0.7105,-0.7037,-0.6966,-0.6892,-0.6814,-0.6661,-0.6586,-0.6583,-0.6515,-0.64,0.0,0.0,0.0,0.0,0.0,0.0,0.0,0.0,-1.4398,-1.4166,-1.4088,-1.4088,-1.4088,-1.4088,-1.4088,-1.4088,-1.4088,-1.4088,-1.4088,-1.4088,-1.4088,-1.4088,-1.4088,-1.4088,-1.4088,-1.4088,-1.4088,-1.4088,-1.4088,-1.4088,-1.4088,-1.4142,-1.4168,-1.4168,-1.4229,-1.4283,-1.4252,-1.407,-1.3767,-1.3409,-1.3226,-1.2699,-1.1812,-1.144,-1.0782,-0.9746,-0.9091,-0.8528,-0.8062,-0.7872,-0.7685,-0.7682,-0.7749,-0.766,-0.7533,-0.7285,-0.7231,-0.7231,-0.7231,-0.721,-0.7183,-0.7183,-0.7166,-0.7139,-0.7139,-0.7139,-0.7139,-0.7139,-0.7139,-0.7139,-0.7139,-0.7139,-0.7139,-0.7139,-0.7139,-0.7139,-0.7139,-0.7139,-0.7139,-0.7139,-0.7139,-0.7139,-0.7139,-0.7139,-0.7139,-0.7139,-0.7139,-0.7139,-0.7139,-0.7139,-0.7139,-0.7139,-0.7139,-0.7139,-0.7139,-0.7139,-0.7139,-0.7139,-0.7139,-0.7139,-0.7139,-0.7139,-0.7139,-0.7139,-0.7027,-0.697,-0.697,-0.6817,-0.6746,-0.6746,-0.6715,-0.6559,-2.0264,-1.9627,-1.8754,-1.7781,-1.7049,-1.6402,0.0,0.0,-1.4573,-1.4166,-1.4088,-1.4088,-1.4088,-1.4088,-1.4088,-1.4088,-1.4088,-1.4088,-1.4088,-1.4088,-1.4088,-1.4088,-1.4088,-1.4088,-1.4088,-1.4088,-1.4088,-1.4088,-1.4088,-1.4088,-1.4088,-1.4335,-1.4476,-1.4476,-1.473,-1.4787,-1.4545,-1.4545,-1.4417,-1.4149,-1.4149,-1.3796,-1.3239,-1.2769,-1.1996,-1.0928,-0.9661,-0.8879,-0.8379,-0.8283,-0.8185,-0.7977,-0.8042,-0.8076,-0.8041,-0.7698,-0.755,-0.755,-0.755,-0.7458,-0.7346,-0.7346,-0.7251,-0.7139,-0.7139,-0.7139,-0.7139,-0.7139,-0.7139,-0.7139,-0.7139,-0.7139,-0.7139,-0.7139,-0.7139,-0.7139,-0.7139,-0.7139,-0.7139,-0.7139,-0.7139,-0.7139,-0.7139,-0.7139,-0.7139,-0.7139,-0.7139,-0.7139,-0.7139,-0.7139,-0.7139,-0.7139,-0.7139,-0.7139,-0.7139,-0.7139,-0.7139,-0.7139,-0.7139,-0.7139,-0.7139,-0.7139,-0.7139,-0.7139,-0.7126,-0.7115,-0.7115,-0.6973,-0.6902,-0.6902,-0.6763,-0.661,-1.9706,-1.8993,0.0,0.0,-1.664,-1.5899,-1.5151,-1.4734,-1.4398,-1.4166,-1.4088,-1.4088,-1.4088,-1.4088,-1.4088,0.0,-1.4088,-1.4088,-1.4088,-1.4088,-1.4088,-1.4088,-1.4088,-1.4088,-1.4088,-1.4088,-1.4088,-1.4088,-1.4088,-1.4162,-1.4329,-1.4456,-1.4596,-1.477,-1.4897,-1.5044,-1.5028,-1.5028,-1.5081,-1.4986,-1.4986,-1.4766,-1.4196,-1.3619,-1.2651,-1.1389,-1.0507,-0.9821,-0.9324,-0.9031,-0.8836,-0.873,-0.8561,-0.8532,-0.8503,-0.8157,-0.7973,-0.7879,-0.7879,-0.765,-0.7506,-0.7506,-0.7461,-0.739,-0.7302,-0.7275,-0.7255,-0.7166,-0.7139,-0.7139,-0.7139,-0.7139,-0.7139,-0.7139,-0.7139,-0.7143,-0.7323,-0.7323,-0.7411,-0.7672,-0.7672,-0.7584,-0.7757,-0.7496,-0.7323,-0.7323,-0.7231,-0.7139,-0.7139,-0.7139,-0.7139,-0.7139,-0.7139,-0.7139,-0.7139,-0.7139,-0.7139,-0.7139,-0.7139,-0.7139,-0.7139,-0.7139,-0.7139,-0.7139,-0.7139,-0.7139,-0.7139,-0.7082,-0.7051,-0.7051,-0.6987,-0.6878,-1.9469,0.0,0.0,-1.7221,-1.6476,-1.5816,-1.5068,-1.465,-1.4405,-1.4166,-1.4088,-1.4088,-1.4088,-1.4088,-1.4088,-1.4088,-1.4088,-1.4088,-1.4088,-1.4088,-1.4088,-1.4088,-1.4088,-1.4088,-1.4088,-1.4088,-1.4122,-1.4202,-1.4208,-1.4335,-1.4629,-1.4716,-1.4863,-1.5077,-1.5164,-1.5304,-1.5518,-1.5518,-1.5524,-1.554,-1.554,-1.5356,-1.4879,-1.4292,-1.3323,-1.197,-1.1477,-1.0993,-1.0314,-0.992,-0.9628,-0.943,-0.9324,-0.9122,-0.8996,-0.8852,-0.8573,-0.8193,-0.8193,-0.7977,-0.7756,-0.7756,-0.7729,-0.758,-0.7468,-0.7434,-0.7404,-0.7248,-0.7204,-0.7193,-0.7149,-0.7139,-0.7139,-0.7139,-0.7139,-0.7143,-0.7415,-0.7507,-0.768,-0.8113,-0.8113,-0.8028,-0.8285,-0.794,-0.768,-0.768,-0.7411,-0.7143,-0.7139,-0.7139,-0.7139,-0.7139,-0.7139,-0.7139,-0.7139,-0.7139,-0.7139,-0.7139,-0.7139,-0.7139,-0.7139,-0.7139,-0.7139,-0.7139,-0.7139,-0.7139,-0.7139,-0.7139,-0.7139,-0.7139,-0.7139,-0.7085,0.0,0.0,-1.8843,-1.8112,-1.7302,-1.6402,-1.556,-1.4977,-1.4573,-1.4166,-1.4088,-1.4088,-1.4088,-1.4088,-1.4088,-1.4088,-1.4088,-1.4088,-1.4088,-1.4088,-1.4088,-1.4088,-1.4088,-1.4088,0.0,-1.4088,-1.4202,-1.4482,-1.4502,-1.4636,-1.4937,-1.5217,-1.5378,-1.5384,-1.5658,-1.5805,-1.5812,-1.5812,-1.5818,-1.5825,-1.5825,-1.5635,-1.5445,-1.4682,-1.3806,-1.3022,-1.2732,-1.2058,-1.1194,-1.1194,-1.0703,-1.0019,-1.0216,-1.0019,-0.9624,-0.9908,-0.9406,-0.881,-0.881,-0.8517,-0.8204,-0.8204,-0.791,-0.76,-0.7594,-0.7594,-0.756,-0.7407,-0.7363,-0.7329,-0.718,-0.7139,-0.7139,-0.7139,-0.7139,-0.7143,-0.7415,-0.7507,-0.768,-0.8113,-0.8201,-0.8285,-0.8548,-0.8372,-0.8201,-0.8201,-0.7768,-0.7415,-0.7143,-0.7139,-0.7139,-0.7139,-0.7139,-0.7139,-0.7139,-0.7139,-0.7139,-0.7139,-0.7139,-0.7139,-0.7139,-0.7139,-0.7139,-0.7139,-0.7139,-0.7139,-0.7139,-0.7139,-0.7139,-0.7139,-0.7139,-0.7139,0.0,0.0,-1.8442,-1.7797,-1.7057,-1.6237,-1.5409,-1.4908,-1.4573,-1.4166,-1.4088,-1.4088,-1.4088,-1.4088,-1.4088,-1.4088,-1.4088,-1.4088,-1.4088,-1.4088,-1.4088,-1.4088,-1.4088,0.0,0.0,0.0,0.0,-1.4509,-1.4703,-1.4943,-1.5237,-1.5344,-1.5484,-1.5678,-1.5778,-1.5832,-1.5832,-1.5832,-1.5832,-1.5832,-1.5832,-1.5737,-1.5445,-1.5255,-1.4771,-1.41,-1.3908,-1.3516,-1.2937,-1.2446,-1.2058,-1.176,-1.1385,-1.1002,-1.0609,-1.0609,-1.0113,-0.9521,-0.9229,-0.8894,-0.8648,-0.8852,-0.8818,-0.8653,-0.8733,-0.8791,-0.8756,-0.8672,-0.844,-0.831,-0.8057,-0.7833,-0.7534,-0.7436,-0.7231,-0.7231,-0.7676,-0.7768,-0.8028,-0.899,-0.899,-0.9165,-0.9854,-0.951,-0.8986,-0.8456,-0.7852,-0.7415,-0.7143,-0.7139,-0.7139,-0.7139,-0.7139,-0.7139,-0.7139,-0.7139,-0.7139,-0.7139,-0.7139,-0.7139,-0.7139,-0.7139,-0.7139,-0.7139,-0.7139,-0.7139,-0.7139,-0.7139,-0.7139,-0.7139,-0.7139,-0.7139,-1.9872,-1.9311,-1.8594,-1.8031,-1.7302,-1.6566,-1.5673,-1.5159,-1.4817,-1.4328,-1.4243,-1.4166,-1.4088,-1.4088,-1.4088,-1.4088,-1.4088,-1.4088,-1.4088,-1.4088,-1.4088,-1.4088,-1.4088,-1.4202,0.0,0.0,0.0,-1.4823,-1.501,-1.5244,-1.5538,-1.5551,-1.5638,-1.5818,-1.5832,-1.5832,-1.5832,-1.5832,-1.5832,-1.5832,-1.5832,-1.573,-1.5635,-1.5635,-1.5356,-1.4975,-1.4777,-1.4484,-1.41,-1.3613,-1.3318,-1.3022,-1.2452,-1.2068,-1.1678,-1.1389,-1.0904,-1.0314,-0.9723,-0.9229,-0.9031,-0.9232,-0.9331,-0.9406,-0.9583,-0.9643,-0.9702,-0.9609,-0.946,-0.923,-0.8962,-0.8639,-0.8413,-0.8068,-0.7849,-0.783,-0.822,-0.8204,-0.8464,-0.9428,-0.9515,-0.9689,-1.0549,-1.0381,-0.9859,-0.8982,-0.838,-0.7856,-0.7323,-0.7143,-0.7139,-0.7139,-0.7139,-0.7139,-0.7139,-0.7139,-0.7139,-0.7139,-0.7139,-0.7139,-0.7139,-0.7139,-0.7139,-0.7139,-0.7139,-0.7139,-0.7139,-0.7139,-0.7139,-0.7139,-0.7139,-0.7139,-2.0264,-1.9784,-1.9143,-1.8816,-1.8031,-1.7147,-1.6335,-1.5741,-1.5228,-1.4559,-1.4398,-1.4314,0.0,0.0,-1.4088,-1.4088,-1.4088,-1.4088,-1.4088,-1.4088,-1.4088,0.0,0.0,0.0,0.0,0.0,0.0,-1.5398,0.0,-1.5538,-1.5812,-1.5832,-1.5832,-1.5832,-1.5832,-1.5832,-1.5832,-1.5832,-1.5832,-1.5832,-1.5832,-1.5832,-1.5832,-1.5832,-1.573,-1.554,-1.554,-1.5255,-1.4783,-1.4783,-1.4394,-1.3902,-1.3709,-1.3216,-1.2732,-1.2262,-1.178,-1.1194,-1.0408,-0.9723,-0.9335,-0.9628,-0.9715,-0.9805,-1.0015,-1.0314,-1.0471,-1.0377,-1.0323,-1.0278,-0.989,-0.9744,-0.9511,-0.9059,-0.8919,-0.896,-0.8962,-0.8823,-0.8811,-0.9515,-0.9689,-1.0033,-1.0895,-1.1068,-1.0722,-0.9864,-0.9257,-0.8648,-0.768,-0.7323,-0.7139,-0.7139,-0.7139,-0.7139,-0.7139,-0.7139,-0.7139,-0.7139,-0.7139,-0.7139,-0.7139,-0.7139,-0.7139,-0.7139,-0.7139,-0.7139,-0.7139,-0.7139,-0.7139,-0.7139,-0.7139,-0.7139,-1.9715,-1.932,-1.8763,-1.8514,-1.7951,-1.7147,-1.6335,-1.5741,-1.5228,-1.4559,-1.4398,-1.4314,0.0,0.0,0.0,-1.4088,-1.4088,0.0,-1.4088,-1.4088,0.0,-1.4088,0.0,-1.4289,-1.4803,-1.4917,0.0,0.0,-1.5718,-1.5752,-1.5825,-1.5832,-1.5832,-1.5832,-1.5832,-1.5832,-1.5832,-1.5832,-1.5832,-1.5832,-1.5832,-1.5832,-1.5832,-1.5832,-1.5737,-1.5737,-1.5737,-1.5635,-1.5547,-1.5356,-1.5255,-1.5057,-1.4586,-1.4202,-1.3806,-1.3323,-1.2737,-1.2252,-1.1678,-1.0998,-1.0413,-1.0703,-1.1096,-1.1482,-1.1683,-1.2068,-1.2431,-1.2373,-1.2255,-1.2011,-1.1795,-1.1174,-1.0557,-1.0348,-0.9822,-0.944,-0.9656,-0.9531,-0.951,-1.0202,-1.1068,-1.1757,-1.2015,-1.2015,-1.1843,-1.1241,-1.0467,-0.951,-0.8201,-0.7676,-0.7415,-0.7415,-0.7231,-0.7139,-0.7139,-0.7139,-0.7139,-0.7139,-0.7139,-0.7139,-0.7139,-0.7139,-0.7139,-0.7139,-0.7139,-0.7139,-0.7139,-0.7139,-0.7139,-0.7139,-0.7139,-0.7139,-1.932,-1.8922,-1.8442,-1.8273,-1.7797,-1.7229,-1.6409,-1.5989,-1.5492,-1.4734,-1.4566,0.0,0.0,0.0,0.0,0.0,0.0,0.0,-1.4088,-1.4088,-1.4088,0.0,-1.4088,0.0,-1.4903,-1.4963,-1.5204,0.0,-1.5832,-1.5832,-1.5832,-1.5832,-1.5832,-1.5832,-1.5832,-1.5832,-1.5832,-1.5832,-1.5832,-1.5832,-1.5832,-1.5832,-1.5832,-1.5832,-1.5832,-1.5832,0.0,-1.5832,-1.5825,-1.5635,-1.5635,-1.5635,-1.5159,-1.4968,-1.4771,-1.4196,-1.3806,-1.3318,-1.2942,-1.2554,-1.2063,-1.1585,-1.1785,-1.2273,-1.2467,-1.2851,-1.3232,-1.3232,-1.3221,-1.3188,-1.2964,-1.2639,-1.2194,-1.1869,-1.1441,-1.1207,-1.11,-1.078,-1.0665,-1.0824,-1.1757,-1.2534,-1.2534,-1.2705,-1.2705,-1.2192,-1.1413,-1.0549,-0.9593,-0.8548,-0.7852,-0.768,-0.7411,-0.7234,-0.7234,-0.7234,-0.7323,-0.7408,-0.7319,-0.7234,-0.7234,-0.7143,-0.7139,-0.7139,-0.7139,-0.7139,-0.7139,-0.7139,-0.7139,-0.7139,-0.7139,-0.7139,-1.8754,-1.8425,-1.8103,-1.7951,-1.7546,-1.7057,-1.6476,-1.6162,-1.5748,-1.4817,0.0,-1.4573,-1.4166,-1.4088,-1.4088,-1.4088,0.0,-1.4088,-1.4088,-1.4088,-1.4088,-1.4088,-1.4088,-1.4315,-1.4903,-1.4963,-1.5204,-1.5785,-1.5832,-1.5832,-1.5832,-1.5832,-1.5832,-1.5832,-1.5832,-1.5832,-1.5832,-1.5832,-1.5832,-1.5832,-1.5832,-1.5832,-1.5832,-1.5832,-1.5832,-1.5832,-1.5832,-1.5832,-1.5832,-1.5832,-1.5832,-1.5737,-1.5635,-1.554,-1.5445,-1.4975,-1.4688,-1.4394,-1.41,-1.4004,-1.3806,-1.236,-1.2268,-1.2662,-1.2856,-1.3249,-1.3636,-1.3636,-1.3817,-1.4004,-1.3806,-1.3902,-1.3945,-1.3537,-1.3362,-1.3217,-1.2771,-1.2348,-1.1877,-1.1629,-1.2186,-1.279,-1.279,-1.3137,-1.3307,-1.2875,-1.2272,-1.1763,-1.1241,-0.9676,-0.8456,-0.8028,-0.7768,-0.7595,-0.7595,-0.7595,-0.768,-0.7856,-0.768,-0.7507,-0.7507,-0.7234,-0.7143,-0.7139,-0.7139,-0.7139,-0.7139,-0.7139,-0.7139,-0.7139,-0.7139,-0.7139,-1.7691,-1.744,-1.7196,-1.7204,-1.6878,-1.6476,-1.5899,-1.5575,0.0,0.0,0.0,-1.4405,-1.4166,-1.4088,0.0,-1.4088,0.0,0.0,0.0,0.0,-1.4088,0.0,0.0,0.0,0.0,0.0,0.0,0.0,0.0,-1.5832,-1.5832,-1.5832,-1.5832,-1.5832,-1.5832,-1.5832,-1.5832,-1.5832,-1.5832,-1.5832,-1.5832,-1.5832,-1.5832,-1.5832,-1.5832,-1.5832,-1.5832,0.0,-1.5832,-1.5832,-1.5832,-1.5832,-1.573,-1.5737,-1.5737,-1.5445,-1.535,-1.5255,-1.4682,-1.4592,-1.44,-1.3516,-1.3516,-1.3913,-1.3539,-1.3919,-1.4496,-1.4202,-1.4496,-1.4885,-1.479,-1.4688,-1.458,-1.4435,-1.4069,-1.3788,-1.3692,-1.3231,-1.2844,-1.2759,-1.3052,-1.3307,-1.3476,-1.3561,-1.3652,-1.3561,-1.3137,-1.2711,-1.2192,-1.0549,-0.9253,-0.8736,-0.8288,-0.8028,-0.7856,-0.7856,-0.7856,-0.7856,-0.7856,-0.7768,-0.7507,-0.7415,-0.7323,-0.7139,-0.7139,-0.7139,-0.7139,-0.7139,-0.7139,-0.7139,-0.7139,-0.7139,-1.6722,-1.6558,-1.6304,-1.6221,-1.6057,-1.5816,-1.5492,0.0,0.0,0.0,0.0,-1.4314,-1.4173,0.0,0.0,0.0,0.0,0.0,0.0,0.0,0.0,0.0,0.0,0.0,0.0,0.0,0.0,0.0,0.0,-1.5832,-1.5832,-1.5832,-1.5832,-1.5832,-1.5832,-1.5832,-1.5832,-1.5832,-1.5832,-1.5832,-1.5832,-1.5832,-1.5832,-1.5832,-1.5832,-1.5832,-1.5832,-1.5832,-1.5832,-1.5832,-1.5832,-1.5832,-1.5832,-1.5832,-1.5825,-1.5737,-1.5642,-1.5635,-1.5356,-1.5261,-1.5159,-1.4675,-1.449,-1.4394,-1.4016,-1.4304,-1.4688,-1.4394,-1.4688,-1.5083,-1.5083,-1.5172,-1.5261,-1.5261,-1.4948,-1.4606,-1.4276,-1.3925,-1.3554,-1.3278,-1.3392,-1.3568,-1.3652,-1.3822,-1.3913,-1.3913,-1.3652,-1.3307,-1.2966,-1.1929,-1.0809,-0.9777,-0.9253,-0.8815,-0.8472,-0.8384,-0.8384,-0.8384,-0.8384,-0.8292,-0.8113,-0.7764,-0.7588,-0.7323,-0.7143,-0.7139,-0.7139,-0.7139,-0.7139,-0.7139,-0.7139,-0.7139,-1.5831,-1.5665,-1.5484,-1.5311,-1.5228,-1.5144,-1.4999,-1.4922,0.0,0.0,-1.4314,-1.4321,-1.4166,0.0,0.0,0.0,0.0,0.0,0.0,0.0,0.0,0.0,0.0,0.0,0.0,0.0,0.0,0.0,0.0,0.0,-1.5832,-1.5832,-1.5832,-1.5832,-1.5832,-1.5832,-1.5832,-1.5832,-1.5832,-1.5832,-1.5832,-1.5832,-1.5832,-1.5832,-1.5832,-1.5832,-1.5832,-1.5832,-1.5832,-1.5832,-1.5832,-1.5832,-1.5832,-1.5832,-1.5832,-1.5832,-1.5832,-1.5832,-1.5832,-1.5832,-1.5737,-1.5635,-1.5261,-1.4783,-1.4394,-1.449,-1.4592,-1.4304,-1.4598,-1.5083,-1.5083,-1.5458,-1.5832,-1.5832,-1.5658,-1.5312,-1.4838,-1.455,-1.4261,-1.3709,-1.3691,-1.3822,-1.3822,-1.3997,-1.4088,-1.4088,-1.3913,-1.3737,-1.3483,-1.3137,-1.2363,-1.1068,-1.0294,-0.9689,-0.917,-0.9087,-0.9087,-0.9087,-0.9087,-0.8995,-0.8727,-0.8288,-0.7856,-0.7595,-0.7323,-0.7143,-0.7139,-0.7139,-0.7139,-0.7139,-0.7139,-0.7139,-1.4985,-1.4817,-1.4817,-1.4734,-1.465,-1.4482,-1.4482,0.0,0.0,-1.4173,-1.4166,-1.4088,-1.4088,-1.4088,0.0,0.0,0.0,0.0,0.0,0.0,0.0,0.0,0.0,0.0,0.0,0.0,0.0,0.0,0.0,0.0,-1.5832,-1.5832,-1.5832,-1.5832,-1.5832,-1.5832,-1.5832,-1.5832,-1.5832,-1.5832,-1.5832,-1.5832,-1.5832,-1.5832,-1.5832,-1.5832,-1.5832,-1.5832,0.0,-1.5832,-1.5832,-1.5832,-1.5832,-1.5832,-1.5832,-1.5832,-1.5832,-1.5832,-1.5832,-1.5832,-1.5832,-1.5737,-1.5635,-1.5255,-1.449,-1.449,-1.4598,-1.4124,-1.4508,-1.5083,-1.5083,-1.5458,-1.5832,-1.5832,-1.5805,-1.5712,-1.5418,-1.513,-1.4836,-1.4449,-1.4176,-1.4088,-1.4088,-1.4088,-1.4088,-1.4088,-1.4088,-1.3997,-1.3737,-1.3652,-1.3392,-1.2881,-1.1671,-1.0554,-0.9859,-0.9602,-0.9515,-0.9515,-0.9515,-0.9432,-0.9257,-0.8999,-0.8468,-0.7764,-0.7591,-0.7323,-0.7139,-0.7139,-0.7139,-0.7139,-0.7139,-0.7139,-1.465,-1.4482,-1.4482,-1.4412,-1.4243,-1.4243,-1.4243,0.0,0.0,-1.4088,-1.4088,-1.4088,-1.4088,-1.4088,-1.4088,0.0,0.0,0.0,0.0,0.0,0.0,0.0,0.0,0.0,0.0,0.0,0.0,0.0,0.0,0.0,-1.5832,-1.5832,-1.5832,-1.5832,-1.5832,-1.5832,-1.5832,-1.5832,-1.5832,-1.5832,-1.5832,-1.5832,-1.5832,-1.5832,-1.5832,-1.5832,-1.5832,-1.5832,0.0,-1.5832,-1.5832,-1.5832,-1.5832,-1.5832,-1.5832,-1.5832,-1.5832,-1.5832,-1.5832,-1.5832,-1.5832,-1.5832,-1.5737,-1.5635,-1.5159,-1.4975,-1.4885,-1.4502,-1.4598,-1.4885,-1.5083,-1.5458,-1.5832,-1.5832,-1.5832,-1.5752,-1.5458,-1.517,-1.4877,-1.4583,-1.4282,-1.4088,-1.4088,-1.4088,-1.4088,-1.4088,-1.4088,-1.4088,-1.3913,-1.3913,-1.3828,-1.3483,-1.2448,-1.1499,-1.0809,-1.0549,-1.0381,-1.0207,-1.0381,-1.0294,-1.012,-0.9685,-0.9165,-0.8472,-0.7944,-0.7588,-0.7323,-0.7143,-0.7139,-0.7139,-0.7139,-0.7139,-1.4405,-1.4321,-1.4237,-1.4173,-1.4088,-1.4088,0.0,0.0,0.0,-1.4088,-1.4088,-1.4088,-1.4088,-1.4088,-1.4088,0.0,0.0,-1.4088,0.0,0.0,0.0,0.0,0.0,0.0,0.0,0.0,0.0,0.0,0.0,0.0,-1.5832,-1.5832,-1.5832,-1.5832,-1.5832,-1.5832,-1.5832,-1.5832,-1.5832,-1.5832,-1.5832,-1.5832,-1.5832,-1.5832,-1.5832,-1.5832,-1.5832,-1.5832,0.0,-1.5832,-1.5832,-1.5832,-1.5832,-1.5832,-1.5832,-1.5832,-1.5832,-1.5832,-1.5832,-1.5832,-1.5832,-1.5832,-1.5832,-1.5737,-1.5635,-1.5363,-1.5083,-1.479,-1.479,-1.4885,-1.5172,-1.5547,-1.5832,-1.5832,-1.5832,-1.5772,-1.5571,-1.5297,-1.5003,-1.471,-1.4416,-1.4188,-1.4102,-1.4088,-1.4088,-1.4088,-1.4088,-1.4088,-1.4088,-1.4088,-1.4004,-1.3828,-1.3222,-1.2448,-1.1671,-1.1413,-1.1154,-1.0982,-1.1154,-1.1154,-1.0982,-1.0549,-0.9946,-0.917,-0.8552,-0.8028,-0.768,-0.7496,-0.7316,-0.7231,-0.7231,-0.7143,-1.4166,-1.4088,-1.4088,-1.4088,-1.4088,-1.4088,0.0,0.0,-1.4088,-1.4088,-1.4088,-1.4088,-1.4088,-1.4088,-1.4088,-1.4088,-1.4088,0.0,0.0,0.0,0.0,0.0,0.0,0.0,0.0,0.0,0.0,0.0,0.0,0.0,-1.5832,-1.5832,-1.5832,-1.5832,-1.5832,-1.5832,-1.5832,-1.5832,-1.5832,-1.5832,-1.5832,-1.5832,-1.5832,-1.5832,-1.5832,-1.5832,-1.5832,-1.5832,0.0,-1.5832,-1.5832,-1.5832,-1.5832,-1.5832,-1.5832,-1.5832,-1.5832,-1.5832,-1.5832,-1.5832,-1.5832,-1.5832,-1.5832,-1.5832,-1.5832,-1.5458,-1.5083,-1.479,-1.4885,-1.5178,-1.5452,-1.5635,-1.5832,-1.5832,-1.5832,-1.5832,-1.5825,-1.5598,-1.5304,-1.5017,-1.4716,-1.4422,-1.4135,-1.4088,-1.4088,-1.4088,-1.4088,-1.4088,-1.4088,-1.4088,-1.4088,-1.4088,-1.3822,-1.3307,-1.2448,-1.21,-1.1929,-1.1671,-1.1843,-1.1929,-1.1671,-1.1413,-1.0809,-0.9946,-0.9515,-0.8907,-0.8201,-0.8201,-0.794,-0.7507,-0.7507,-0.7326,-1.4166,-1.4088,-1.4088,-1.4088,-1.4088,-1.4088,-1.4088,0.0,-1.4088,-1.4088,-1.4088,-1.4088,-1.4088,-1.4088,-1.4088,-1.4088,-1.4088,0.0,0.0,0.0,0.0,0.0,0.0,0.0,0.0,0.0,0.0,0.0,0.0,0.0,-1.5832,-1.5832,-1.5832,-1.5832,-1.5832,-1.5832,-1.5832,-1.5832,-1.5832,-1.5832,-1.5832,-1.5832,-1.5832,-1.5832,-1.5832,-1.5832,-1.5832,-1.5832,-1.5832,-1.5832,-1.5832,-1.5832,-1.5832,-1.5832,-1.5832,-1.5832,-1.5832,-1.5832,-1.5832,-1.5832,-1.5832,-1.5832,-1.5832,-1.5737,-1.5635,-1.5363,-1.4987,-1.4592,-1.479,-1.5083,-1.5172,-1.5547,-1.5832,-1.5832,-1.5832,-1.5832,-1.5832,-1.5605,-1.5311,-1.5023,-1.4723,-1.4429,-1.4135,-1.4088,-1.4088,-1.4088,-1.4088,-1.4088,-1.4088,-1.4088,-1.4088,-1.4088,-1.3997,-1.3737,-1.3137,-1.2881,-1.2705,-1.2625,-1.2711,-1.2705,-1.2625,-1.2277,-1.1757,-1.1154,-1.0381,-0.9772,-0.9336,-0.8894,-0.846,-0.794,-0.768,-0.7415,0.0,-1.4088,-1.4088,-1.4088,-1.4088,0.0,0.0,0.0,-1.4088,-1.4088,-1.4088,-1.4088,-1.4088,-1.4088,-1.4088,-1.4088,-1.4088,0.0,0.0,0.0,0.0,0.0,0.0,0.0,0.0,0.0,0.0,0.0,0.0,0.0,-1.5832,-1.5832,-1.5832,-1.5832,-1.5832,-1.5832,-1.5832,-1.5832,-1.5832,-1.5832,-1.5832,-1.5832,-1.5832,-1.5832,-1.5832,-1.5832,-1.5832,-1.5832,0.0,-1.5832,-1.5832,-1.5832,-1.5832,-1.5832,-1.5832,-1.5832,-1.5832,-1.5832,-1.5832,-1.5832,-1.5832,-1.5832,-1.5737,-1.5635,-1.5261,-1.507,-1.4885,-1.4496,-1.4783,-1.5083,-1.5172,-1.5547,-1.5832,-1.5832,-1.5832,-1.5832,-1.5832,-1.5691,-1.5444,-1.5044,-1.4816,-1.4556,-1.4155,-1.4088,-1.4088,-1.4088,-1.4088,-1.4088,-1.4088,-1.4088,-1.4088,-1.4088,-1.4088,-1.3997,-1.3659,-1.3483,-1.3313,-1.3222,-1.3307,-1.3313,-1.3222,-1.2966,-1.2534,-1.21,-1.1413,-1.0895,-1.0463,-0.9676,-0.9069,-0.8727,-0.8113,-0.7852,0.0,0.0,0.0,0.0,0.0,0.0,0.0,0.0,0.0,-1.4088,-1.4088,-1.4088,-1.4088,-1.4088,-1.4088,-1.4088,0.0,0.0,0.0,0.0,0.0,0.0,0.0,0.0,0.0,0.0,0.0,0.0,0.0,0.0,-1.5832,-1.5832,-1.5832,-1.5832,-1.5832,-1.5832,-1.5832,-1.5832,-1.5832,-1.5832,-1.5832,-1.5832,-1.5832,-1.5832,-1.5832,0.0,-1.5832,-1.5832,-1.5832,-1.5832,-1.5832,-1.5832,-1.5832,-1.5832,-1.5832,-1.5832,-1.5832,-1.5832,-1.5832,-1.5832,-1.5832,-1.5737,-1.5635,-1.535,-1.4783,-1.4688,-1.4688,-1.4694,-1.4885,-1.5077,-1.5356,-1.5635,-1.5737,-1.5832,-1.5832,-1.5832,-1.5832,-1.5832,-1.5658,-1.5077,-1.4963,-1.4776,-1.4188,-1.4088,-1.4088,-1.4088,-1.4088,-1.4088,-1.4088,-1.4088,-1.4088,-1.4088,-1.4088,-1.4088,-1.4088,-1.3913,-1.3652,-1.3483,-1.3652,-1.3652,-1.3483,-1.3398,-1.3222,-1.279,-1.2534,-1.21,-1.1413,-1.0463,-0.9946,-0.9689,-0.8982,-0.8456,-1.3728,0.0,-1.4088,-1.4088,-1.4088,0.0,0.0,0.0,0.0,0.0,0.0,0.0,0.0,0.0,0.0,0.0,0.0,0.0,0.0,0.0,0.0,0.0,0.0,0.0,0.0,0.0,0.0,0.0,0.0,-1.5832,-1.5832,-1.5832,-1.5832,-1.5832,-1.5832,-1.5832,-1.5832,-1.5832,-1.5832,-1.5832,-1.5832,-1.5832,-1.5832,-1.5832,-1.5832,-1.5832,-1.5832,-1.5832,-1.5832,-1.5832,-1.5832,-1.5832,-1.5832,-1.5832,-1.5832,-1.5832,-1.5832,-1.5832,-1.5832,-1.5832,-1.5737,-1.5635,-1.5255,-1.4783,-1.4292,-1.4202,-1.44,-1.4118,-1.4304,-1.4592,-1.5077,-1.5363,-1.5635,-1.573,-1.5832,-1.5832,-1.5832,-1.5832,-1.5658,-1.5077,-1.4963,-1.4776,-1.4188,-1.4088,-1.4088,-1.4088,-1.4088,-1.4088,-1.4088,-1.4088,-1.4088,-1.4088,-1.4088,-1.4088,-1.4088,-1.3997,-1.3997,-1.3913,-1.3997,-1.3997,-1.3913,-1.3737,-1.3568,-1.3476,-1.3137,-1.2705,-1.2106,-1.1585,-1.1154,-1.0895,-1.0028,-0.9423,-1.3607,-1.3861,-1.4088,-1.4088,-1.4088,-1.4088,0.0,0.0,0.0,0.0,0.0,0.0,0.0,0.0,0.0,0.0,0.0,0.0,0.0,0.0,0.0,0.0,0.0,0.0,0.0,0.0,0.0,0.0,0.0,-1.5832,-1.5832,-1.5832,-1.5832,-1.5832,-1.5832,-1.5832,-1.5832,-1.5832,-1.5832,-1.5832,-1.5832,-1.5832,-1.5832,-1.5832,-1.5832,-1.5832,-1.5832,-1.5832,-1.5832,-1.5832,-1.5832,-1.5832,-1.5832,-1.5832,-1.5832,-1.5832,-1.5832,-1.5832,-1.5832,-1.5832,-1.5737,-1.554,-1.5166,-1.4592,-1.3908,-1.3715,-1.363,-1.3727,-1.3913,-1.4298,-1.4885,-1.5267,-1.554,-1.5737,-1.5832,-1.5832,-1.5832,-1.5832,-1.5658,-1.5077,-1.4963,-1.4776,-1.4188,-1.4088,-1.4088,-1.4088,-1.4088,-1.4088,-1.4088,-1.4088,-1.4088,-1.4088,-1.4088,-1.4088,-1.4088,-1.4088,-1.4088,-1.4088,-1.4088,-1.4088,-1.4088,-1.3997,-1.3906,-1.3906,-1.3568,-1.3222,-1.2966,-1.2534,-1.2186,-1.1929,-1.1068,-1.0636,-1.3507,-1.3828,-1.4088,-1.4088,-1.4088,-1.4088,0.0,0.0,0.0,0.0,0.0,0.0,0.0,0.0,0.0,0.0,0.0,0.0,0.0,0.0,0.0,0.0,0.0,0.0,0.0,0.0,0.0,0.0,0.0,-1.5832,-1.5832,-1.5832,-1.5832,-1.5832,-1.5832,-1.5832,-1.5832,-1.5832,-1.5832,-1.5832,-1.5832,-1.5832,-1.5832,-1.5832,-1.5832,-1.5832,0.0,0.0,-1.5832,-1.5832,-1.5832,-1.5832,-1.5832,-1.5832,-1.5832,-1.5832,-1.5832,-1.5832,-1.5832,-1.5832,-1.573,-1.5547,-1.507,-1.4496,-1.3709,-1.3141,-1.2856,-1.3232,-1.3516,-1.3908,-1.479,-1.5172,-1.5445,-1.573,-1.5832,-1.5832,-1.5832,-1.5832,-1.5658,-1.5077,-1.4963,-1.4776,-1.4188,-1.4088,-1.4088,-1.4088,-1.4088,-1.4088,-1.4088,-1.4088,-1.4088,-1.4088,-1.4088,-1.4088,-1.4088,-1.4088,-1.4088,-1.4088,-1.4088,-1.4088,-1.4088,-1.4088,-1.4088,-1.4088,-1.3913,-1.3737,-1.3737,-1.3398,-1.3052,-1.2875,-1.2192,-1.1757,-1.3267,-1.3674,-1.4088,-1.4088,-1.4088,-1.4088,0.0,0.0,0.0,0.0,0.0,0.0,0.0,0.0,0.0,0.0,0.0,0.0,0.0,0.0,0.0,0.0,0.0,0.0,0.0,0.0,0.0,0.0,0.0,-1.5832,-1.5832,-1.5832,-1.5832,-1.5832,-1.5832,-1.5832,-1.5832,-1.5832,-1.5832,-1.5832,-1.5832,-1.5832,-1.5832,-1.5832,-1.5832,-1.5832,0.0,-1.5832,-1.5832,-1.5832,-1.5832,-1.5832,-1.5832,-1.5832,-1.5832,-1.5832,-1.5832,-1.5832,-1.5832,-1.5832,-1.5737,-1.5267,-1.4981,-1.4496,-1.3431,-1.2953,-1.2764,-1.2565,-1.2759,-1.3147,-1.4202,-1.4592,-1.4975,-1.5642,-1.5832,-1.5832,-1.5832,-1.5832,-1.5658,-1.5077,-1.4963,-1.4776,-1.4188,-1.4088,-1.4088,-1.4088,-1.4088,-1.4088,-1.4088,-1.4088,-1.4088,-1.4088,-1.4088,-1.4088,-1.4088,-1.4088,-1.4088,-1.4088,-1.4088,-1.4088,-1.4088,-1.4088,-1.4088,-1.4088,-1.4088,-1.4004,-1.4004,-1.3737,-1.3568,-1.3561,-1.3052,-1.2711,-1.3213,-1.3641,-1.4088,-1.4088,-1.4088,-1.4088,-1.4088,0.0,0.0,0.0,0.0,0.0,0.0,0.0,0.0,0.0,0.0,0.0,0.0,0.0,0.0,0.0,0.0,0.0,0.0,0.0,0.0,0.0,0.0,0.0,-1.5832,-1.5832,-1.5832,-1.5832,-1.5832,-1.5832,-1.5832,-1.5832,-1.5832,-1.5832,-1.5832,-1.5832,-1.5832,-1.5832,-1.5832,-1.5832,0.0,-1.5832,-1.5832,-1.5832,-1.5832,-1.5832,-1.5832,-1.5832,-1.5832,-1.5832,-1.5832,-1.5832,-1.5832,-1.5832,-1.5737,-1.5267,-1.4892,-1.4502,-1.3636,-1.3147,-1.2953,-1.2667,-1.2759,-1.3147,-1.4106,-1.4592,-1.5077,-1.5642,-1.5832,-1.5832,-1.5832,-1.5832,-1.5658,-1.5077,-1.4963,-1.4776,-1.4188,-1.4088,-1.4088,-1.4088,-1.4088,-1.4088,-1.4088,-1.4088,-1.4088,-1.4088,-1.4088,-1.4088,-1.4088,-1.4088,-1.4088,-1.4088,-1.4088,-1.4088,-1.4088,-1.4088,-1.4088,-1.4088,-1.4088,-1.4088,-1.4088,-1.3997,-1.3913,-1.3913,-1.3568,-1.3392,-1.3213,-1.3641,-1.4088,-1.4088,0.0,-1.4088,-1.4088,0.0,0.0,0.0,0.0,0.0,0.0,0.0,0.0,0.0,0.0,0.0,0.0,0.0,0.0,0.0,0.0,0.0,0.0,0.0,0.0,0.0,0.0,0.0,-1.5832,-1.5832,-1.5832,-1.5832,-1.5832,-1.5832,-1.5832,-1.5832,-1.5832,-1.5832,-1.5832,-1.5832,-1.5832,-1.5832,-1.5832,-1.5832,-1.5832,-1.5832,-1.5832,-1.5832,-1.5832,-1.5832,-1.5832,-1.5832,-1.5832,-1.5832,-1.5832,-1.5832,-1.5832,-1.5832,-1.5737,-1.5363,-1.5077,-1.4783,-1.4022,-1.363,-1.3437,-1.3244,-1.334,-1.363,-1.4202,-1.4688,-1.5172,-1.5642,-1.5832,-1.5832,-1.5832,-1.5832,-1.5658,-1.5077,-1.4963,-1.4776,-1.4188,-1.4088,-1.4088,-1.4088,-1.4088,-1.4088,-1.4088,-1.4088,-1.4088,-1.4088,-1.4088,-1.4088,-1.4088,-1.4088,-1.4088,-1.4088,-1.4088,-1.4088,-1.4088,-1.4088,-1.4088,-1.4088,-1.4088,-1.4088,-1.4088,-1.4088,-1.4088,-1.4088,-1.3913,-1.3822,-1.3213,-1.3641,-1.4088,-1.4088,0.0,0.0,-1.4088,0.0,0.0,0.0,0.0,0.0,0.0,0.0,0.0,0.0,0.0,0.0,0.0,0.0,0.0,0.0,0.0,0.0,0.0,0.0,0.0,0.0,0.0,0.0,-1.5832,-1.5832,-1.5832,-1.5832,-1.5832,-1.5832,-1.5832,-1.5832,-1.5832,-1.5832,-1.5832,-1.5832,-1.5832,-1.5832,-1.5832,-1.5832,-1.5832,-1.5832,-1.5832,-1.5832,-1.5832,-1.5832,-1.5832,-1.5832,-1.5832,-1.5832,-1.5832,-1.5832,-1.5832,-1.5832,-1.573,-1.554,-1.5445,-1.535,-1.4783,-1.4592,-1.4496,-1.4298,-1.44,-1.4496,-1.4394,-1.4496,-1.4879,-1.5635,-1.5832,-1.5832,-1.5832,-1.5832,-1.5658,-1.5077,-1.4963,-1.4776,-1.4188,-1.4088,-1.4088,-1.4088,-1.4088,-1.4088,-1.4088,-1.4088,-1.4088,-1.4088,-1.4088,-1.4088,-1.4088,-1.4088,-1.4088,-1.4088,-1.4088,-1.4088,-1.4088,-1.4088,-1.4088,-1.4088,-1.4088,-1.4088,-1.4088,-1.4088,-1.4088,-1.4088,-1.4088,-1.4088,-1.3213,-1.3641,-1.4088,-1.4088,0.0,0.0,0.0,0.0,0.0,0.0,0.0,0.0,0.0,0.0,0.0,0.0,0.0,0.0,0.0,0.0,0.0,0.0,0.0,0.0,0.0,0.0,0.0,0.0,0.0,0.0,-1.5818,-1.5832,-1.5832,-1.5832,-1.5832,-1.5832,-1.5832,-1.5832,-1.5832,-1.5832,-1.5832,-1.5832,-1.5832,-1.5832,-1.5832,-1.5832,-1.5832,-1.5832,-1.5832,-1.5832,-1.5832,-1.5832,-1.5832,-1.5832,-1.5832,-1.5832,-1.5832,-1.5832,-1.5832,-1.5832,-1.5737,-1.554,-1.554,-1.5445,-1.5077,-1.4987,-1.4885,-1.479,-1.4885,-1.4885,-1.479,-1.4975,-1.5261,-1.573,-1.5832,-1.5832,-1.5832,-1.5832,-1.5658,-1.5077,-1.4963,-1.4776,-1.4188,-1.4088,-1.4088,-1.4088,-1.4088,-1.4088,-1.4088,-1.4088,-1.4088,-1.4088,-1.4088,-1.4088,-1.4088,-1.4088,-1.4088,-1.4088,-1.4088,-1.4088,-1.4088,-1.4088,-1.4088,-1.4088,-1.4088,-1.4088,-1.4088,-1.4088,-1.4088,-1.4088,-1.4088,-1.4088,-1.3213,-1.3641,-1.4088,0.0,0.0,0.0,0.0,0.0,0.0,0.0,0.0,0.0,0.0,0.0,0.0,0.0,0.0,0.0,0.0,0.0,0.0,0.0,0.0,0.0,0.0,0.0,0.0,0.0,0.0,0.0,0.0,-1.5778,-1.5832,-1.5832,-1.5832,-1.5832,-1.5832,-1.5832,-1.5832,-1.5832,-1.5832,-1.5832,-1.5832,-1.5832,-1.5832,-1.5832,-1.5832,-1.5832,-1.5832,-1.5832,-1.5832,-1.5832,-1.5832,-1.5832,-1.5832,-1.5832,-1.5832,-1.5832,-1.5832,-1.5832,-1.5737,-1.5635,-1.5635,-1.5547,-1.5363,-1.5363,-1.5363,-1.5363,-1.5363,-1.5363,-1.5363,-1.5452,-1.554,-1.5737,-1.5832,-1.5832,-1.5832,-1.5758,-1.5545,-1.5057,-1.4883,-1.4669,-1.4168,-1.4088,-1.4088,-1.4088,-1.4088,-1.4088,-1.4088,-1.4088,-1.4088,-1.4088,-1.4088,-1.4088,-1.4088,-1.4088,-1.4088,-1.4088,-1.4088,-1.4088,-1.4088,-1.4088,-1.4088,-1.4088,-1.4088,-1.4088,-1.4088,-1.4088,-1.4088,-1.4088,-1.4088,-1.4088,-1.3213,-1.3641,0.0,0.0,0.0,0.0,0.0,0.0,0.0,0.0,0.0,0.0,0.0,0.0,0.0,0.0,0.0,0.0,0.0,0.0,0.0,0.0,0.0,0.0,0.0,0.0,0.0,0.0,0.0,0.0,0.0,-1.5665,-1.5825,-1.5825,-1.5832,-1.5832,-1.5832,-1.5832,-1.5832,-1.5832,-1.5832,-1.5832,-1.5832,-1.5832,-1.5832,-1.5832,-1.5832,-1.5832,-1.5832,-1.5832,-1.5832,-1.5832,-1.5832,-1.5832,-1.5832,-1.5832,-1.5832,-1.5832,-1.5832,-1.5832,-1.5832,-1.5832,-1.5832,-1.5832,-1.5832,-1.5832,-1.5832,-1.5832,-1.5832,-1.5832,-1.5832,-1.5635,-1.554,-1.5737,-1.5832,-1.5832,-1.5832,-1.5605,-1.5311,-1.5023,-1.4723,-1.4429,-1.4135,-1.4088,-1.4088,-1.4088,-1.4088,-1.4088,-1.4088,-1.4088,-1.4088,-1.4088,-1.4088,-1.4088,-1.4088,-1.4088,-1.4088,-1.4088,-1.4088,-1.4088,-1.4088,-1.4088,-1.4088,-1.4088,-1.4088,-1.4088,-1.4088,-1.4088,-1.4088,-1.4088,-1.4088,-1.4088,-1.3213,-1.3641,0.0,0.0,0.0,0.0,0.0,0.0,0.0,0.0,0.0,0.0,0.0,0.0,0.0,0.0,0.0,0.0,0.0,0.0,0.0,0.0,0.0,0.0,0.0,0.0,0.0,0.0,0.0,0.0,-1.5084,-1.5364,-1.5524,-1.5524,-1.5718,-1.5832,-1.5832,-1.5832,-1.5832,-1.5832,-1.5832,-1.5832,-1.5832,-1.5832,-1.5832,-1.5832,-1.5832,-1.5832,-1.5832,-1.5832,-1.5832,-1.5832,-1.5832,-1.5832,-1.5832,-1.5832,-1.5832,-1.5832,-1.5832,-1.5832,-1.5832,-1.5832,-1.5832,-1.5832,-1.5832,-1.5832,-1.5832,-1.5832,-1.5832,-1.5832,-1.5832,-1.573,-1.573,-1.5825,-1.5832,-1.5832,-1.5832,-1.5605,-1.5311,-1.5023,-1.4723,-1.4429,-1.4135,-1.4088,-1.4088,-1.4088,-1.4088,-1.4088,-1.4088,-1.4088,-1.4088,-1.4088,-1.4088,-1.4088,-1.4088,-1.4088,-1.4088,-1.4088,-1.4088,-1.4088,-1.4088,-1.4088,-1.4088,-1.4088,-1.4088,-1.4088,-1.4088,-1.4088,-1.4088,-1.4088,-1.4088,-1.4088,-1.3353,0.0,0.0,0.0,0.0,0.0,0.0,0.0,0.0,0.0,0.0,0.0,0.0,0.0,0.0,0.0,0.0,0.0,0.0,0.0,0.0,0.0,0.0,0.0,0.0,0.0,0.0,0.0,0.0,-1.4596,-1.4776,-1.5064,-1.5277,-1.5391,-1.5565,-1.5712,-1.5832,-1.5832,-1.5832,-1.5832,-1.5832,-1.5832,-1.5832,-1.5832,-1.5832,-1.5832,-1.5832,-1.5832,-1.5832,-1.5832,-1.5832,-1.5832,-1.5832,-1.5832,-1.5832,-1.5832,-1.5832,-1.5832,-1.5832,-1.5832,-1.5832,-1.5832,-1.5832,-1.5832,-1.5832,-1.5832,-1.5832,-1.5832,-1.5832,-1.5832,-1.5832,-1.5832,-1.5832,-1.5832,-1.5832,-1.5798,-1.5678,-1.5431,-1.5137,-1.4843,-1.4549,-1.4295,-1.4115,-1.4088,-1.4088,-1.4088,-1.4088,-1.4088,-1.4088,-1.4088,-1.4088,-1.4088,-1.4088,-1.4088,-1.4088,-1.4088,-1.4088,-1.4088,-1.4088,-1.4088,-1.4088,-1.4088,-1.4088,-1.4088,-1.4088,-1.4088,-1.4088,-1.4088,-1.4088,-1.4088,-1.4088,-1.4088,0.0,0.0,0.0,0.0,0.0,0.0,0.0,0.0,0.0,0.0,0.0,0.0,0.0,0.0,0.0,0.0,0.0,0.0,0.0,0.0,0.0,0.0,0.0,0.0,0.0,0.0,0.0,0.0,-1.4335,-1.4482,-1.4482,-1.4763,-1.5044,-1.5311,-1.5344,-1.5498,-1.5785,-1.5792,-1.5805,-1.5832,-1.5832,-1.5832,-1.5832,-1.5832,-1.5832,-1.5832,-1.5832,-1.5832,-1.5832,-1.5832,-1.5832,-1.5832,-1.5832,-1.5832,-1.5832,-1.5832,-1.5832,-1.5832,-1.5832,-1.5832,-1.5832,-1.5832,-1.5832,-1.5832,-1.5832,-1.5832,-1.5832,-1.5832,-1.5832,-1.5818,-1.5798,-1.5792,-1.5785,-1.5758,-1.5772,-1.5718,-1.5451,-1.515,-1.4843,-1.4569,-1.4282,-1.4088,-1.4088,-1.4088,-1.4088,-1.4088,-1.4088,-1.4088,-1.4088,-1.4088,-1.4088,-1.4088,-1.4088,-1.4088,-1.4088,-1.4088,-1.4088,-1.4088,-1.4088,-1.4088,-1.4088,-1.4088,-1.4088,-1.4088,-1.4088,-1.4088,-1.4088,-1.4088,-1.4088,-1.4088,-1.4088,-1.4088,0.0,0.0,0.0,0.0,0.0,0.0,0.0,0.0,0.0,0.0,0.0,0.0,0.0,0.0,0.0,0.0,0.0,0.0,0.0,0.0,0.0,0.0,0.0,0.0,0.0,0.0,0.0,-1.4088,-1.4142,-1.4182,-1.4182,-1.4456,-1.4643,-1.4703,-1.4937,-1.5197,-1.5484,-1.5491,-1.5605,-1.5832,-1.5832,-1.5832,-1.5832,-1.5832,-1.5832,-1.5832,-1.5832,-1.5832,-1.5832,-1.5832,-1.5832,-1.5832,-1.5832,-1.5832,-1.5832,-1.5832,-1.5832,-1.5832,-1.5832,-1.5832,-1.5832,-1.5832,-1.5832,-1.5832,-1.5832,-1.5832,-1.5832,-1.5832,-1.5832,-1.5772,-1.5545,-1.5491,-1.5431,-1.5204,-1.5324,-1.5471,-1.5411,-1.4983,-1.4596,-1.4529,-1.4282,-1.4088,-1.4088,-1.4088,-1.4088,-1.4088,-1.4088,-1.4088,-1.4088,-1.4088,-1.4088,-1.4088,-1.4088,-1.4088,-1.4088,-1.4088,-1.4088,-1.4088,-1.4088,-1.4088,-1.4088,-1.4088,-1.4088,-1.4088,-1.4088,-1.4088,-1.4088,-1.4088,-1.4088,-1.4088,-1.4088,-1.4088,0.0,0.0,0.0,0.0,0.0,0.0,0.0,0.0,0.0,0.0,0.0,0.0,0.0,0.0,0.0,0.0,0.0,0.0,0.0,0.0,0.0,0.0,0.0,0.0,0.0,0.0,0.0,-1.4088,-1.4088,-1.4088,-1.4088,-1.4229,-1.4376,-1.4516,-1.4669,-1.489,-1.519,-1.519,-1.5264,-1.5418,-1.5558,-1.5698,-1.5832,-1.5832,-1.5832,-1.5832,-1.5832,-1.5832,-1.5832,-1.5832,-1.5832,-1.5832,-1.5832,-1.5832,-1.5832,-1.5832,-1.5832,-1.5832,-1.5832,-1.5832,-1.5832,-1.5832,-1.5832,-1.5832,-1.5832,-1.5732,-1.5625,-1.5625,-1.5524,-1.5378,-1.5224,-1.519,-1.515,-1.4997,-1.5077,-1.515,-1.5003,-1.4736,-1.4482,-1.4342,-1.4195,-1.4088,-1.4088,-1.4088,-1.4088,-1.4088,-1.4088,-1.4088,-1.4088,-1.4088,-1.4088,-1.4088,-1.4088,-1.4088,-1.4088,-1.4088,-1.4088,-1.4088,-1.4088,-1.4088,-1.4088,-1.4088,-1.4088,-1.4088,-1.4088,-1.4088,-1.4088,-1.4088,-1.4088,-1.4088,-1.4088,-1.4088,0.0,0.0,0.0,0.0,0.0,0.0,0.0,0.0,0.0,0.0,0.0,0.0,0.0,0.0,0.0,0.0,0.0,0.0,0.0,0.0,0.0,0.0,0.0,0.0,0.0,0.0,-1.4088,-1.4088,-1.4088,-1.4088,-1.4088,-1.4088,-1.4202,-1.4436,-1.4442,-1.4589,-1.4883,-1.4883,-1.491,-1.497,-1.5204,-1.5444,-1.5678,-1.5678,-1.5732,-1.5832,-1.5832,-1.5832,-1.5832,-1.5832,-1.5832,-1.5832,-1.5832,-1.5832,-1.5832,-1.5832,-1.5832,-1.5832,-1.5832,-1.5798,-1.5752,-1.5752,-1.5718,-1.5678,-1.5678,-1.5511,-1.5317,-1.5317,-1.515,-1.495,-1.4903,-1.4883,-1.4877,-1.4823,-1.4816,-1.4756,-1.4563,-1.4482,-1.4376,-1.4135,-1.4088,-1.4088,-1.4088,-1.4088,-1.4088,-1.4088,-1.4088,-1.4088,-1.4088,-1.4088,-1.4088,-1.4088,-1.4088,-1.4088,-1.4088,-1.4088,-1.4088,-1.4088,-1.4088,-1.4088,-1.4088,-1.4088,-1.4088,-1.4088,-1.4088,-1.4088,-1.4088,-1.4088,-1.4088,-1.4088,-1.4088,-1.4088,0.0,0.0,0.0,0.0,0.0,0.0,0.0,0.0,0.0,0.0,0.0,0.0,0.0,0.0,0.0,0.0,0.0,0.0,0.0,0.0,0.0,0.0,0.0,0.0,0.0,0.0,-1.4088,-1.4088,-1.4088,-1.4088,-1.4088,-1.4088,-1.4108,-1.4142,-1.4142,-1.4289,-1.4576,-1.4583,-1.471,-1.4963,-1.5003,-1.5044,-1.5077,-1.5077,-1.5351,-1.5832,-1.5832,-1.5832,-1.5832,-1.5832,-1.5832,-1.5832,-1.5832,-1.5832,-1.5832,-1.5832,-1.5832,-1.5832,-1.5832,-1.5665,-1.5451,-1.5451,-1.5284,-1.5077,-1.5077,-1.5057,-1.5023,-1.5023,-1.499,-1.4903,-1.4643,-1.4583,-1.4516,-1.4269,-1.4202,-1.4262,-1.4476,-1.4322,-1.4135,-1.4095,-1.4088,-1.4088,-1.4088,-1.4088,-1.4088,-1.4088,-1.4088,-1.4088,-1.4088,-1.4088,-1.4088,-1.4088,-1.4088,-1.4088,-1.4088,-1.4088,-1.4088,-1.4088,-1.4088,-1.4088,-1.4088,-1.4088,-1.4088,-1.4088,-1.4088,-1.4088,-1.4088,-1.4088,-1.4088,-1.4088,-1.4088,-1.4088,0.0,0.0,0.0,0.0,0.0,0.0,0.0,0.0,0.0,0.0,0.0,0.0,0.0,0.0,0.0,0.0,0.0,0.0,0.0,0.0,0.0,0.0,0.0,0.0,0.0,0.0,-1.4088,-1.4088,-1.4088,-1.4088,-1.4088,-1.4088,-1.4088,-1.4088,-1.4088,-1.4148,-1.4275,-1.4282,-1.4422,-1.4716,-1.4716,-1.4803,-1.4963,-1.4963,-1.5104,-1.5344,-1.5344,-1.5344,-1.5344,-1.5344,-1.5344,-1.5344,-1.5344,-1.5344,-1.5344,-1.5344,-1.5344,-1.5344,-1.5344,-1.5257,-1.5157,-1.5157,-1.507,-1.4963,-1.4963,-1.485,-1.4716,-1.4716,-1.4596,-1.4442,-1.4309,-1.4282,-1.4249,-1.4115,-1.4088,-1.4122,-1.4249,-1.4175,-1.4088,-1.4088,-1.4088,-1.4088,-1.4088,-1.4088,-1.4088,-1.4088,-1.4088,-1.4088,-1.4088,-1.4088,-1.4088,-1.4088,-1.4088,-1.4088,-1.4088,-1.4088,-1.4088,-1.4088,-1.4088,-1.4088,-1.4088,-1.4088,-1.4088,-1.4088,-1.4088,-1.4088,-1.4088,-1.4088,-1.4088,-1.4088,-1.4088,-1.4088,0.0,0.0,0.0,0.0,0.0,0.0,0.0,0.0,0.0,0.0,0.0,0.0,0.0,0.0,0.0,0.0,0.0,0.0,0.0,0.0,0.0,0.0,0.0,0.0,0.0,0.0,-1.4088,-1.4088,-1.4088,-1.4088,-1.4088,-1.4088,-1.4088,-1.4088,-1.4088,-1.4088,-1.4088,-1.4088,-1.4195,-1.4409,-1.4409,-1.4529,-1.4743,-1.4743,-1.4743,-1.475,-1.4897,-1.4963,-1.4963,-1.4963,-1.4963,-1.4963,-1.4963,-1.4963,-1.4963,-1.4963,-1.4963,-1.4963,-1.4963,-1.4917,-1.485,-1.485,-1.4803,-1.4743,-1.4743,-1.4589,-1.4409,-1.4409,-1.4255,-1.4088,-1.4088,-1.4088,-1.4088,-1.4088,-1.4088,-1.4088,-1.4088,-1.4088,-1.4088,-1.4088,-1.4088,-1.4088,-1.4088,-1.4088,-1.4088,-1.4088,-1.4088,-1.4088,-1.4088,-1.4155,-1.4195,-1.4195,-1.4269,-1.4309,-1.4309,-1.4242,-1.4195,-1.4195,-1.4128,-1.4088,-1.4088,-1.4088,-1.4088,-1.4088,-1.4088,-1.4088,-1.4088,-1.4088,-1.4088,-1.4088,-1.4088,-1.4088,0.0,0.0,0.0,0.0,0.0,0.0,0.0,0.0,0.0,0.0,0.0,0.0,0.0,0.0,0.0,0.0,0.0,0.0,0.0,0.0,0.0,0.0,0.0,0.0,0.0,0.0,-1.4088,-1.4088,-1.4088,-1.4088,-1.4088,-1.4088,-1.4088,-1.4088,-1.4088,-1.4088,-1.4088,-1.4088,-1.4095,-1.4108,-1.4108,-1.4115,-1.4135,-1.4135,-1.4135,-1.4162,-1.4723,-1.4963,-1.4963,-1.4963,-1.4963,-1.4963,-1.4963,-1.4963,-1.4963,-1.4963,-1.4963,-1.4963,-1.4963,-1.4776,-1.4543,-1.4543,-1.4355,-1.4135,-1.4135,-1.4122,-1.4108,-1.4108,-1.4095,-1.4088,-1.4088,-1.4088,-1.4088,-1.4088,-1.4088,-1.4088,-1.4088,-1.4088,-1.4088,-1.4088,-1.4088,-1.4088,-1.4088,-1.4088,-1.4088,-1.4088,-1.4088,-1.4088,-1.4088,-1.4329,-1.4496,-1.4496,-1.475,-1.4917,-1.4917,-1.4663,-1.4496,-1.4496,-1.4242,-1.4088,-1.4088,-1.4088,-1.4088,-1.4088,-1.4088,-1.4088,-1.4088,-1.4088,-1.4088,-1.4088,-1.4088,-1.4088,0.0,0.0,0.0,0.0,0.0,0.0,0.0,0.0,0.0,0.0,0.0,0.0,0.0,0.0,0.0,0.0,0.0,0.0,0.0,0.0,0.0,0.0,0.0,0.0,0.0,0.0,0.0,-1.4088,-1.4088,-1.4088,-1.4088,-1.4088,-1.4088,-1.4088,-1.4088,-1.4088,-1.4088,-1.4088,-1.4088,-1.4088,-1.4088,-1.4088,-1.4088,-1.4088,-1.4088,-1.4095,-1.4309,-1.4402,-1.4402,-1.4402,-1.4402,-1.4402,-1.4402,-1.4402,-1.4402,-1.4402,-1.4402,-1.4402,-1.4402,-1.4329,-1.4242,-1.4242,-1.4168,-1.4088,-1.4088,-1.4088,-1.4088,-1.4088,-1.4088,-1.4088,-1.4088,-1.4088,-1.4088,-1.4088,-1.4088,-1.4088,-1.4088,-1.4088,-1.4088,-1.4088,-1.4088,-1.4088,-1.4088,-1.4088,-1.4088,-1.4088,-1.4088,-1.4088,-1.4088,-1.4342,-1.4522,-1.4522,-1.4783,-1.4963,-1.4963,-1.487,-1.4803,-1.4803,-1.4529,-1.4362,-1.4362,-1.4182,-1.4088,-1.4088,-1.4088,-1.4088,-1.4088,-1.4088,-1.4088,-1.4088,-1.4088,-1.4088,0.0,0.0,0.0,0.0,0.0,0.0,0.0,0.0,0.0,0.0,0.0,0.0,0.0,0.0,0.0,0.0,0.0,0.0,0.0,0.0,0.0,0.0,0.0,0.0,0.0,0.0,0.0,-1.4088,-1.4088,0.0,-1.4088,-1.4088,-1.4088,-1.4088,-1.4088,-1.4088,-1.4088,-1.4088,-1.4088,-1.4088,-1.4088,-1.4088,-1.4088,-1.4088,-1.4088,-1.4088,-1.4088,-1.4088,-1.4088,-1.4088,-1.4088,-1.4088,-1.4088,-1.4088,-1.4088,-1.4088,-1.4088,-1.4088,-1.4088,-1.4088,-1.4088,-1.4088,-1.4088,-1.4088,-1.4088,-1.4088,-1.4088,-1.4088,-1.4088,-1.4088,-1.4088,-1.4088,-1.4088,-1.4088,-1.4088,-1.4088,-1.4088,-1.4088,-1.4088,-1.4088,-1.4088,-1.4088,-1.4088,-1.4088,-1.4088,-1.4088,-1.4088,-1.4088,-1.4088,-1.4342,-1.4556,-1.4656,-1.493,-1.515,-1.5244,-1.5164,-1.511,-1.511,-1.483,-1.4623,-1.4522,-1.4335,-1.4188,-1.4088,-1.4088,-1.4088,-1.4088,-1.4088,-1.4088,-1.4088,-1.4088,-1.4088,0.0,0.0,0.0,0.0,0.0,0.0,0.0,0.0,0.0,0.0,0.0,0.0,0.0,0.0,0.0,0.0,0.0,0.0,0.0,0.0,0.0,0.0,0.0,0.0,0.0,0.0,-1.4088,-1.4088,-1.4088,-1.4088,-1.4088,-1.4088,-1.4088,-1.4088,-1.4088,-1.4088,-1.4088,-1.4088,-1.4088,-1.4088,-1.4088,-1.4088,-1.4088,-1.4088,-1.4088,-1.4088,-1.4088,-1.4088,-1.4088,-1.4088,-1.4088,-1.4088,-1.4088,-1.4088,-1.4088,-1.4088,-1.4088,-1.4088,-1.4088,-1.4088,-1.4088,-1.4088,-1.4088,-1.4088,-1.4088,-1.4088,-1.4088,-1.4088,-1.4088,-1.4088,-1.4088,-1.4088,-1.4088,-1.4088,-1.4088,-1.4088,-1.4088,-1.4088,-1.4088,-1.4088,-1.4088,-1.4088,-1.4088,-1.4088,-1.4088,-1.4088,-1.4088,-1.4088,-1.4088,-1.4342,-1.4629,-1.4917,-1.5217,-1.5511,-1.5792,-1.5565,-1.5411,-1.5411,-1.5137,-1.485,-1.4556,-1.4529,-1.4389,-1.4108,-1.4088,-1.4088,-1.4088,-1.4088,-1.4088,-1.4088,-1.4088,-1.4088,-1.4088,0.0,0.0,0.0,0.0,0.0,0.0,0.0,0.0,0.0,0.0,0.0,0.0,0.0,0.0,0.0,0.0,0.0,0.0,0.0,0.0,0.0,0.0,0.0,0.0,0.0,-1.4088,0.0,-1.4088,-1.4088,-1.4088,-1.4088,-1.4088,-1.4088,-1.4088,-1.4088,-1.4088,-1.4088,-1.4088,-1.4088,-1.4088,-1.4088,-1.4088,-1.4088,-1.4088,-1.4088,-1.4088,-1.4088,-1.4088,-1.4088,-1.4088,-1.4088,-1.4088,-1.4088,-1.4088,-1.4088,-1.4088,-1.4088,-1.4088,-1.4088,-1.4088,-1.4088,-1.4088,-1.4088,-1.4088,-1.4088,-1.4088,-1.4088,-1.4088,-1.4088,-1.4088,-1.4088,-1.4088,-1.4088,-1.4088,-1.4088,-1.4088,-1.4088,-1.4088,-1.4088,-1.4088,-1.4088,-1.4088,-1.4088,-1.4088,-1.4088,-1.4088,-1.4088,-1.4088,-1.4342,-1.4556,-1.4636,-1.5097,-1.5431,-1.5504,-1.5631,-1.5712,-1.5712,-1.5438,-1.5244,-1.5157,-1.4743,-1.4482,-1.4402,-1.4195,-1.4088,-1.4088,-1.4088,-1.4088,-1.4088,-1.4088,-1.4088,0.0,0.0,0.0,0.0,0.0,0.0,-1.4088,-1.4088,-1.4088,0.0,0.0,0.0,0.0,0.0,0.0,0.0,0.0,0.0,0.0,0.0,0.0,0.0,0.0,0.0,0.0,-1.4088,-1.4088,-1.4088,-1.4088,-1.4088,-1.4088,-1.4088,-1.4088,-1.4088,-1.4088,-1.4088,-1.4088,-1.4088,-1.4088,-1.4088,-1.4088,-1.4088,-1.4088,-1.4088,-1.4088,-1.4088,-1.4088,-1.4088,-1.4088,-1.4088,-1.4088,-1.4088,-1.4088,-1.4088,-1.4088,-1.4088,-1.4088,-1.4088,-1.4088,-1.4088,-1.4088,-1.4088,-1.4088,-1.4088,-1.4088,-1.4088,-1.4088,-1.4088,-1.4088,-1.4088,-1.4088,-1.4088,-1.4088,-1.4088,-1.4088,-1.4088,-1.4088,-1.4088,-1.4088,-1.4088,-1.4088,-1.4088,-1.4088,-1.4088,-1.4088,-1.4088,-1.4088,-1.4088,-1.4088,-1.4235,-1.4389,-1.4502,-1.4823,-1.513,-1.5378,-1.5551,-1.5698,-1.5818,-1.5671,-1.5524,-1.5398,-1.507,-1.483,-1.471,-1.4416,-1.4208,-1.4088,-1.4088,-1.4088,-1.4088,-1.4088,-1.4088,0.0,0.0,0.0,0.0,0.0,0.0,-1.4088,-1.4088,-1.4088,-1.4088,0.0,0.0,0.0,0.0,0.0,0.0,0.0,0.0,0.0,0.0,0.0,0.0,0.0,0.0,-1.4088,-1.4088,-1.4088,-1.4088,-1.4088,-1.4088,-1.4088,-1.4088,-1.4088,-1.4088,-1.4088,-1.4088,-1.4088,-1.4088,-1.4088,-1.4088,-1.4088,-1.4088,-1.4088,-1.4088,-1.4088,-1.4088,-1.4088,-1.4088,-1.4088,-1.4088,-1.4088,-1.4088,-1.4088,-1.4088,-1.4088,-1.4088,-1.4088,-1.4088,-1.4088,-1.4088,-1.4088,-1.4088,-1.4088,-1.4088,-1.4088,-1.4088,-1.4088,-1.4088,-1.4088,-1.4088,-1.4088,-1.4088,-1.4088,-1.4088,-1.4088,-1.4088,-1.4088,-1.4088,-1.4088,-1.4088,-1.4088,-1.4088,-1.4088,-1.4088,-1.4088,-1.4088,-1.4088,-1.4088,-1.4088,-1.4088,-1.4182,-1.4442,-1.4502,-1.473,-1.5251,-1.5357,-1.5504,-1.5765,-1.5812,-1.5712,-1.5451,-1.5418,-1.5277,-1.5017,-1.4689,-1.4396,-1.4135,-1.4102,-1.4088,-1.4088,-1.4088,-1.4088,0.0,0.0,0.0,0.0,0.0,0.0,-1.4088,-1.4088,-1.4088,0.0,0.0,0.0,0.0,0.0,0.0,0.0,0.0,0.0,0.0,0.0,0.0,0.0,0.0,0.0,-1.4088,-1.4088,-1.4088,-1.4088,-1.4088,-1.4088,-1.4088,-1.4088,-1.4088,-1.4088,-1.4088,-1.4088,-1.4088,-1.4088,-1.4088,-1.4088,-1.4088,-1.4088,-1.4088,-1.4088,-1.4088,-1.4088,-1.4088,-1.4088,-1.4088,-1.4088,-1.4088,-1.4088,-1.4088,-1.4088,-1.4088,-1.4088,-1.4088,-1.4088,-1.4088,-1.4088,-1.4088,-1.4088,-1.4088,-1.4088,-1.4088,-1.4088,-1.4088,-1.4088,-1.4088,-1.4088,-1.4088,-1.4088,-1.4088,-1.4088,-1.4088,-1.4088,-1.4088,-1.4088,-1.4088,-1.4088,-1.4088,-1.4088,-1.4088,-1.4088,-1.4088,-1.4088,-1.4088,-1.4088,-1.4088,-1.4088,-1.4108,-1.4168,-1.4382,-1.4569,-1.4683,-1.5124,-1.5424,-1.5478,-1.5698,-1.5805,-1.5745,-1.5518,-1.5371,-1.5311,-1.479,-1.4489,-1.4436,-1.4202,-1.4088,-1.4088,-1.4088,-1.4088,0.0,0.0,0.0,-1.4166,0.0,0.0,0.0,-1.4088,-1.4088,-1.4088,0.0,0.0,0.0,0.0,0.0,0.0,0.0,0.0,0.0,0.0,0.0,0.0,0.0,0.0,-1.4088,-1.4088,-1.4088,-1.4088,-1.4088,-1.4088,-1.4088,-1.4088,-1.4088,-1.4088,-1.4088,-1.4088,-1.4088,-1.4088,-1.4088,-1.4088,-1.4088,-1.4088,-1.4088,-1.4088,-1.4088,-1.4088,-1.4088,-1.4088,-1.4088,-1.4088,-1.4088,-1.4088,-1.4088,-1.4088,-1.4088,-1.4088,-1.4088,-1.4088,-1.4088,-1.4088,-1.4088,-1.4088,-1.4088,-1.4088,-1.4088,-1.4088,-1.4088,-1.4088,-1.4088,-1.4088,-1.4088,-1.4088,-1.4088,-1.4088,-1.4088,-1.4088,-1.4088,-1.4088,-1.4088,-1.4088,-1.4088,-1.4088,-1.4088,-1.4088,-1.4088,-1.4088,-1.4088,-1.4088,-1.4088,-1.4088,-1.4088,-1.4088,-1.4215,-1.4362,-1.4509,-1.479,-1.5084,-1.5378,-1.5531,-1.5678,-1.5818,-1.5691,-1.5545,-1.5398,-1.511,-1.481,-1.4522,-1.4289,-1.4051,-1.3913,-1.3659,-1.3568,0.0,0.0,0.0,0.0,0.0,-1.4166,0.0,0.0,0.0,0.0,0.0,0.0,0.0,0.0,0.0,0.0,0.0,0.0,0.0,0.0,0.0,0.0,0.0,0.0,-1.4088,-1.4088,-1.4088,-1.4088,-1.4088,-1.4088,-1.4088,-1.4088,-1.4088,-1.4088,-1.4088,-1.4088,-1.4088,-1.4088,-1.4088,-1.4088,-1.4088,-1.4088,-1.4088,-1.4088,-1.4088,-1.4088,-1.4088,-1.4088,-1.4088,-1.4088,-1.4088,-1.4088,-1.4088,-1.4088,-1.4088,-1.4088,-1.4088,-1.4088,-1.4088,-1.4088,-1.4088,-1.4088,-1.4088,-1.4088,-1.4088,-1.4088,-1.4088,-1.4088,-1.4088,-1.4088,-1.4088,-1.4088,-1.4088,-1.4088,-1.4088,-1.4088,-1.4088,-1.4088,-1.4088,-1.4088,-1.4088,-1.4088,-1.4088,-1.4088,-1.4088,-1.4088,-1.4088,-1.4088,-1.4088,-1.4088,-1.4088,-1.4088,-1.4088,-1.4182,-1.4416,-1.4489,-1.475,-1.5284,-1.5364,-1.5524,-1.5818,-1.5832,-1.5718,-1.5484,-1.5424,-1.5137,-1.4515,-1.4193,-1.3931,-1.3652,-1.3222,-1.2966,0.0,0.0,0.0,0.0,-1.4657,0.0,0.0,0.0,-1.4088,-1.4088,0.0,0.0,0.0,0.0,0.0,0.0,0.0,0.0,0.0,0.0,0.0,0.0,0.0,0.0,0.0,-1.4088,-1.4088,-1.4088,-1.4088,-1.4088,-1.4088,-1.4088,-1.4088,-1.4088,-1.4088,-1.4088,-1.4088,-1.4088,-1.4088,-1.4088,-1.4088,-1.4088,-1.4088,-1.4088,-1.4088,-1.4088,-1.4088,-1.4088,-1.4088,-1.4088,-1.4088,-1.4088,-1.4088,-1.4088,-1.4088,-1.4088,-1.4088,-1.4088,-1.4088,-1.4088,-1.4088,-1.4088,-1.4088,-1.4088,-1.4088,-1.4088,-1.4088,-1.4088,-1.4088,-1.4088,-1.4088,-1.4088,-1.4088,-1.4088,-1.4088,-1.4088,-1.4088,-1.4088,-1.4088,-1.4088,-1.4088,-1.4088,-1.4088,-1.4088,-1.4088,-1.4088,-1.4088,-1.4088,-1.4088,-1.4088,-1.4088,-1.4088,-1.4088,-1.4102,-1.4135,-1.4369,-1.4663,-1.499,-1.5257,-1.5524,-1.5818,-1.5832,-1.5812,-1.5785,-1.5524,-1.5139,-1.4635,-1.3932,-1.3492,-1.3392,-1.2966,-1.2619,0.0,0.0,0.0,0.0,0.0,0.0,-1.4398,0.0,-1.4088,0.0,0.0,0.0,0.0,0.0,0.0,0.0,-1.4088,0.0,0.0,0.0,0.0,0.0,0.0,0.0,-1.4088,0.0,-1.4088,-1.4088,-1.4088,-1.4088,-1.4088,-1.4088,-1.4088,-1.4088,-1.4088,-1.4088,-1.4088,-1.4088,-1.4088,-1.4088,-1.4088,-1.4088,-1.4088,-1.4088,-1.4088,-1.4088,-1.4088,-1.4088,-1.4088,-1.4088,-1.4088,-1.4088,-1.4088,-1.4088,-1.4088,-1.4088,-1.4088,-1.4088,-1.4088,-1.4088,-1.4088,-1.4088,-1.4088,-1.4088,-1.4088,-1.4088,-1.4088,-1.4088,-1.4088,-1.4088,-1.4088,-1.4088,-1.4088,-1.4088,-1.4088,-1.4088,-1.4088,-1.4088,-1.4088,-1.4088,-1.4088,-1.4088,-1.4088,-1.4088,-1.4088,-1.4088,-1.4088,-1.4088,-1.4088,-1.4088,-1.4088,-1.4088,-1.4088,-1.4088,-1.4088,-1.4202,-1.4469,-1.4937,-1.5391,-1.5705,-1.5825,-1.5832,-1.5832,-1.5832,-1.5712,-1.5405,-1.4832,-1.409,-1.3371,-1.2667,-1.1824,-1.1322,-1.7221,0.0,0.0,0.0,0.0,0.0,0.0,0.0,0.0,0.0,0.0,0.0,0.0,0.0,0.0,0.0,0.0,-1.4088,0.0,0.0,0.0,0.0,0.0,0.0,0.0,-1.4088,-1.4088,-1.4088,-1.4088,-1.4088,-1.4088,-1.4088,-1.4088,-1.4088,-1.4088,-1.4088,-1.4088,-1.4088,-1.4088,-1.4088,-1.4088,-1.4088,-1.4088,-1.4088,-1.4088,-1.4088,-1.4088,-1.4088,-1.4088,-1.4088,-1.4088,-1.4088,-1.4088,-1.4088,-1.4088,-1.4088,-1.4088,-1.4088,-1.4088,-1.4088,-1.4088,-1.4088,-1.4088,-1.4088,-1.4166,-1.4166,-1.425,-1.4334,-1.4334,-1.4419,-1.4419,-1.4419,-1.4334,-1.4334,-1.425,-1.4166,-1.4166,-1.4166,-1.4088,-1.4088,-1.4088,-1.4088,-1.4088,-1.4088,-1.4088,-1.4088,-1.4088,-1.4088,-1.4088,-1.4088,-1.4088,-1.4088,-1.4088,-1.4088,-1.4088,-1.4088,-1.4342,-1.493,-1.5504,-1.5832,-1.5832,-1.5832,-1.5832,-1.5832,-1.5832,-1.5497,-1.4922,-1.4251,-1.3243,-1.1849,-1.0912,-1.0207,0.0,0.0,0.0,-1.673,0.0,0.0,0.0,0.0,-1.4088,0.0,0.0,0.0,0.0,0.0,0.0,0.0,0.0,0.0,0.0,0.0,0.0,0.0,0.0,0.0,0.0,-1.4088,-1.4088,-1.4088,-1.4088,-1.4088,-1.4088,-1.4088,-1.4088,-1.4088,-1.4088,-1.4088,-1.4088,-1.4088,-1.4088,-1.4088,-1.4088,-1.4088,-1.4088,-1.4088,-1.4088,-1.4088,-1.4088,-1.4088,-1.4088,-1.4088,-1.4088,-1.4088,-1.4088,-1.4088,-1.4088,-1.4088,-1.4088,-1.4088,-1.4088,-1.4088,-1.4088,-1.4088,-1.4088,-1.4173,-1.4321,-1.4398,-1.4482,-1.4915,-1.509,-1.5082,-1.5318,-1.5242,-1.509,-1.509,-1.4741,-1.4398,-1.4398,-1.4243,-1.4088,-1.4088,-1.4088,-1.4088,-1.4088,-1.4088,-1.4088,-1.4088,-1.4088,-1.4088,-1.4088,-1.4088,-1.4088,-1.4088,-1.4088,-1.4088,-1.4088,-1.4088,-1.4342,-1.493,-1.5504,-1.5832,-1.5832,-1.5832,-1.5832,-1.5832,-1.5832,-1.5396,-1.4737,-1.4173,-1.3066,-1.1405,-1.0654,-0.9946,0.0,0.0,-1.7375,-1.7049,0.0,0.0,0.0,0.0,0.0,0.0,0.0,0.0,0.0,0.0,0.0,0.0,0.0,0.0,0.0,0.0,0.0,0.0,0.0,0.0,0.0,0.0,0.0,-1.4088,-1.4088,-1.4088,-1.4088,-1.4088,-1.4088,-1.4088,-1.4088,-1.4088,-1.4088,-1.4088,-1.4088,-1.4088,-1.4088,-1.4088,-1.4088,-1.4088,-1.4088,-1.4088,-1.4088,-1.4088,-1.4088,-1.4088,-1.4088,-1.4088,-1.4088,-1.4088,-1.4088,-1.4088,-1.4088,-1.4088,-1.4088,-1.4088,-1.4088,-1.4088,-1.4166,-1.4321,-1.4566,-1.4817,-1.5144,-1.5409,-1.565,-1.5816,-1.5891,-1.5809,-1.5733,-1.5575,-1.5409,-1.5151,-1.4908,-1.4831,-1.4671,-1.4321,-1.4321,-1.4243,-1.4082,-1.4088,-1.4088,-1.4088,-1.4088,-1.4088,-1.4088,-1.4088,-1.4088,-1.4088,-1.4088,-1.4088,-1.4088,-1.4442,-1.475,-1.495,-1.5504,-1.5832,-1.5832,-1.5832,-1.5832,-1.5832,-1.5832,-1.5589,-1.5207,-1.4465,-1.3531,-1.233,-1.112,-0.9986,-1.939,-1.8754,0.0,-1.7781,-1.6878,0.0,-1.5809,0.0,-1.5068,0.0,0.0,0.0,0.0,0.0,0.0,0.0,0.0,0.0,0.0,-1.4088,0.0,0.0,0.0,0.0,0.0,0.0,-1.4088,-1.4088,-1.4088,-1.4088,0.0,-1.4088,-1.4088,-1.4088,-1.4088,-1.4088,-1.4088,-1.4088,-1.4088,-1.4088,-1.4088,-1.4088,-1.4088,-1.4088,-1.4088,-1.4088,-1.4088,-1.4088,-1.4088,-1.4088,-1.4088,-1.4088,-1.4088,-1.4088,-1.4088,-1.4088,-1.4088,-1.4088,-1.4088,-1.4088,-1.4088,-1.4159,-1.4321,-1.4566,-1.4901,-1.5401,-1.5809,-1.6304,-1.6624,-1.678,-1.6952,-1.687,-1.6698,-1.6542,-1.6296,-1.5974,-1.5658,-1.5409,-1.5075,-1.4566,-1.4482,-1.4314,-1.4166,-1.4088,-1.4088,-1.4088,-1.4088,-1.4088,-1.4088,-1.4088,-1.4088,-1.4088,-1.4088,-1.4128,-1.4229,-1.4683,-1.501,-1.511,-1.5565,-1.5832,-1.5832,-1.5832,-1.5832,-1.5832,-1.5832,-1.573,-1.554,-1.4798,-1.4002,-1.3145,-1.1805,-1.059]},{"header":{"parameterUnit":"m.s-1","parameterCategory":1,"la1":30.6,"la2":29.2853,"lo1":-89.7004,"lo2":-87.6739,"dy":0.0162,"dx":0.0183,"nx":112,"ny":82,"refTime":"2023-08-11T18:00:00:Z","depth":0,"parameterNumber":3,"parameterNumberName":"V-component_of_WINDS"},"data":[0.0,0.0,0.0,0.0,0.0,0.0,0.0,0.0,0.0,0.0,0.0,0.0,0.0,0.0,0.0,0.0,0.0,0.0,0.0,0.0,0.0,0.0,0.0,0.0,0.0,0.0,0.0,0.0,0.0,0.0,0.0,0.0,0.0,0.0,0.0,0.0,0.0,0.0,0.0,0.0,0.0,0.0,0.0,0.0,0.0,0.0,0.0,0.0,0.0,0.0,0.0,0.0,0.0,0.0,0.0,0.0,0.0,0.0,0.0,0.0,0.0,0.0,0.0,0.0,0.0,0.0,0.0,0.0,0.0,0.0,0.0,0.0,0.0,0.0,0.0,0.0,0.0,0.0,0.0,0.0,0.0,0.0,0.0,0.0,0.0,0.0,0.0,0.0,0.0,0.0,-3.079,-3.0801,-3.0791,-3.0753,-3.0697,-2.9951,-2.9485,-2.9468,0.0,0.0,0.0,0.0,0.0,0.0,0.0,0.0,0.0,0.0,0.0,0.0,0.0,0.0,0.0,0.0,0.0,0.0,0.0,0.0,0.0,0.0,0.0,0.0,0.0,0.0,0.0,0.0,0.0,0.0,0.0,0.0,0.0,0.0,0.0,0.0,0.0,0.0,0.0,0.0,0.0,0.0,0.0,0.0,0.0,0.0,0.0,0.0,0.0,0.0,0.0,0.0,0.0,0.0,0.0,0.0,0.0,0.0,0.0,0.0,0.0,0.0,0.0,0.0,0.0,0.0,0.0,0.0,0.0,0.0,0.0,0.0,0.0,0.0,0.0,0.0,0.0,0.0,0.0,0.0,0.0,0.0,0.0,0.0,0.0,0.0,0.0,0.0,0.0,0.0,0.0,0.0,0.0,0.0,0.0,0.0,0.0,0.0,0.0,0.0,0.0,0.0,0.0,0.0,-3.08,-3.0799,-3.075,-3.0691,-3.061,-3.0432,-3.0298,-3.0235,0.0,0.0,0.0,0.0,0.0,0.0,0.0,0.0,0.0,0.0,0.0,0.0,0.0,0.0,0.0,0.0,0.0,0.0,0.0,0.0,0.0,0.0,0.0,0.0,0.0,0.0,0.0,0.0,0.0,0.0,0.0,0.0,0.0,0.0,0.0,0.0,0.0,0.0,0.0,0.0,0.0,0.0,0.0,0.0,0.0,0.0,0.0,0.0,0.0,0.0,0.0,0.0,0.0,0.0,0.0,0.0,0.0,0.0,0.0,0.0,0.0,0.0,0.0,0.0,0.0,0.0,0.0,0.0,0.0,0.0,0.0,0.0,0.0,0.0,0.0,0.0,0.0,0.0,0.0,0.0,0.0,0.0,0.0,0.0,0.0,0.0,0.0,0.0,0.0,0.0,0.0,0.0,0.0,0.0,0.0,0.0,0.0,0.0,0.0,0.0,0.0,0.0,0.0,-3.0801,-3.084,-3.0796,-3.0771,-3.0735,-3.0665,-3.0602,-3.054,-3.046,-2.9696,0.0,0.0,0.0,0.0,0.0,0.0,0.0,0.0,0.0,0.0,0.0,0.0,0.0,0.0,0.0,0.0,0.0,0.0,0.0,0.0,0.0,0.0,0.0,0.0,0.0,0.0,0.0,0.0,0.0,0.0,0.0,0.0,0.0,0.0,0.0,0.0,0.0,0.0,0.0,0.0,0.0,0.0,0.0,0.0,0.0,0.0,0.0,0.0,0.0,0.0,0.0,0.0,0.0,0.0,0.0,0.0,0.0,0.0,0.0,0.0,0.0,0.0,0.0,0.0,0.0,0.0,0.0,0.0,0.0,0.0,0.0,0.0,0.0,0.0,0.0,0.0,0.0,0.0,0.0,0.0,0.0,0.0,0.0,0.0,0.0,0.0,0.0,0.0,0.0,0.0,0.0,0.0,0.0,0.0,0.0,0.0,0.0,0.0,0.0,0.0,0.0,0.0,-3.0834,-3.0859,-3.0825,-3.081,-3.0778,-3.0716,-3.0626,-3.0549,-3.0491,-3.0436,0.0,0.0,0.0,0.0,0.0,0.0,0.0,0.0,0.0,0.0,0.0,0.0,0.0,0.0,0.0,0.0,0.0,0.0,0.0,0.0,0.0,0.0,0.0,0.0,0.0,0.0,0.0,0.0,0.0,0.0,0.0,0.0,0.0,0.0,0.0,0.0,0.0,0.0,0.0,0.0,0.0,0.0,0.0,0.0,0.0,0.0,0.0,0.0,0.0,0.0,0.0,0.0,0.0,0.0,0.0,0.0,0.0,0.0,0.0,0.0,0.0,0.0,0.0,0.0,0.0,0.0,0.0,0.0,0.0,0.0,0.0,0.0,0.0,0.0,0.0,0.0,0.0,0.0,0.0,0.0,0.0,0.0,0.0,0.0,0.0,0.0,0.0,0.0,0.0,0.0,0.0,0.0,0.0,0.0,0.0,0.0,0.0,0.0,0.0,0.0,0.0,0.0,-3.0799,-3.0839,-3.0891,-3.084,-3.0774,-3.0703,-3.0579,-3.0501,-3.0509,-3.0444,0.0,0.0,0.0,0.0,0.0,0.0,0.0,0.0,0.0,0.0,0.0,0.0,0.0,0.0,0.0,0.0,0.0,0.0,0.0,0.0,0.0,0.0,0.0,0.0,0.0,0.0,0.0,0.0,0.0,0.0,0.0,0.0,0.0,0.0,0.0,0.0,0.0,0.0,0.0,0.0,0.0,0.0,0.0,0.0,0.0,0.0,0.0,0.0,0.0,0.0,0.0,0.0,0.0,0.0,0.0,0.0,0.0,0.0,0.0,0.0,0.0,0.0,0.0,0.0,0.0,0.0,0.0,0.0,0.0,0.0,0.0,0.0,0.0,0.0,0.0,0.0,0.0,0.0,0.0,0.0,0.0,0.0,0.0,0.0,0.0,0.0,0.0,0.0,0.0,0.0,0.0,0.0,0.0,0.0,0.0,0.0,0.0,0.0,0.0,0.0,0.0,0.0,-3.0801,-3.0813,0.0,-3.0818,-3.0769,-3.071,-3.0574,-3.0501,-3.051,0.0,0.0,0.0,0.0,0.0,0.0,0.0,0.0,0.0,0.0,0.0,0.0,0.0,0.0,0.0,0.0,0.0,0.0,0.0,0.0,0.0,0.0,0.0,0.0,0.0,0.0,0.0,0.0,0.0,0.0,0.0,0.0,0.0,0.0,0.0,0.0,0.0,0.0,0.0,0.0,0.0,0.0,0.0,0.0,0.0,0.0,0.0,0.0,0.0,0.0,0.0,0.0,0.0,0.0,0.0,0.0,0.0,0.0,0.0,0.0,0.0,0.0,0.0,0.0,0.0,0.0,0.0,0.0,0.0,0.0,0.0,0.0,0.0,0.0,0.0,0.0,0.0,0.0,0.0,0.0,0.0,0.0,0.0,0.0,0.0,0.0,0.0,0.0,0.0,0.0,0.0,0.0,0.0,0.0,0.0,0.0,0.0,0.0,0.0,0.0,0.0,0.0,-3.1639,-3.1639,-3.1619,0.0,-3.1572,-3.1525,-3.1479,-3.11,-3.0887,-3.0876,0.0,0.0,0.0,0.0,0.0,0.0,0.0,0.0,0.0,0.0,0.0,0.0,0.0,0.0,0.0,0.0,0.0,0.0,0.0,0.0,0.0,0.0,0.0,0.0,0.0,0.0,0.0,0.0,0.0,0.0,0.0,0.0,0.0,0.0,0.0,0.0,0.0,0.0,0.0,0.0,0.0,0.0,0.0,0.0,0.0,0.0,0.0,0.0,0.0,0.0,0.0,0.0,0.0,0.0,0.0,0.0,0.0,0.0,0.0,0.0,0.0,0.0,0.0,0.0,0.0,0.0,0.0,0.0,0.0,0.0,0.0,0.0,0.0,0.0,0.0,0.0,0.0,0.0,0.0,0.0,0.0,0.0,0.0,0.0,0.0,0.0,0.0,0.0,0.0,0.0,0.0,0.0,0.0,0.0,0.0,0.0,0.0,0.0,0.0,0.0,0.0,0.0,-3.3395,-3.3402,-3.3372,-3.3303,-3.323,-3.3164,-3.3093,-3.225,-3.1711,0.0,0.0,0.0,0.0,0.0,0.0,0.0,0.0,0.0,0.0,0.0,0.0,0.0,0.0,0.0,0.0,0.0,0.0,0.0,0.0,0.0,0.0,0.0,0.0,0.0,0.0,0.0,0.0,0.0,0.0,0.0,0.0,0.0,0.0,0.0,0.0,0.0,0.0,0.0,0.0,0.0,0.0,0.0,0.0,0.0,0.0,0.0,0.0,0.0,0.0,0.0,0.0,0.0,0.0,0.0,0.0,0.0,0.0,0.0,0.0,0.0,0.0,0.0,0.0,0.0,0.0,0.0,0.0,0.0,0.0,0.0,0.0,0.0,0.0,0.0,0.0,0.0,0.0,0.0,0.0,0.0,0.0,0.0,0.0,0.0,0.0,0.0,0.0,0.0,0.0,0.0,0.0,0.0,0.0,0.0,0.0,0.0,0.0,0.0,0.0,0.0,0.0,0.0,-3.3333,-3.3336,-3.3291,-3.3227,-3.3167,-3.3093,-3.3044,-3.2786,-3.2625,-3.2613,0.0,0.0,0.0,0.0,0.0,0.0,0.0,0.0,0.0,0.0,0.0,0.0,0.0,0.0,0.0,0.0,0.0,0.0,0.0,0.0,0.0,0.0,0.0,0.0,0.0,0.0,0.0,0.0,0.0,0.0,0.0,0.0,0.0,0.0,0.0,0.0,0.0,0.0,0.0,0.0,0.0,0.0,0.0,0.0,0.0,0.0,0.0,0.0,0.0,0.0,0.0,0.0,0.0,0.0,0.0,0.0,0.0,0.0,0.0,0.0,0.0,0.0,0.0,0.0,0.0,0.0,0.0,0.0,0.0,0.0,0.0,0.0,0.0,0.0,0.0,0.0,0.0,0.0,0.0,0.0,0.0,0.0,0.0,0.0,0.0,0.0,0.0,0.0,0.0,0.0,0.0,0.0,0.0,0.0,0.0,0.0,0.0,0.0,0.0,0.0,0.0,0.0,-3.4319,-3.4289,-3.4256,-3.4168,-3.4119,-3.4066,-3.4002,-3.3685,-3.3474,-3.3442,0.0,0.0,0.0,0.0,0.0,0.0,0.0,0.0,0.0,0.0,0.0,0.0,0.0,0.0,0.0,0.0,0.0,0.0,0.0,0.0,0.0,0.0,0.0,0.0,0.0,0.0,0.0,0.0,0.0,0.0,0.0,0.0,0.0,0.0,0.0,0.0,0.0,0.0,0.0,0.0,0.0,0.0,0.0,0.0,0.0,0.0,0.0,0.0,0.0,0.0,0.0,0.0,0.0,0.0,0.0,0.0,0.0,0.0,0.0,0.0,0.0,0.0,0.0,0.0,0.0,0.0,0.0,0.0,0.0,0.0,0.0,0.0,0.0,0.0,0.0,0.0,0.0,0.0,0.0,0.0,0.0,0.0,0.0,0.0,0.0,0.0,0.0,0.0,0.0,0.0,0.0,0.0,0.0,0.0,0.0,0.0,0.0,0.0,0.0,0.0,0.0,0.0,-3.582,-3.5795,-3.5736,-3.5607,-3.5589,-3.5579,-3.5502,-3.4783,-3.4282,-3.4222,0.0,0.0,0.0,0.0,0.0,0.0,0.0,0.0,0.0,0.0,0.0,0.0,0.0,0.0,0.0,0.0,0.0,0.0,0.0,0.0,0.0,0.0,0.0,0.0,0.0,0.0,0.0,0.0,0.0,0.0,0.0,0.0,0.0,0.0,0.0,0.0,0.0,0.0,0.0,0.0,0.0,0.0,0.0,0.0,0.0,0.0,0.0,0.0,0.0,0.0,0.0,0.0,0.0,0.0,0.0,0.0,0.0,0.0,0.0,0.0,-3.0444,0.0,0.0,0.0,0.0,0.0,0.0,0.0,0.0,0.0,0.0,0.0,0.0,0.0,0.0,0.0,0.0,0.0,0.0,0.0,0.0,0.0,0.0,0.0,0.0,0.0,0.0,0.0,0.0,0.0,0.0,0.0,0.0,0.0,0.0,0.0,0.0,0.0,0.0,0.0,0.0,0.0,-3.5815,-3.5754,-3.5679,-3.5534,-3.5528,-3.5522,-3.5501,-3.5334,-3.5205,-3.5124,-3.4318,0.0,0.0,0.0,0.0,0.0,0.0,0.0,0.0,0.0,0.0,0.0,0.0,0.0,0.0,0.0,0.0,0.0,0.0,0.0,0.0,0.0,0.0,0.0,0.0,0.0,0.0,0.0,0.0,0.0,0.0,0.0,0.0,0.0,0.0,0.0,0.0,0.0,0.0,0.0,0.0,0.0,0.0,0.0,0.0,0.0,0.0,0.0,0.0,0.0,0.0,0.0,0.0,0.0,0.0,0.0,0.0,0.0,0.0,0.0,0.0,-3.1607,0.0,0.0,0.0,0.0,0.0,0.0,0.0,0.0,0.0,0.0,0.0,0.0,0.0,0.0,0.0,0.0,0.0,0.0,0.0,0.0,0.0,0.0,0.0,0.0,0.0,0.0,0.0,0.0,0.0,0.0,0.0,0.0,0.0,0.0,0.0,0.0,0.0,0.0,0.0,0.0,-3.5754,-3.5689,-3.5604,-3.5509,-3.5495,-3.5501,-3.5507,-3.5493,-3.546,-3.5364,-3.4923,0.0,0.0,0.0,0.0,0.0,0.0,0.0,0.0,0.0,0.0,0.0,0.0,0.0,0.0,0.0,0.0,0.0,0.0,0.0,0.0,0.0,0.0,0.0,0.0,0.0,0.0,0.0,0.0,0.0,0.0,0.0,0.0,0.0,0.0,0.0,0.0,0.0,0.0,0.0,0.0,0.0,0.0,0.0,0.0,0.0,0.0,0.0,0.0,0.0,0.0,0.0,0.0,0.0,-3.3077,-3.3183,-3.3245,-3.3245,-3.3259,-3.3338,-3.3346,-3.3179,-3.2891,-3.2891,0.0,0.0,0.0,0.0,0.0,0.0,0.0,0.0,0.0,0.0,0.0,0.0,0.0,0.0,0.0,0.0,0.0,0.0,0.0,0.0,0.0,0.0,0.0,0.0,-3.5204,-3.5321,-3.3992,0.0,0.0,0.0,0.0,0.0,0.0,0.0,0.0,0.0,0.0,0.0,-3.5728,-3.5637,-3.5565,-3.5507,-3.5493,-3.5493,-3.5493,-3.5493,-3.5446,-3.533,-3.5315,-3.5273,0.0,0.0,0.0,0.0,0.0,0.0,0.0,0.0,0.0,0.0,0.0,0.0,0.0,0.0,0.0,0.0,0.0,0.0,0.0,0.0,0.0,0.0,0.0,0.0,0.0,0.0,0.0,0.0,0.0,0.0,0.0,0.0,-2.8741,-2.8851,0.0,0.0,0.0,0.0,0.0,0.0,0.0,0.0,0.0,0.0,0.0,0.0,0.0,-3.2241,-3.2421,-3.323,-3.3713,-3.3842,-3.4604,-3.4963,-3.497,-3.497,-3.5004,-3.5067,-3.5067,0.0,-3.2891,-3.2891,0.0,0.0,0.0,0.0,0.0,0.0,0.0,0.0,0.0,0.0,0.0,0.0,0.0,0.0,0.0,0.0,0.0,0.0,0.0,0.0,0.0,0.0,-3.5534,-3.5553,-3.5581,-3.556,0.0,-3.5475,-3.5632,-3.564,-3.5781,0.0,0.0,0.0,0.0,0.0,0.0,0.0,-3.5805,-3.5646,-3.5565,-3.5507,-3.5493,-3.5493,-3.5493,-3.5493,-3.546,-3.5379,-3.533,-3.527,-3.5209,-3.51,0.0,0.0,0.0,0.0,0.0,0.0,0.0,0.0,0.0,0.0,0.0,0.0,0.0,0.0,0.0,0.0,0.0,0.0,0.0,0.0,0.0,0.0,0.0,0.0,0.0,0.0,0.0,0.0,0.0,-2.9843,-3.0356,-3.0356,-3.0717,-3.0967,0.0,0.0,0.0,0.0,0.0,0.0,0.0,0.0,0.0,-3.3343,-3.3368,-3.3456,-3.3638,-3.4074,-3.4377,-3.4503,-3.4937,-3.516,-3.5245,-3.5239,-3.527,-3.533,-3.533,-3.4971,-3.4372,-3.4372,-3.4372,-3.4372,0.0,0.0,0.0,0.0,-3.4422,-3.4457,-3.4491,-3.4515,-3.4565,-3.4594,0.0,0.0,0.0,0.0,0.0,0.0,0.0,0.0,0.0,0.0,-3.6435,-3.6883,-3.6974,-3.6948,-3.6948,-3.6979,-3.6914,0.0,-3.6878,-3.7374,-3.7753,0.0,0.0,0.0,0.0,-3.7569,-3.7157,-3.6999,-3.6941,-3.6911,-3.6911,-3.6719,-3.6219,-3.618,-3.594,-3.5432,-3.5364,-3.532,-3.519,-3.5229,-3.5043,0.0,0.0,0.0,0.0,0.0,0.0,0.0,0.0,0.0,0.0,0.0,0.0,0.0,0.0,0.0,0.0,0.0,0.0,0.0,0.0,0.0,0.0,0.0,0.0,0.0,0.0,0.0,0.0,-3.1017,-3.1384,-3.1384,-3.1636,-3.1765,0.0,0.0,0.0,0.0,0.0,0.0,-3.3204,-3.3784,-3.4241,-3.4556,-3.4628,-3.4834,-3.5218,-3.5284,-3.539,-3.5552,-3.5609,-3.5721,-3.5848,-3.5842,-3.5873,-3.5952,-3.5952,-3.6017,-3.6075,-3.5666,-3.5493,-3.5493,-3.5493,-3.5641,-3.5815,-3.5803,-3.5951,-3.6157,-3.6209,-3.6202,-3.6226,-3.6261,-3.6303,-3.6336,-3.6396,0.0,0.0,0.0,0.0,-3.6444,-3.7058,-3.716,-3.7263,-3.7852,-3.7998,-3.8007,-3.8007,-3.8176,-3.8097,0.0,-3.7749,-3.8315,-3.854,0.0,0.0,0.0,0.0,-3.8427,-3.8194,-3.808,-3.8012,-3.7988,-3.8007,-3.7738,-3.7084,-3.7026,-3.6666,-3.5792,-3.5739,-3.5599,-3.5258,-3.5277,-3.5229,-3.5091,0.0,0.0,0.0,0.0,0.0,0.0,0.0,0.0,0.0,0.0,0.0,0.0,0.0,0.0,0.0,0.0,0.0,0.0,0.0,0.0,0.0,0.0,0.0,0.0,0.0,0.0,0.0,0.0,0.0,-3.1384,-3.2082,0.0,0.0,0.0,0.0,-3.3705,-3.3742,-3.376,-3.376,-3.3797,-3.4255,-3.5225,-3.5321,-3.5845,-3.6873,-3.6939,-3.7081,-3.7275,-3.7336,-3.7452,-3.7583,-3.758,-3.7613,-3.7685,-3.7753,-3.7766,-3.7659,-3.6133,-3.5493,-3.5493,-3.5493,-3.5968,-3.6642,-3.6642,-3.7161,-3.7873,-3.7873,-3.7882,-3.7872,-3.7872,-3.7932,-3.7996,-3.8059,-3.8071,0.0,0.0,-3.8028,-3.7983,-3.8022,-3.799,-3.7949,-3.7987,-3.7998,-3.8007,-3.8007,-3.8642,-3.8984,0.0,-3.8022,-3.8375,-3.9185,0.0,-3.9437,-3.9437,-3.9383,-3.9038,-3.8196,-3.804,-3.8012,-3.7988,-3.8007,-3.7988,-3.795,-3.793,-3.7565,-3.6685,-3.6618,-3.6257,-3.5417,-3.5273,-3.5174,-3.5105,-3.5053,0.0,0.0,0.0,0.0,0.0,0.0,0.0,0.0,0.0,0.0,0.0,0.0,0.0,0.0,0.0,0.0,0.0,0.0,0.0,0.0,0.0,0.0,0.0,0.0,0.0,0.0,0.0,0.0,-3.2944,-3.3201,0.0,-3.3366,-3.3623,-3.4009,-3.4541,-3.4578,-3.4835,-3.5385,-3.5404,-3.5588,-3.5984,-3.6066,-3.6348,-3.6782,-3.6907,-3.7075,-3.726,-3.7389,-3.7508,-3.7642,-3.7677,-3.7747,-3.78,-3.7836,-3.7868,-3.7862,-3.7283,-3.7064,-3.7103,-3.7103,-3.7276,-3.7546,-3.7546,-3.7738,-3.8007,-3.8007,-3.8003,-3.8003,-3.8003,-3.8012,-3.8034,-3.8067,-3.8112,-3.8132,-3.808,-3.8047,-3.8169,-3.8719,-3.8859,-3.8965,-3.9484,-3.9619,-3.9604,-3.9604,-3.9854,-3.9985,-3.9657,-3.9663,-3.9822,-4.0125,-4.0204,-4.0198,-4.0198,-4.0191,-4.0067,-3.9735,-3.9649,-3.96,-3.9604,-3.9604,-3.9392,-3.8873,-3.8834,-3.845,-3.7584,-3.7012,-3.6575,-3.6257,-3.5656,-3.5289,-3.5157,-3.516,-3.5126,0.0,0.0,0.0,0.0,0.0,0.0,0.0,0.0,0.0,0.0,0.0,0.0,0.0,0.0,0.0,0.0,0.0,0.0,0.0,0.0,0.0,0.0,0.0,0.0,0.0,0.0,-3.3899,-3.4174,-3.4211,-3.4321,-3.4614,-3.4633,-3.4871,-3.5404,-3.5459,-3.5697,-3.6266,-3.6303,-3.6442,-3.6785,-3.686,-3.71,-3.7495,-3.7671,-3.7828,-3.7999,-3.8159,-3.8324,-3.8461,-3.8536,-3.8609,-3.8626,-3.8625,-3.8678,-3.8695,-3.8731,-3.878,-3.88,-3.8189,-3.8166,-3.843,-3.843,-3.8604,-3.8834,-3.8834,-3.8834,-3.8834,-3.8834,-3.883,-3.8825,-3.8825,-3.8873,-3.8907,-3.8859,-3.8825,-3.8979,-3.9561,-3.97,-3.9835,-4.0354,-4.0489,-4.0489,-4.0489,-4.0489,-4.0489,-4.0489,-4.0539,-4.0573,-4.0573,-4.0569,-4.0579,-4.0579,-4.0569,-4.0573,-4.0573,-4.0523,-4.0489,-4.0489,-4.0489,-4.0277,-3.9738,-3.97,-3.9335,-3.8488,-3.7892,-3.7454,-3.7137,-3.6546,-3.6059,-3.5679,-3.5359,-3.5193,-3.516,0.0,0.0,0.0,0.0,0.0,0.0,0.0,0.0,0.0,0.0,0.0,0.0,0.0,0.0,0.0,0.0,0.0,0.0,0.0,0.0,0.0,0.0,0.0,-3.41,-3.388,-3.4174,-3.4935,-3.5027,-3.5385,-3.6211,-3.6303,-3.6303,-3.634,-3.634,-3.634,-3.6376,-3.6376,-3.6754,-3.7614,-3.769,-3.8173,-3.9101,-3.9301,-3.9458,-3.9618,-3.9823,-3.9954,-4.0117,-4.0234,-4.031,-4.031,-4.0308,-4.0307,-4.0307,-4.0362,-4.0432,-4.0329,-3.8642,-3.8539,-3.9335,-3.9335,-3.9815,-4.0489,-4.0489,-4.0489,-4.0489,-4.0489,-4.0489,-4.0489,-4.0489,-4.0489,-4.0489,-4.0489,-4.0489,-4.0489,-4.0489,-4.0489,-4.0489,-4.0489,-4.0489,-4.0489,-4.0489,-4.0489,-4.0489,-4.0489,-4.0489,-4.0489,-4.0489,-4.0489,-4.0489,-4.0489,-4.0489,0.0,-4.0489,-4.0489,-4.0489,-4.0489,-4.0489,-4.0489,-4.0489,-4.0489,-4.0162,-3.9392,-3.9296,-3.8911,-3.8084,-3.7959,-3.749,-3.6619,-3.5717,-3.5277,-3.5296,0.0,0.0,0.0,0.0,0.0,0.0,0.0,0.0,0.0,0.0,0.0,0.0,0.0,0.0,0.0,0.0,0.0,0.0,0.0,0.0,0.0,0.0,-3.6138,-3.5679,-3.5605,-3.5697,-3.5917,-3.5936,-3.6046,-3.6266,-3.6303,-3.6541,-3.711,-3.7165,-3.7422,-3.801,-3.8046,-3.8138,-3.8389,-3.849,-3.8728,-3.9036,-3.9283,-3.9496,-3.967,-3.987,-4.0057,-4.0176,-4.0253,-4.031,-4.0308,-4.0291,-4.029,-4.0307,-4.0309,-4.0382,-4.0375,-3.9948,-3.9938,-4.0162,-4.0162,-4.0296,-4.0489,-4.0489,-4.0489,-4.0489,-4.0489,-4.0489,-4.0489,-4.0489,-4.0489,-4.0489,-4.0489,-4.0489,-4.0489,-4.0489,-4.0489,-4.0489,-4.0489,-4.0489,-4.0489,-4.0489,-4.0489,-4.0489,-4.0489,-4.0489,-4.0489,-4.0489,-4.0489,-4.0489,-4.0489,-4.0489,0.0,-4.0489,-4.0489,-4.0489,-4.0489,-4.0489,-4.0489,-4.0489,-4.0489,-4.0412,-4.0181,-3.9623,-3.9181,-3.895,-3.8319,-3.7555,-3.6684,-3.637,-3.5933,0.0,0.0,0.0,0.0,0.0,0.0,0.0,0.0,0.0,0.0,0.0,0.0,0.0,0.0,0.0,0.0,0.0,0.0,0.0,0.0,0.0,0.0,-3.7092,-3.7312,-3.7312,-3.6725,-3.6431,-3.6743,-3.6798,-3.6927,-3.7276,-3.7312,-3.7496,-3.7955,-3.7991,-3.8212,-3.8689,-3.8707,-3.8707,-3.8707,-3.8792,-3.891,-3.8968,-3.9183,-3.9427,-3.9623,-3.9826,-3.9996,-4.0157,-4.0234,-4.0272,-4.0307,-4.029,-4.0327,-4.0325,-4.0345,-4.0363,0.0,0.0,0.0,0.0,0.0,-4.0489,-4.0489,-4.0489,-4.0489,-4.0489,-4.0489,-4.0489,-4.0489,-4.0489,-4.0489,-4.0489,-4.0489,-4.0489,-4.0489,-4.0489,-4.0489,-4.0489,-4.0489,-4.0489,-4.0489,-4.0489,-4.0489,-4.0489,-4.0489,-4.0489,0.0,-4.0489,-4.0489,-4.0489,-4.0489,-4.0489,-4.0489,-4.0489,-4.0489,-4.0489,-4.0489,-4.0489,-4.0489,-4.0489,-4.0489,0.0,0.0,0.0,-3.9796,-3.9796,-3.8988,0.0,0.0,0.0,-3.6411,-3.5945,0.0,0.0,0.0,-3.5014,-3.4795,0.0,0.0,0.0,0.0,0.0,0.0,0.0,0.0,0.0,0.0,0.0,0.0,0.0,0.0,0.0,0.0,-3.823,-3.8707,-3.8707,-3.7477,-3.6835,-3.7533,-3.7624,-3.7918,-3.8634,-3.8707,-3.8707,-3.8707,-3.8707,-3.8707,-3.8707,0.0,0.0,0.0,0.0,-3.8851,-3.891,-3.9101,-3.9354,-3.9658,-3.9844,-4.01,-4.0363,-4.0442,-4.0521,-4.0575,-4.0575,-4.063,-4.0684,-4.0703,-4.072,-4.077,-4.0509,-4.0463,-4.0489,-4.0489,-4.0489,-4.0489,-4.0489,0.0,0.0,-4.0489,-4.0489,-4.0489,-4.0489,-4.0489,-4.0489,-4.0489,-4.0489,-4.0489,-4.0489,-4.0489,-4.0489,-4.0489,-4.0489,-4.0489,-4.0489,-4.0489,-4.0489,-4.0489,-4.0489,-4.0489,-4.0489,-4.0489,-4.0489,-4.0489,-4.0489,-4.0489,-4.0489,-4.0489,-4.0489,-4.0489,0.0,0.0,-4.0489,-4.0489,-4.0489,-4.0489,-4.0489,-4.0489,-4.0489,-3.9796,-3.9392,-3.9296,-3.7777,-3.6949,-3.6853,-3.6045,-3.5641,-3.5641,-3.5547,-3.5502,0.0,0.0,0.0,0.0,0.0,0.0,0.0,0.0,0.0,0.0,0.0,0.0,0.0,0.0,0.0,-3.8469,-3.8597,-3.8707,-3.8707,-3.8432,-3.8303,-3.845,-3.8469,-3.8524,-3.8689,-3.8707,-3.8707,-3.8707,-3.8707,-3.8707,-3.8707,-3.8707,-3.8707,-3.8707,-3.878,-3.8851,-3.8979,-3.9147,-3.9679,-4.0634,0.0,0.0,-4.2047,-4.2112,-4.2218,-4.2317,-4.2317,-4.2391,-4.2499,-4.2427,-4.2464,-4.2381,-4.1014,-4.0492,-4.0489,-4.0489,-4.0489,-4.0489,-4.0489,-4.0489,-4.0489,-4.0489,-4.0489,-4.0489,-4.0489,-4.0489,0.0,-4.0489,-4.0489,-4.0489,-4.0489,-4.0489,-4.0489,-4.0489,-4.0489,-4.0489,-4.0489,-4.0489,-4.0489,-4.0489,-4.0489,-4.0489,-4.0489,-4.0489,-4.0489,-4.0489,-4.0489,-4.0489,-4.0489,-4.0489,-4.0489,-4.0489,-4.0489,-4.0489,-4.0489,-4.0489,-4.0489,-4.0489,-4.0489,-4.0489,-4.0489,-4.0335,-3.995,-3.9296,-3.8969,-3.845,-3.7757,-3.6892,-3.6469,-3.6449,-3.5795,-3.5488,0.0,0.0,0.0,0.0,0.0,0.0,0.0,0.0,0.0,0.0,0.0,-3.8707,0.0,0.0,-3.8707,-3.8707,-3.8707,-3.8707,-3.8707,-3.8707,-3.8707,-3.8707,-3.8707,-3.8707,-3.8707,-3.8707,-3.8707,-3.8707,-3.8707,-3.8707,-3.8707,-3.8707,-3.8707,-3.8707,-3.8719,-3.8994,-3.949,-3.96,-4.0226,-4.1312,-4.1365,-4.1726,-4.2342,-4.2412,-4.255,-4.2698,-4.2776,-4.287,-4.2998,-4.2998,-4.3015,-4.2956,-4.2143,-4.1527,-4.1104,-4.0662,-4.0489,-4.0489,-4.0489,-4.0489,-4.0489,-4.0489,-4.0489,-4.0489,-4.0489,-4.0489,-4.0489,-4.0489,-4.0489,-4.0489,-4.0489,-4.0489,-4.0489,-4.0489,-4.0489,-4.0489,-4.0489,-4.0489,-4.0489,-4.0489,-4.0489,-4.0489,-4.0489,-4.0489,-4.0489,-4.0489,-4.0489,-4.0489,-4.0489,-4.0489,-4.0489,-4.0489,-4.0489,-4.0489,-4.0489,-4.0489,-4.0489,-4.0489,-4.0489,-4.0489,-4.0489,-4.0489,-4.0296,-3.9912,-3.9508,-3.9084,-3.8642,-3.7777,-3.7353,-3.7334,-3.6949,-3.6295,0.0,0.0,0.0,0.0,0.0,0.0,0.0,0.0,-3.851,-3.8658,-3.8707,-3.8707,-3.8707,-3.8707,-3.8707,-3.8707,-3.8707,-3.8707,-3.8707,-3.8707,-3.8707,-3.8707,-3.8707,-3.8707,-3.8707,-3.8707,-3.8707,-3.8707,-3.8707,-3.8707,-3.8707,-3.8854,-3.8927,-3.8927,-3.9093,-3.9509,-4.0246,-4.029,-4.0848,-4.189,-4.1949,-4.2193,-4.2592,-4.2693,-4.2844,-4.3071,-4.3234,-4.3369,-4.3497,-4.3532,-4.3585,-4.3566,-4.3395,-4.2896,-4.2184,-4.1316,-4.1008,-4.1008,-4.1008,-4.0893,-4.0739,-4.0739,-4.0642,-4.0489,-4.0489,-4.0489,-4.0489,-4.0489,-4.0489,-4.0489,-4.0489,-4.0489,-4.0489,-4.0489,-4.0489,-4.0489,-4.0489,-4.0489,-4.0489,-4.0489,-4.0489,-4.0489,-4.0489,-4.0489,-4.0489,-4.0489,-4.0489,-4.0489,-4.0489,-4.0489,-4.0489,-4.0489,-4.0489,-4.0489,-4.0489,-4.0489,-4.0489,-4.0489,-4.0489,-4.0489,-4.0489,-4.0489,-4.0489,-4.0489,-3.9854,-3.9527,-3.9527,-3.8661,-3.8257,-3.8257,-3.8084,-3.7199,-3.5817,-3.6148,-3.6609,-3.7069,-3.7411,-3.7721,0.0,0.0,-3.8465,-3.8658,-3.8707,-3.8707,-3.8707,-3.8707,-3.8707,-3.8707,-3.8707,-3.8707,-3.8707,-3.8707,-3.8707,-3.8707,-3.8707,-3.8707,-3.8707,-3.8707,-3.8707,-3.8707,-3.8707,-3.8707,-3.8707,-3.9386,-3.9772,-3.9772,-4.0469,-4.0905,-4.1075,-4.1075,-4.1575,-4.2594,-4.2594,-4.31,-4.3988,-4.4168,-4.4384,-4.4659,-4.497,-4.5151,-4.5207,-4.5244,-4.5262,-4.524,-4.4474,-4.411,-4.3918,-4.3107,-4.2816,-4.2816,-4.2816,-4.2297,-4.1662,-4.1662,-4.1123,-4.0489,-4.0489,-4.0489,-4.0489,-4.0489,-4.0489,-4.0489,-4.0489,-4.0489,-4.0489,-4.0489,-4.0489,-4.0489,-4.0489,-4.0489,-4.0489,-4.0489,-4.0489,-4.0489,-4.0489,-4.0489,-4.0489,-4.0489,-4.0489,-4.0489,-4.0489,-4.0489,-4.0489,-4.0489,-4.0489,-4.0489,-4.0489,-4.0489,-4.0489,-4.0489,-4.0489,-4.0489,-4.0489,-4.0489,-4.0489,-4.0489,-4.0412,-4.0354,-4.0354,-3.9546,-3.9142,-3.9142,-3.8354,-3.7488,-3.6105,-3.6485,0.0,0.0,-3.7595,-3.7915,-3.8219,-3.8382,-3.851,-3.8658,-3.8707,-3.8707,-3.8707,-3.8707,-3.8707,0.0,-3.8707,-3.8707,-3.8707,-3.8707,-3.8707,-3.8707,-3.8707,-3.8707,-3.8707,-3.8707,-3.8707,-3.8707,-3.8707,-3.8909,-3.9368,-3.9717,-4.0102,-4.0579,-4.0928,-4.1332,-4.1856,-4.1856,-4.2294,-4.3217,-4.3217,-4.35,-4.4017,-4.4199,-4.4486,-4.4846,-4.5061,-4.5235,-4.532,-4.54,-4.5458,-4.5438,-4.5093,-4.4939,-4.4786,-4.348,-4.3017,-4.3035,-4.3035,-4.2838,-4.2566,-4.2566,-4.2316,-4.1912,-4.1412,-4.1258,-4.1143,-4.0642,-4.0489,-4.0489,-4.0489,-4.0489,-4.0489,-4.0489,-4.0489,-4.0508,-4.0495,-4.0495,-4.0479,-4.0411,-4.0411,-4.0427,-4.0375,-4.0444,-4.0495,-4.0495,-4.0492,-4.0489,-4.0489,-4.0489,-4.0489,-4.0489,-4.0489,-4.0489,-4.0489,-4.0489,-4.0489,-4.0489,-4.0489,-4.0489,-4.0489,-4.0489,-4.0489,-4.0489,-4.0489,-4.0489,-4.0489,-4.0162,-3.9988,-3.9988,-3.9623,-3.9008,-3.6233,0.0,0.0,-3.7354,-3.7667,-3.7949,-3.8252,-3.8415,-3.8528,-3.8658,-3.8707,-3.8707,-3.8707,-3.8707,-3.8707,-3.8707,-3.8707,-3.8707,-3.8707,-3.8707,-3.8707,-3.8707,-3.8707,-3.8707,-3.8707,-3.8707,-3.8799,-3.9019,-3.9038,-3.9386,-4.0194,-4.0432,-4.0836,-4.1423,-4.1662,-4.2047,-4.2635,-4.2635,-4.2944,-4.3582,-4.3582,-4.3667,-4.3832,-4.3986,-4.4269,-4.4674,-4.4783,-4.4924,-4.5125,-4.5213,-4.5297,-4.5338,-4.532,-4.5341,-4.5227,-4.4001,-4.3599,-4.3672,-4.3672,-4.3573,-4.3434,-4.3434,-4.328,-4.2989,-4.2354,-4.2162,-4.1989,-4.1104,-4.0854,-4.0796,-4.0546,-4.0489,-4.0489,-4.0489,-4.0489,-4.0508,-4.0499,-4.0502,-4.0449,-4.0325,-4.0325,-4.0362,-4.027,-4.0379,-4.0449,-4.0449,-4.0479,-4.0508,-4.0489,-4.0489,-4.0489,-4.0489,-4.0489,-4.0489,-4.0489,-4.0489,-4.0489,-4.0489,-4.0489,-4.0489,-4.0489,-4.0489,-4.0489,-4.0489,-4.0489,-4.0489,-4.0489,-4.0489,-4.0489,-4.0489,-4.0489,-4.0181,0.0,0.0,-3.6585,-3.693,-3.7317,-3.7721,-3.8034,-3.8267,-3.8465,-3.8658,-3.8707,-3.8707,-3.8707,-3.8707,-3.8707,-3.8707,-3.8707,-3.8707,-3.8707,-3.8707,-3.8707,-3.8707,-3.8707,-3.8707,0.0,-3.8707,-3.9019,-3.979,-3.9845,-4.0212,-4.1038,-4.1809,-4.2249,-4.2268,-4.302,-4.3424,-4.3442,-4.3442,-4.3461,-4.3479,-4.3479,-4.3548,-4.3615,-4.3878,-4.4121,-4.4318,-4.4402,-4.461,-4.4895,-4.4895,-4.5014,-4.5192,-4.5148,-4.5192,-4.5277,-4.5156,-4.5223,-4.5323,-4.5323,-4.4863,-4.4266,-4.4266,-4.3744,-4.3104,-4.3066,-4.3066,-4.2874,-4.2008,-4.1758,-4.1566,-4.0719,-4.0489,-4.0489,-4.0489,-4.0489,-4.0508,-4.0499,-4.0502,-4.0449,-4.0325,-4.0307,-4.027,-4.0215,-4.0252,-4.0307,-4.0307,-4.0432,-4.0499,-4.0508,-4.0489,-4.0489,-4.0489,-4.0489,-4.0489,-4.0489,-4.0489,-4.0489,-4.0489,-4.0489,-4.0489,-4.0489,-4.0489,-4.0489,-4.0489,-4.0489,-4.0489,-4.0489,-4.0489,-4.0489,-4.0489,-4.0489,-4.0489,0.0,0.0,-3.6788,-3.7105,-3.7429,-3.7792,-3.8138,-3.8336,-3.8465,-3.8658,-3.8707,-3.8707,-3.8707,-3.8707,-3.8707,-3.8707,-3.8707,-3.8707,-3.8707,-3.8707,-3.8707,-3.8707,-3.8707,0.0,0.0,0.0,0.0,-3.9863,-4.0396,-4.1056,-4.1864,-4.2158,-4.2543,-4.3075,-4.3351,-4.3497,-4.3497,-4.3497,-4.3497,-4.3497,-4.3497,-4.3532,-4.3615,-4.3682,-4.3828,-4.4048,-4.4109,-4.421,-4.4383,-4.4503,-4.461,-4.4669,-4.4827,-4.4962,-4.5057,-4.5057,-4.5151,-4.5279,-4.536,-4.5227,-4.5017,-4.5017,-4.4844,-4.4518,-4.3905,-4.3695,-4.3522,-4.2623,-4.243,-4.2257,-4.1451,-4.1255,-4.1152,-4.0614,-4.0492,-4.0492,-4.043,-4.0432,-4.0362,-4.0138,-4.0138,-4.0099,-3.9895,-3.9998,-4.0119,-4.0214,-4.0396,-4.0499,-4.0508,-4.0489,-4.0489,-4.0489,-4.0489,-4.0489,-4.0489,-4.0489,-4.0489,-4.0489,-4.0489,-4.0489,-4.0489,-4.0489,-4.0489,-4.0489,-4.0489,-4.0489,-4.0489,-4.0489,-4.0489,-4.0489,-4.0489,-4.0489,-3.6036,-3.6318,-3.669,-3.697,-3.7317,-3.7649,-3.8072,-3.8238,-3.835,-3.8578,-3.8609,-3.8658,-3.8707,-3.8707,-3.8707,-3.8707,-3.8707,-3.8707,-3.8707,-3.8707,-3.8707,-3.8707,-3.8707,-3.9019,0.0,0.0,0.0,-4.0726,-4.124,-4.1882,-4.269,-4.2727,-4.2965,-4.3461,-4.3497,-4.3497,-4.3497,-4.3497,-4.3497,-4.3497,-4.3497,-4.3513,-4.3548,-4.3548,-4.3667,-4.38,-4.3846,-4.3923,-4.4048,-4.4181,-4.425,-4.4318,-4.4522,-4.4648,-4.4751,-4.4846,-4.4986,-4.5125,-4.5256,-4.536,-4.54,-4.5379,-4.5359,-4.5223,-4.4607,-4.4414,-4.4221,-4.3342,-4.3115,-4.2965,-4.2163,-4.1992,-4.1818,-4.1031,-4.0854,-4.0758,-4.0403,-4.0326,-4.0252,-4.0038,-4.0017,-3.9975,-3.9717,-3.9781,-3.9914,-4.01,-4.029,-4.0415,-4.0495,-4.0508,-4.0489,-4.0489,-4.0489,-4.0489,-4.0489,-4.0489,-4.0489,-4.0489,-4.0489,-4.0489,-4.0489,-4.0489,-4.0489,-4.0489,-4.0489,-4.0489,-4.0489,-4.0489,-4.0489,-4.0489,-4.0489,-4.0489,-3.5817,-3.6062,-3.6385,-3.6533,-3.697,-3.741,-3.7793,-3.8002,-3.8168,-3.8428,-3.851,-3.8541,0.0,0.0,-3.8707,-3.8707,-3.8707,-3.8707,-3.8707,-3.8707,-3.8707,0.0,0.0,0.0,0.0,0.0,0.0,-4.2304,0.0,-4.269,-4.3442,-4.3497,-4.3497,-4.3497,-4.3497,-4.3497,-4.3497,-4.3497,-4.3497,-4.3497,-4.3497,-4.3497,-4.3497,-4.3497,-4.3513,-4.3582,-4.3582,-4.3682,-4.3865,-4.3865,-4.3974,-4.4091,-4.4151,-4.426,-4.4402,-4.4595,-4.4745,-4.4895,-4.5084,-4.5256,-4.5378,-4.5297,-4.5218,-4.5159,-4.5173,-4.5125,-4.4909,-4.4068,-4.384,-4.365,-4.2838,-4.2631,-4.2463,-4.1723,-4.1514,-4.1265,-4.0425,-4.0215,-4.0158,-4.0017,-3.9975,-3.987,-3.9623,-3.9575,-3.967,-3.9933,-4.0098,-4.0253,-4.0449,-4.0495,-4.0489,-4.0489,-4.0489,-4.0489,-4.0489,-4.0489,-4.0489,-4.0489,-4.0489,-4.0489,-4.0489,-4.0489,-4.0489,-4.0489,-4.0489,-4.0489,-4.0489,-4.0489,-4.0489,-4.0489,-4.0489,-4.0489,-3.6122,-3.6335,-3.6626,-3.6731,-3.7009,-3.741,-3.7793,-3.8002,-3.8168,-3.8428,-3.851,-3.8541,0.0,0.0,0.0,-3.8707,-3.8707,0.0,-3.8707,-3.8707,0.0,-3.8707,0.0,-3.9258,-4.0671,-4.0983,0.0,0.0,-4.3185,-4.3277,-4.3479,-4.3497,-4.3497,-4.3497,-4.3497,-4.3497,-4.3497,-4.3497,-4.3497,-4.3497,-4.3497,-4.3497,-4.3497,-4.3497,-4.3532,-4.3532,-4.3532,-4.3548,-4.36,-4.3667,-4.3682,-4.373,-4.391,-4.4036,-4.4121,-4.4269,-4.4421,-4.4557,-4.4751,-4.4943,-4.5103,-4.5014,-4.4919,-4.4802,-4.477,-4.4648,-4.4447,-4.424,-4.4191,-4.4056,-4.3265,-4.3207,-4.3141,-4.2287,-4.1711,-4.1298,-4.1007,-4.0475,-3.9998,-3.9807,-3.9575,-3.9376,-3.9298,-3.9298,-3.935,-3.9526,-3.9758,-3.9998,-4.0307,-4.043,-4.0499,-4.0499,-4.0492,-4.0489,-4.0489,-4.0489,-4.0489,-4.0489,-4.0489,-4.0489,-4.0489,-4.0489,-4.0489,-4.0489,-4.0489,-4.0489,-4.0489,-4.0489,-4.0489,-4.0489,-4.0489,-4.0489,-3.6335,-3.6544,-3.6788,-3.6851,-3.7105,-3.7372,-3.7739,-3.7898,-3.8104,-3.8382,-3.8446,0.0,0.0,0.0,0.0,0.0,0.0,0.0,-3.8707,-3.8707,-3.8707,0.0,-3.8707,0.0,-4.0946,-4.1111,-4.1772,0.0,-4.3497,-4.3497,-4.3497,-4.3497,-4.3497,-4.3497,-4.3497,-4.3497,-4.3497,-4.3497,-4.3497,-4.3497,-4.3497,-4.3497,-4.3497,-4.3497,-4.3497,-4.3497,0.0,-4.3497,-4.3479,-4.3548,-4.3548,-4.3548,-4.3716,-4.3781,-4.3828,-4.4017,-4.4121,-4.425,-4.4402,-4.4513,-4.4629,-4.4796,-4.4764,-4.4632,-4.4578,-4.4449,-4.4317,-4.4317,-4.4279,-4.4167,-4.3765,-4.3717,-4.36,-4.2799,-4.2329,-4.1825,-4.1065,-4.0585,-4.0151,-3.9703,-3.9376,-3.9156,-3.9156,-3.9101,-3.9101,-3.9264,-3.9477,-3.9717,-3.9958,-4.0215,-4.0396,-4.0449,-4.0479,-4.0511,-4.0511,-4.0511,-4.0495,-4.046,-4.0476,-4.0511,-4.0511,-4.0508,-4.0489,-4.0489,-4.0489,-4.0489,-4.0489,-4.0489,-4.0489,-4.0489,-4.0489,-4.0489,-3.6609,-3.6753,-3.6913,-3.7009,-3.7203,-3.7429,-3.7667,-3.7846,-3.802,-3.835,0.0,-3.8465,-3.8658,-3.8707,-3.8707,-3.8707,0.0,-3.8707,-3.8707,-3.8707,-3.8707,-3.8707,-3.8707,-3.9331,-4.0946,-4.1111,-4.1772,-4.3369,-4.3497,-4.3497,-4.3497,-4.3497,-4.3497,-4.3497,-4.3497,-4.3497,-4.3497,-4.3497,-4.3497,-4.3497,-4.3497,-4.3497,-4.3497,-4.3497,-4.3497,-4.3497,-4.3497,-4.3497,-4.3497,-4.3497,-4.3497,-4.3532,-4.3548,-4.3582,-4.3615,-4.38,-4.3897,-4.3974,-4.4048,-4.4079,-4.4121,-4.4568,-4.4613,-4.4524,-4.4468,-4.4373,-4.4255,-4.4255,-4.4158,-4.4079,-4.4121,-4.4091,-4.3893,-4.3263,-4.3032,-4.2565,-4.1129,-4.0707,-4.042,-3.9577,-3.9245,-3.9073,-3.9073,-3.8979,-3.8921,-3.9045,-3.9219,-3.9395,-3.9526,-3.9918,-4.0214,-4.0362,-4.0432,-4.0485,-4.0485,-4.0485,-4.0449,-4.0415,-4.0449,-4.0502,-4.0502,-4.0511,-4.0508,-4.0489,-4.0489,-4.0489,-4.0489,-4.0489,-4.0489,-4.0489,-4.0489,-4.0489,-3.7091,-3.7188,-3.7301,-3.7319,-3.7468,-3.7667,-3.7915,-3.807,0.0,0.0,0.0,-3.8528,-3.8658,-3.8707,0.0,-3.8707,0.0,0.0,0.0,0.0,-3.8707,0.0,0.0,0.0,0.0,0.0,0.0,0.0,0.0,-4.3497,-4.3497,-4.3497,-4.3497,-4.3497,-4.3497,-4.3497,-4.3497,-4.3497,-4.3497,-4.3497,-4.3497,-4.3497,-4.3497,-4.3497,-4.3497,-4.3497,-4.3497,0.0,-4.3497,-4.3497,-4.3497,-4.3497,-4.3513,-4.3532,-4.3532,-4.3615,-4.3649,-4.3682,-4.3878,-4.3929,-4.3992,-4.421,-4.421,-4.4128,-4.4285,-4.4147,-4.3961,-4.4036,-4.3961,-4.3851,-4.3883,-4.3897,-4.3892,-4.3775,-4.3299,-4.2753,-4.2456,-4.1332,-4.0123,-3.9268,-3.9007,-3.8921,-3.8862,-3.8833,-3.8822,-3.8833,-3.8979,-3.912,-3.9264,-3.9717,-4.0078,-4.0234,-4.0289,-4.0362,-4.0415,-4.0415,-4.0415,-4.0415,-4.0415,-4.0432,-4.0502,-4.0499,-4.0495,-4.0489,-4.0489,-4.0489,-4.0489,-4.0489,-4.0489,-4.0489,-4.0489,-4.0489,-3.7559,-3.7631,-3.7721,-3.7756,-3.7827,-3.7949,-3.8104,0.0,0.0,0.0,0.0,-3.8541,-3.8676,0.0,0.0,0.0,0.0,0.0,0.0,0.0,0.0,0.0,0.0,0.0,0.0,0.0,0.0,0.0,0.0,-4.3497,-4.3497,-4.3497,-4.3497,-4.3497,-4.3497,-4.3497,-4.3497,-4.3497,-4.3497,-4.3497,-4.3497,-4.3497,-4.3497,-4.3497,-4.3497,-4.3497,-4.3497,-4.3497,-4.3497,-4.3497,-4.3497,-4.3497,-4.3497,-4.3497,-4.3479,-4.3532,-4.3566,-4.3548,-4.3667,-4.3701,-4.3716,-4.386,-4.3942,-4.3974,-4.4116,-4.4023,-4.3897,-4.3974,-4.3897,-4.3804,-4.3804,-4.3753,-4.3701,-4.3701,-4.3107,-4.2419,-4.2057,-4.1021,-3.993,-3.9116,-3.8892,-3.8851,-3.8822,-3.8762,-3.875,-3.875,-3.8822,-3.8921,-3.9036,-3.9324,-3.9647,-3.9954,-4.0078,-4.0177,-4.0291,-4.0309,-4.0309,-4.0309,-4.0309,-4.0308,-4.0325,-4.0413,-4.0447,-4.0495,-4.0508,-4.0489,-4.0489,-4.0489,-4.0489,-4.0489,-4.0489,-4.0489,-3.7985,-3.8054,-3.8086,-3.8135,-3.8168,-3.8201,-3.8322,-3.8372,0.0,0.0,-3.8541,-3.8559,-3.8658,0.0,0.0,0.0,0.0,0.0,0.0,0.0,0.0,0.0,0.0,0.0,0.0,0.0,0.0,0.0,0.0,0.0,-4.3497,-4.3497,-4.3497,-4.3497,-4.3497,-4.3497,-4.3497,-4.3497,-4.3497,-4.3497,-4.3497,-4.3497,-4.3497,-4.3497,-4.3497,-4.3497,-4.3497,-4.3497,-4.3497,-4.3497,-4.3497,-4.3497,-4.3497,-4.3497,-4.3497,-4.3497,-4.3497,-4.3497,-4.3497,-4.3497,-4.3532,-4.3548,-4.3701,-4.3865,-4.3974,-4.3942,-4.3929,-4.4023,-4.3947,-4.3804,-4.3804,-4.3652,-4.3497,-4.3497,-4.302,-4.2356,-4.1613,-4.0804,-3.9994,-3.9257,-3.8932,-3.8762,-3.8762,-3.8719,-3.8707,-3.8707,-3.875,-3.8792,-3.8881,-3.8979,-3.921,-3.9575,-3.9804,-3.9975,-4.0118,-4.0157,-4.0157,-4.0157,-4.0157,-4.0157,-4.0196,-4.0289,-4.0415,-4.0485,-4.0495,-4.0508,-4.0489,-4.0489,-4.0489,-4.0489,-4.0489,-4.0489,-3.8285,-3.835,-3.835,-3.8382,-3.8415,-3.8478,-3.8478,0.0,0.0,-3.8676,-3.8658,-3.8707,-3.8707,-3.8707,0.0,0.0,0.0,0.0,0.0,0.0,0.0,0.0,0.0,0.0,0.0,0.0,0.0,0.0,0.0,0.0,-4.3497,-4.3497,-4.3497,-4.3497,-4.3497,-4.3497,-4.3497,-4.3497,-4.3497,-4.3497,-4.3497,-4.3497,-4.3497,-4.3497,-4.3497,-4.3497,-4.3497,-4.3497,0.0,-4.3497,-4.3497,-4.3497,-4.3497,-4.3497,-4.3497,-4.3497,-4.3497,-4.3497,-4.3497,-4.3497,-4.3497,-4.3532,-4.3548,-4.3682,-4.3942,-4.3942,-4.3947,-4.4123,-4.3998,-4.3804,-4.3804,-4.3652,-4.3497,-4.3497,-4.3424,-4.3167,-4.2359,-4.157,-4.0763,-3.9968,-3.9215,-3.8707,-3.8707,-3.8707,-3.8707,-3.8707,-3.8707,-3.8719,-3.8792,-3.8822,-3.8892,-3.9064,-3.9401,-3.9735,-3.9914,-3.9996,-4.0017,-4.0017,-4.0017,-4.0057,-4.0098,-4.0176,-4.0272,-4.0413,-4.0466,-4.0495,-4.0489,-4.0489,-4.0489,-4.0489,-4.0489,-4.0489,-3.8415,-3.8478,-3.8478,-3.8546,-3.8609,-3.8609,-3.8609,0.0,0.0,-3.8707,-3.8707,-3.8707,-3.8707,-3.8707,-3.8707,0.0,0.0,0.0,0.0,0.0,0.0,0.0,0.0,0.0,0.0,0.0,0.0,0.0,0.0,0.0,-4.3497,-4.3497,-4.3497,-4.3497,-4.3497,-4.3497,-4.3497,-4.3497,-4.3497,-4.3497,-4.3497,-4.3497,-4.3497,-4.3497,-4.3497,-4.3497,-4.3497,-4.3497,0.0,-4.3497,-4.3497,-4.3497,-4.3497,-4.3497,-4.3497,-4.3497,-4.3497,-4.3497,-4.3497,-4.3497,-4.3497,-4.3497,-4.3532,-4.3548,-4.3716,-4.38,-4.3851,-4.3979,-4.3947,-4.3851,-4.3804,-4.3652,-4.3497,-4.3497,-4.3497,-4.3277,-4.247,-4.168,-4.0873,-4.0065,-3.9239,-3.8707,-3.8707,-3.8707,-3.8707,-3.8707,-3.8707,-3.8707,-3.875,-3.875,-3.878,-3.8881,-3.9183,-3.9452,-3.9647,-3.9717,-3.9781,-3.9826,-3.9781,-3.9804,-3.9848,-3.9956,-4.0099,-4.0291,-4.0398,-4.0447,-4.0495,-4.0508,-4.0489,-4.0489,-4.0489,-4.0489,-3.8528,-3.8559,-3.859,-3.8676,-3.8707,-3.8707,0.0,0.0,0.0,-3.8707,-3.8707,-3.8707,-3.8707,-3.8707,-3.8707,0.0,0.0,-3.8707,0.0,0.0,0.0,0.0,0.0,0.0,0.0,0.0,0.0,0.0,0.0,0.0,-4.3497,-4.3497,-4.3497,-4.3497,-4.3497,-4.3497,-4.3497,-4.3497,-4.3497,-4.3497,-4.3497,-4.3497,-4.3497,-4.3497,-4.3497,-4.3497,-4.3497,-4.3497,0.0,-4.3497,-4.3497,-4.3497,-4.3497,-4.3497,-4.3497,-4.3497,-4.3497,-4.3497,-4.3497,-4.3497,-4.3497,-4.3497,-4.3497,-4.3532,-4.3548,-4.3686,-4.3804,-4.3883,-4.3883,-4.3851,-4.3753,-4.36,-4.3497,-4.3497,-4.3497,-4.3332,-4.2782,-4.2029,-4.1222,-4.0414,-3.9606,-3.8982,-3.8744,-3.8707,-3.8707,-3.8707,-3.8707,-3.8707,-3.8707,-3.8707,-3.8738,-3.878,-3.895,-3.9183,-3.9401,-3.9477,-3.9551,-3.9599,-3.9551,-3.9551,-3.9599,-3.9717,-3.9892,-4.0118,-4.0234,-4.0362,-4.0449,-4.0444,-4.0457,-4.0492,-4.0492,-4.0508,-3.8658,-3.8707,-3.8707,-3.8707,-3.8707,-3.8707,0.0,0.0,-3.8707,-3.8707,-3.8707,-3.8707,-3.8707,-3.8707,-3.8707,-3.8707,-3.8707,0.0,0.0,0.0,0.0,0.0,0.0,0.0,0.0,0.0,0.0,0.0,0.0,0.0,-4.3497,-4.3497,-4.3497,-4.3497,-4.3497,-4.3497,-4.3497,-4.3497,-4.3497,-4.3497,-4.3497,-4.3497,-4.3497,-4.3497,-4.3497,-4.3497,-4.3497,-4.3497,0.0,-4.3497,-4.3497,-4.3497,-4.3497,-4.3497,-4.3497,-4.3497,-4.3497,-4.3497,-4.3497,-4.3497,-4.3497,-4.3497,-4.3497,-4.3497,-4.3497,-4.3652,-4.3804,-4.3883,-4.3851,-4.3771,-4.3634,-4.3548,-4.3497,-4.3497,-4.3497,-4.3497,-4.3479,-4.2855,-4.2047,-4.1258,-4.0432,-3.9625,-3.8836,-3.8707,-3.8707,-3.8707,-3.8707,-3.8707,-3.8707,-3.8707,-3.8707,-3.8707,-3.8762,-3.8921,-3.9183,-3.9272,-3.9324,-3.9401,-3.935,-3.9324,-3.9401,-3.9477,-3.9647,-3.9892,-4.0017,-4.0177,-4.0307,-4.0307,-4.0379,-4.0502,-4.0502,-4.0515,-3.8658,-3.8707,-3.8707,-3.8707,-3.8707,-3.8707,-3.8707,0.0,-3.8707,-3.8707,-3.8707,-3.8707,-3.8707,-3.8707,-3.8707,-3.8707,-3.8707,0.0,0.0,0.0,0.0,0.0,0.0,0.0,0.0,0.0,0.0,0.0,0.0,0.0,-4.3497,-4.3497,-4.3497,-4.3497,-4.3497,-4.3497,-4.3497,-4.3497,-4.3497,-4.3497,-4.3497,-4.3497,-4.3497,-4.3497,-4.3497,-4.3497,-4.3497,-4.3497,-4.3497,-4.3497,-4.3497,-4.3497,-4.3497,-4.3497,-4.3497,-4.3497,-4.3497,-4.3497,-4.3497,-4.3497,-4.3497,-4.3497,-4.3497,-4.3532,-4.3548,-4.3686,-4.3837,-4.3929,-4.3883,-4.3804,-4.3753,-4.36,-4.3497,-4.3497,-4.3497,-4.3497,-4.3497,-4.2873,-4.2066,-4.1277,-4.0451,-3.9643,-3.8836,-3.8707,-3.8707,-3.8707,-3.8707,-3.8707,-3.8707,-3.8707,-3.8707,-3.8707,-3.8719,-3.8792,-3.8979,-3.9064,-3.9101,-3.9147,-3.912,-3.9101,-3.9147,-3.9237,-3.9376,-3.9551,-3.9781,-3.9935,-4.0039,-4.012,-4.0233,-4.0379,-4.0449,-4.0499,0.0,-3.8707,-3.8707,-3.8707,-3.8707,0.0,0.0,0.0,-3.8707,-3.8707,-3.8707,-3.8707,-3.8707,-3.8707,-3.8707,-3.8707,-3.8707,0.0,0.0,0.0,0.0,0.0,0.0,0.0,0.0,0.0,0.0,0.0,0.0,0.0,-4.3497,-4.3497,-4.3497,-4.3497,-4.3497,-4.3497,-4.3497,-4.3497,-4.3497,-4.3497,-4.3497,-4.3497,-4.3497,-4.3497,-4.3497,-4.3497,-4.3497,-4.3497,0.0,-4.3497,-4.3497,-4.3497,-4.3497,-4.3497,-4.3497,-4.3497,-4.3497,-4.3497,-4.3497,-4.3497,-4.3497,-4.3497,-4.3532,-4.3548,-4.3701,-4.3767,-4.3851,-4.3961,-4.3865,-4.3804,-4.3753,-4.36,-4.3497,-4.3497,-4.3497,-4.3497,-4.3497,-4.3112,-4.2433,-4.1332,-4.0708,-3.9992,-3.8891,-3.8707,-3.8707,-3.8707,-3.8707,-3.8707,-3.8707,-3.8707,-3.8707,-3.8707,-3.8707,-3.8719,-3.884,-3.8881,-3.8939,-3.895,-3.8921,-3.8939,-3.895,-3.9036,-3.9156,-3.9272,-3.9477,-3.9623,-3.9739,-3.9918,-4.008,-4.0196,-4.0325,-4.0396,0.0,0.0,0.0,0.0,0.0,0.0,0.0,0.0,0.0,-3.8707,-3.8707,-3.8707,-3.8707,-3.8707,-3.8707,-3.8707,0.0,0.0,0.0,0.0,0.0,0.0,0.0,0.0,0.0,0.0,0.0,0.0,0.0,0.0,-4.3497,-4.3497,-4.3497,-4.3497,-4.3497,-4.3497,-4.3497,-4.3497,-4.3497,-4.3497,-4.3497,-4.3497,-4.3497,-4.3497,-4.3497,0.0,-4.3497,-4.3497,-4.3497,-4.3497,-4.3497,-4.3497,-4.3497,-4.3497,-4.3497,-4.3497,-4.3497,-4.3497,-4.3497,-4.3497,-4.3497,-4.3532,-4.3548,-4.3649,-4.3865,-4.3897,-4.3897,-4.3915,-4.3851,-4.3786,-4.3667,-4.3548,-4.3532,-4.3497,-4.3497,-4.3497,-4.3497,-4.3497,-4.302,-4.1423,-4.1111,-4.0598,-3.8982,-3.8707,-3.8707,-3.8707,-3.8707,-3.8707,-3.8707,-3.8707,-3.8707,-3.8707,-3.8707,-3.8707,-3.8707,-3.875,-3.8822,-3.8881,-3.8822,-3.8822,-3.8881,-3.891,-3.895,-3.9073,-3.9156,-3.9272,-3.9477,-3.9739,-3.9892,-3.9975,-4.01,-4.0214,-3.7716,0.0,-3.8707,-3.8707,-3.8707,0.0,0.0,0.0,0.0,0.0,0.0,0.0,0.0,0.0,0.0,0.0,0.0,0.0,0.0,0.0,0.0,0.0,0.0,0.0,0.0,0.0,0.0,0.0,0.0,-4.3497,-4.3497,-4.3497,-4.3497,-4.3497,-4.3497,-4.3497,-4.3497,-4.3497,-4.3497,-4.3497,-4.3497,-4.3497,-4.3497,-4.3497,-4.3497,-4.3497,-4.3497,-4.3497,-4.3497,-4.3497,-4.3497,-4.3497,-4.3497,-4.3497,-4.3497,-4.3497,-4.3497,-4.3497,-4.3497,-4.3497,-4.3532,-4.3548,-4.3682,-4.3865,-4.3986,-4.4036,-4.3992,-4.4104,-4.4023,-4.3929,-4.3786,-4.3686,-4.3548,-4.3513,-4.3497,-4.3497,-4.3497,-4.3497,-4.302,-4.1423,-4.1111,-4.0598,-3.8982,-3.8707,-3.8707,-3.8707,-3.8707,-3.8707,-3.8707,-3.8707,-3.8707,-3.8707,-3.8707,-3.8707,-3.8707,-3.8719,-3.8719,-3.875,-3.8719,-3.8719,-3.875,-3.8792,-3.8851,-3.8862,-3.8979,-3.9101,-3.929,-3.9427,-3.9551,-3.9623,-3.9851,-4.0019,-3.7386,-3.8083,-3.8707,-3.8707,-3.8707,-3.8707,0.0,0.0,0.0,0.0,0.0,0.0,0.0,0.0,0.0,0.0,0.0,0.0,0.0,0.0,0.0,0.0,0.0,0.0,0.0,0.0,0.0,0.0,0.0,-4.3497,-4.3497,-4.3497,-4.3497,-4.3497,-4.3497,-4.3497,-4.3497,-4.3497,-4.3497,-4.3497,-4.3497,-4.3497,-4.3497,-4.3497,-4.3497,-4.3497,-4.3497,-4.3497,-4.3497,-4.3497,-4.3497,-4.3497,-4.3497,-4.3497,-4.3497,-4.3497,-4.3497,-4.3497,-4.3497,-4.3497,-4.3532,-4.3582,-4.3734,-4.3929,-4.4109,-4.417,-4.4237,-4.4207,-4.4128,-4.4005,-4.3851,-4.3719,-4.3582,-4.3532,-4.3497,-4.3497,-4.3497,-4.3497,-4.302,-4.1423,-4.1111,-4.0598,-3.8982,-3.8707,-3.8707,-3.8707,-3.8707,-3.8707,-3.8707,-3.8707,-3.8707,-3.8707,-3.8707,-3.8707,-3.8707,-3.8707,-3.8707,-3.8707,-3.8707,-3.8707,-3.8707,-3.8719,-3.8732,-3.8732,-3.8851,-3.895,-3.9036,-3.9156,-3.9245,-3.9324,-3.9575,-3.9693,-3.711,-3.7991,-3.8707,-3.8707,-3.8707,-3.8707,0.0,0.0,0.0,0.0,0.0,0.0,0.0,0.0,0.0,0.0,0.0,0.0,0.0,0.0,0.0,0.0,0.0,0.0,0.0,0.0,0.0,0.0,0.0,-4.3497,-4.3497,-4.3497,-4.3497,-4.3497,-4.3497,-4.3497,-4.3497,-4.3497,-4.3497,-4.3497,-4.3497,-4.3497,-4.3497,-4.3497,-4.3497,-4.3497,0.0,0.0,-4.3497,-4.3497,-4.3497,-4.3497,-4.3497,-4.3497,-4.3497,-4.3497,-4.3497,-4.3497,-4.3497,-4.3497,-4.3513,-4.36,-4.3767,-4.3961,-4.4151,-4.4364,-4.4468,-4.4317,-4.421,-4.4109,-4.3883,-4.3753,-4.3615,-4.3513,-4.3497,-4.3497,-4.3497,-4.3497,-4.302,-4.1423,-4.1111,-4.0598,-3.8982,-3.8707,-3.8707,-3.8707,-3.8707,-3.8707,-3.8707,-3.8707,-3.8707,-3.8707,-3.8707,-3.8707,-3.8707,-3.8707,-3.8707,-3.8707,-3.8707,-3.8707,-3.8707,-3.8707,-3.8707,-3.8707,-3.875,-3.8792,-3.8792,-3.891,-3.9007,-3.9045,-3.9264,-3.9376,-3.645,-3.7569,-3.8707,-3.8707,-3.8707,-3.8707,0.0,0.0,0.0,0.0,0.0,0.0,0.0,0.0,0.0,0.0,0.0,0.0,0.0,0.0,0.0,0.0,0.0,0.0,0.0,0.0,0.0,0.0,0.0,-4.3497,-4.3497,-4.3497,-4.3497,-4.3497,-4.3497,-4.3497,-4.3497,-4.3497,-4.3497,-4.3497,-4.3497,-4.3497,-4.3497,-4.3497,-4.3497,-4.3497,0.0,-4.3497,-4.3497,-4.3497,-4.3497,-4.3497,-4.3497,-4.3497,-4.3497,-4.3497,-4.3497,-4.3497,-4.3497,-4.3497,-4.3532,-4.3719,-4.3818,-4.3961,-4.4277,-4.444,-4.4515,-4.4551,-4.4496,-4.4383,-4.4036,-4.3929,-4.38,-4.3566,-4.3497,-4.3497,-4.3497,-4.3497,-4.302,-4.1423,-4.1111,-4.0598,-3.8982,-3.8707,-3.8707,-3.8707,-3.8707,-3.8707,-3.8707,-3.8707,-3.8707,-3.8707,-3.8707,-3.8707,-3.8707,-3.8707,-3.8707,-3.8707,-3.8707,-3.8707,-3.8707,-3.8707,-3.8707,-3.8707,-3.8707,-3.8738,-3.8738,-3.8792,-3.8851,-3.8833,-3.9007,-3.912,-3.6303,-3.7477,-3.8707,-3.8707,-3.8707,-3.8707,-3.8707,0.0,0.0,0.0,0.0,0.0,0.0,0.0,0.0,0.0,0.0,0.0,0.0,0.0,0.0,0.0,0.0,0.0,0.0,0.0,0.0,0.0,0.0,0.0,-4.3497,-4.3497,-4.3497,-4.3497,-4.3497,-4.3497,-4.3497,-4.3497,-4.3497,-4.3497,-4.3497,-4.3497,-4.3497,-4.3497,-4.3497,-4.3497,0.0,-4.3497,-4.3497,-4.3497,-4.3497,-4.3497,-4.3497,-4.3497,-4.3497,-4.3497,-4.3497,-4.3497,-4.3497,-4.3497,-4.3532,-4.3719,-4.3869,-4.3979,-4.4255,-4.4383,-4.444,-4.4542,-4.4496,-4.4383,-4.4067,-4.3929,-4.3786,-4.3566,-4.3497,-4.3497,-4.3497,-4.3497,-4.302,-4.1423,-4.1111,-4.0598,-3.8982,-3.8707,-3.8707,-3.8707,-3.8707,-3.8707,-3.8707,-3.8707,-3.8707,-3.8707,-3.8707,-3.8707,-3.8707,-3.8707,-3.8707,-3.8707,-3.8707,-3.8707,-3.8707,-3.8707,-3.8707,-3.8707,-3.8707,-3.8707,-3.8707,-3.8719,-3.875,-3.875,-3.8851,-3.8892,-3.6303,-3.7477,-3.8707,-3.8707,0.0,-3.8707,-3.8707,0.0,0.0,0.0,0.0,0.0,0.0,0.0,0.0,0.0,0.0,0.0,0.0,0.0,0.0,0.0,0.0,0.0,0.0,0.0,0.0,0.0,0.0,0.0,-4.3497,-4.3497,-4.3497,-4.3497,-4.3497,-4.3497,-4.3497,-4.3497,-4.3497,-4.3497,-4.3497,-4.3497,-4.3497,-4.3497,-4.3497,-4.3497,-4.3497,-4.3497,-4.3497,-4.3497,-4.3497,-4.3497,-4.3497,-4.3497,-4.3497,-4.3497,-4.3497,-4.3497,-4.3497,-4.3497,-4.3532,-4.3686,-4.3786,-4.3865,-4.4135,-4.4237,-4.4296,-4.4354,-4.4325,-4.4237,-4.4036,-4.3897,-4.3753,-4.3566,-4.3497,-4.3497,-4.3497,-4.3497,-4.302,-4.1423,-4.1111,-4.0598,-3.8982,-3.8707,-3.8707,-3.8707,-3.8707,-3.8707,-3.8707,-3.8707,-3.8707,-3.8707,-3.8707,-3.8707,-3.8707,-3.8707,-3.8707,-3.8707,-3.8707,-3.8707,-3.8707,-3.8707,-3.8707,-3.8707,-3.8707,-3.8707,-3.8707,-3.8707,-3.8707,-3.8707,-3.875,-3.8762,-3.6303,-3.7477,-3.8707,-3.8707,0.0,0.0,-3.8707,0.0,0.0,0.0,0.0,0.0,0.0,0.0,0.0,0.0,0.0,0.0,0.0,0.0,0.0,0.0,0.0,0.0,0.0,0.0,0.0,0.0,0.0,0.0,-4.3497,-4.3497,-4.3497,-4.3497,-4.3497,-4.3497,-4.3497,-4.3497,-4.3497,-4.3497,-4.3497,-4.3497,-4.3497,-4.3497,-4.3497,-4.3497,-4.3497,-4.3497,-4.3497,-4.3497,-4.3497,-4.3497,-4.3497,-4.3497,-4.3497,-4.3497,-4.3497,-4.3497,-4.3497,-4.3497,-4.3513,-4.3582,-4.3615,-4.3649,-4.3865,-4.3929,-4.3961,-4.4005,-4.3992,-4.3961,-4.3974,-4.3961,-4.3832,-4.3548,-4.3497,-4.3497,-4.3497,-4.3497,-4.302,-4.1423,-4.1111,-4.0598,-3.8982,-3.8707,-3.8707,-3.8707,-3.8707,-3.8707,-3.8707,-3.8707,-3.8707,-3.8707,-3.8707,-3.8707,-3.8707,-3.8707,-3.8707,-3.8707,-3.8707,-3.8707,-3.8707,-3.8707,-3.8707,-3.8707,-3.8707,-3.8707,-3.8707,-3.8707,-3.8707,-3.8707,-3.8707,-3.8707,-3.6303,-3.7477,-3.8707,-3.8707,0.0,0.0,0.0,0.0,0.0,0.0,0.0,0.0,0.0,0.0,0.0,0.0,0.0,0.0,0.0,0.0,0.0,0.0,0.0,0.0,0.0,0.0,0.0,0.0,0.0,0.0,-4.3461,-4.3497,-4.3497,-4.3497,-4.3497,-4.3497,-4.3497,-4.3497,-4.3497,-4.3497,-4.3497,-4.3497,-4.3497,-4.3497,-4.3497,-4.3497,-4.3497,-4.3497,-4.3497,-4.3497,-4.3497,-4.3497,-4.3497,-4.3497,-4.3497,-4.3497,-4.3497,-4.3497,-4.3497,-4.3497,-4.3532,-4.3582,-4.3582,-4.3615,-4.3786,-4.3837,-4.3851,-4.3883,-4.3851,-4.3851,-4.3883,-4.38,-4.3701,-4.3513,-4.3497,-4.3497,-4.3497,-4.3497,-4.302,-4.1423,-4.1111,-4.0598,-3.8982,-3.8707,-3.8707,-3.8707,-3.8707,-3.8707,-3.8707,-3.8707,-3.8707,-3.8707,-3.8707,-3.8707,-3.8707,-3.8707,-3.8707,-3.8707,-3.8707,-3.8707,-3.8707,-3.8707,-3.8707,-3.8707,-3.8707,-3.8707,-3.8707,-3.8707,-3.8707,-3.8707,-3.8707,-3.8707,-3.6303,-3.7477,-3.8707,0.0,0.0,0.0,0.0,0.0,0.0,0.0,0.0,0.0,0.0,0.0,0.0,0.0,0.0,0.0,0.0,0.0,0.0,0.0,0.0,0.0,0.0,0.0,0.0,0.0,0.0,0.0,0.0,-4.3351,-4.3497,-4.3497,-4.3497,-4.3497,-4.3497,-4.3497,-4.3497,-4.3497,-4.3497,-4.3497,-4.3497,-4.3497,-4.3497,-4.3497,-4.3497,-4.3497,-4.3497,-4.3497,-4.3497,-4.3497,-4.3497,-4.3497,-4.3497,-4.3497,-4.3497,-4.3497,-4.3497,-4.3497,-4.3532,-4.3548,-4.3548,-4.36,-4.3686,-4.3686,-4.3686,-4.3686,-4.3686,-4.3686,-4.3686,-4.3634,-4.3582,-4.3532,-4.3497,-4.3497,-4.3497,-4.3296,-4.2708,-4.1368,-4.0891,-4.0304,-3.8927,-3.8707,-3.8707,-3.8707,-3.8707,-3.8707,-3.8707,-3.8707,-3.8707,-3.8707,-3.8707,-3.8707,-3.8707,-3.8707,-3.8707,-3.8707,-3.8707,-3.8707,-3.8707,-3.8707,-3.8707,-3.8707,-3.8707,-3.8707,-3.8707,-3.8707,-3.8707,-3.8707,-3.8707,-3.8707,-3.6303,-3.7477,0.0,0.0,0.0,0.0,0.0,0.0,0.0,0.0,0.0,0.0,0.0,0.0,0.0,0.0,0.0,0.0,0.0,0.0,0.0,0.0,0.0,0.0,0.0,0.0,0.0,0.0,0.0,0.0,0.0,-4.3039,-4.3479,-4.3479,-4.3497,-4.3497,-4.3497,-4.3497,-4.3497,-4.3497,-4.3497,-4.3497,-4.3497,-4.3497,-4.3497,-4.3497,-4.3497,-4.3497,-4.3497,-4.3497,-4.3497,-4.3497,-4.3497,-4.3497,-4.3497,-4.3497,-4.3497,-4.3497,-4.3497,-4.3497,-4.3497,-4.3497,-4.3497,-4.3497,-4.3497,-4.3497,-4.3497,-4.3497,-4.3497,-4.3497,-4.3497,-4.3548,-4.3582,-4.3532,-4.3497,-4.3497,-4.3497,-4.2873,-4.2066,-4.1277,-4.0451,-3.9643,-3.8836,-3.8707,-3.8707,-3.8707,-3.8707,-3.8707,-3.8707,-3.8707,-3.8707,-3.8707,-3.8707,-3.8707,-3.8707,-3.8707,-3.8707,-3.8707,-3.8707,-3.8707,-3.8707,-3.8707,-3.8707,-3.8707,-3.8707,-3.8707,-3.8707,-3.8707,-3.8707,-3.8707,-3.8707,-3.8707,-3.6303,-3.7477,0.0,0.0,0.0,0.0,0.0,0.0,0.0,0.0,0.0,0.0,0.0,0.0,0.0,0.0,0.0,0.0,0.0,0.0,0.0,0.0,0.0,0.0,0.0,0.0,0.0,0.0,0.0,0.0,-4.1442,-4.2213,-4.2653,-4.2653,-4.3185,-4.3497,-4.3497,-4.3497,-4.3497,-4.3497,-4.3497,-4.3497,-4.3497,-4.3497,-4.3497,-4.3497,-4.3497,-4.3497,-4.3497,-4.3497,-4.3497,-4.3497,-4.3497,-4.3497,-4.3497,-4.3497,-4.3497,-4.3497,-4.3497,-4.3497,-4.3497,-4.3497,-4.3497,-4.3497,-4.3497,-4.3497,-4.3497,-4.3497,-4.3497,-4.3497,-4.3497,-4.3513,-4.3513,-4.3479,-4.3497,-4.3497,-4.3497,-4.2873,-4.2066,-4.1277,-4.0451,-3.9643,-3.8836,-3.8707,-3.8707,-3.8707,-3.8707,-3.8707,-3.8707,-3.8707,-3.8707,-3.8707,-3.8707,-3.8707,-3.8707,-3.8707,-3.8707,-3.8707,-3.8707,-3.8707,-3.8707,-3.8707,-3.8707,-3.8707,-3.8707,-3.8707,-3.8707,-3.8707,-3.8707,-3.8707,-3.8707,-3.8707,-3.6688,0.0,0.0,0.0,0.0,0.0,0.0,0.0,0.0,0.0,0.0,0.0,0.0,0.0,0.0,0.0,0.0,0.0,0.0,0.0,0.0,0.0,0.0,0.0,0.0,0.0,0.0,0.0,0.0,-4.0102,-4.0598,-4.1387,-4.1974,-4.2286,-4.2763,-4.3167,-4.3497,-4.3497,-4.3497,-4.3497,-4.3497,-4.3497,-4.3497,-4.3497,-4.3497,-4.3497,-4.3497,-4.3497,-4.3497,-4.3497,-4.3497,-4.3497,-4.3497,-4.3497,-4.3497,-4.3497,-4.3497,-4.3497,-4.3497,-4.3497,-4.3497,-4.3497,-4.3497,-4.3497,-4.3497,-4.3497,-4.3497,-4.3497,-4.3497,-4.3497,-4.3497,-4.3497,-4.3497,-4.3497,-4.3497,-4.3406,-4.3075,-4.2396,-4.1589,-4.0781,-3.9974,-3.9276,-3.8781,-3.8707,-3.8707,-3.8707,-3.8707,-3.8707,-3.8707,-3.8707,-3.8707,-3.8707,-3.8707,-3.8707,-3.8707,-3.8707,-3.8707,-3.8707,-3.8707,-3.8707,-3.8707,-3.8707,-3.8707,-3.8707,-3.8707,-3.8707,-3.8707,-3.8707,-3.8707,-3.8707,-3.8707,-3.8707,0.0,0.0,0.0,0.0,0.0,0.0,0.0,0.0,0.0,0.0,0.0,0.0,0.0,0.0,0.0,0.0,0.0,0.0,0.0,0.0,0.0,0.0,0.0,0.0,0.0,0.0,0.0,0.0,-3.9386,-3.979,-3.979,-4.0561,-4.1332,-4.2066,-4.2158,-4.258,-4.3369,-4.3387,-4.3424,-4.3497,-4.3497,-4.3497,-4.3497,-4.3497,-4.3497,-4.3497,-4.3497,-4.3497,-4.3497,-4.3497,-4.3497,-4.3497,-4.3497,-4.3497,-4.3497,-4.3497,-4.3497,-4.3497,-4.3497,-4.3497,-4.3497,-4.3497,-4.3497,-4.3497,-4.3497,-4.3497,-4.3497,-4.3497,-4.3497,-4.3461,-4.3406,-4.3387,-4.3369,-4.3296,-4.3332,-4.3185,-4.2451,-4.1625,-4.0781,-4.0029,-3.9239,-3.8707,-3.8707,-3.8707,-3.8707,-3.8707,-3.8707,-3.8707,-3.8707,-3.8707,-3.8707,-3.8707,-3.8707,-3.8707,-3.8707,-3.8707,-3.8707,-3.8707,-3.8707,-3.8707,-3.8707,-3.8707,-3.8707,-3.8707,-3.8707,-3.8707,-3.8707,-3.8707,-3.8707,-3.8707,-3.8707,-3.8707,0.0,0.0,0.0,0.0,0.0,0.0,0.0,0.0,0.0,0.0,0.0,0.0,0.0,0.0,0.0,0.0,0.0,0.0,0.0,0.0,0.0,0.0,0.0,0.0,0.0,0.0,0.0,-3.8707,-3.8854,-3.8964,-3.8964,-3.9717,-4.023,-4.0396,-4.1038,-4.1754,-4.2543,-4.2561,-4.2873,-4.3497,-4.3497,-4.3497,-4.3497,-4.3497,-4.3497,-4.3497,-4.3497,-4.3497,-4.3497,-4.3497,-4.3497,-4.3497,-4.3497,-4.3497,-4.3497,-4.3497,-4.3497,-4.3497,-4.3497,-4.3497,-4.3497,-4.3497,-4.3497,-4.3497,-4.3497,-4.3497,-4.3497,-4.3497,-4.3497,-4.3332,-4.2708,-4.2561,-4.2396,-4.1772,-4.2103,-4.2506,-4.2341,-4.1167,-4.0102,-3.9918,-3.9239,-3.8707,-3.8707,-3.8707,-3.8707,-3.8707,-3.8707,-3.8707,-3.8707,-3.8707,-3.8707,-3.8707,-3.8707,-3.8707,-3.8707,-3.8707,-3.8707,-3.8707,-3.8707,-3.8707,-3.8707,-3.8707,-3.8707,-3.8707,-3.8707,-3.8707,-3.8707,-3.8707,-3.8707,-3.8707,-3.8707,-3.8707,0.0,0.0,0.0,0.0,0.0,0.0,0.0,0.0,0.0,0.0,0.0,0.0,0.0,0.0,0.0,0.0,0.0,0.0,0.0,0.0,0.0,0.0,0.0,0.0,0.0,0.0,0.0,-3.8707,-3.8707,-3.8707,-3.8707,-3.9093,-3.9496,-3.9882,-4.0304,-4.091,-4.1735,-4.1735,-4.1937,-4.2359,-4.2745,-4.313,-4.3497,-4.3497,-4.3497,-4.3497,-4.3497,-4.3497,-4.3497,-4.3497,-4.3497,-4.3497,-4.3497,-4.3497,-4.3497,-4.3497,-4.3497,-4.3497,-4.3497,-4.3497,-4.3497,-4.3497,-4.3497,-4.3497,-4.3497,-4.3222,-4.2928,-4.2928,-4.2653,-4.2249,-4.1827,-4.1735,-4.1625,-4.1203,-4.1423,-4.1625,-4.1222,-4.0487,-3.979,-3.9405,-3.9001,-3.8707,-3.8707,-3.8707,-3.8707,-3.8707,-3.8707,-3.8707,-3.8707,-3.8707,-3.8707,-3.8707,-3.8707,-3.8707,-3.8707,-3.8707,-3.8707,-3.8707,-3.8707,-3.8707,-3.8707,-3.8707,-3.8707,-3.8707,-3.8707,-3.8707,-3.8707,-3.8707,-3.8707,-3.8707,-3.8707,-3.8707,0.0,0.0,0.0,0.0,0.0,0.0,0.0,0.0,0.0,0.0,0.0,0.0,0.0,0.0,0.0,0.0,0.0,0.0,0.0,0.0,0.0,0.0,0.0,0.0,0.0,0.0,-3.8707,-3.8707,-3.8707,-3.8707,-3.8707,-3.8707,-3.9019,-3.9662,-3.968,-4.0084,-4.0891,-4.0891,-4.0965,-4.113,-4.1772,-4.2433,-4.3075,-4.3075,-4.3222,-4.3497,-4.3497,-4.3497,-4.3497,-4.3497,-4.3497,-4.3497,-4.3497,-4.3497,-4.3497,-4.3497,-4.3497,-4.3497,-4.3497,-4.3406,-4.3277,-4.3277,-4.3185,-4.3075,-4.3075,-4.2616,-4.2084,-4.2084,-4.1625,-4.1075,-4.0946,-4.0891,-4.0873,-4.0726,-4.0708,-4.0543,-4.001,-3.979,-3.9496,-3.8836,-3.8707,-3.8707,-3.8707,-3.8707,-3.8707,-3.8707,-3.8707,-3.8707,-3.8707,-3.8707,-3.8707,-3.8707,-3.8707,-3.8707,-3.8707,-3.8707,-3.8707,-3.8707,-3.8707,-3.8707,-3.8707,-3.8707,-3.8707,-3.8707,-3.8707,-3.8707,-3.8707,-3.8707,-3.8707,-3.8707,-3.8707,-3.8707,0.0,0.0,0.0,0.0,0.0,0.0,0.0,0.0,0.0,0.0,0.0,0.0,0.0,0.0,0.0,0.0,0.0,0.0,0.0,0.0,0.0,0.0,0.0,0.0,0.0,0.0,-3.8707,-3.8707,-3.8707,-3.8707,-3.8707,-3.8707,-3.8762,-3.8854,-3.8854,-3.9258,-4.0047,-4.0065,-4.0414,-4.1111,-4.1222,-4.1332,-4.1423,-4.1423,-4.2176,-4.3497,-4.3497,-4.3497,-4.3497,-4.3497,-4.3497,-4.3497,-4.3497,-4.3497,-4.3497,-4.3497,-4.3497,-4.3497,-4.3497,-4.3039,-4.2451,-4.2451,-4.1992,-4.1423,-4.1423,-4.1368,-4.1277,-4.1277,-4.1185,-4.0946,-4.023,-4.0065,-3.9882,-3.9203,-3.9019,-3.9184,-3.9772,-3.935,-3.8836,-3.8726,-3.8707,-3.8707,-3.8707,-3.8707,-3.8707,-3.8707,-3.8707,-3.8707,-3.8707,-3.8707,-3.8707,-3.8707,-3.8707,-3.8707,-3.8707,-3.8707,-3.8707,-3.8707,-3.8707,-3.8707,-3.8707,-3.8707,-3.8707,-3.8707,-3.8707,-3.8707,-3.8707,-3.8707,-3.8707,-3.8707,-3.8707,-3.8707,0.0,0.0,0.0,0.0,0.0,0.0,0.0,0.0,0.0,0.0,0.0,0.0,0.0,0.0,0.0,0.0,0.0,0.0,0.0,0.0,0.0,0.0,0.0,0.0,0.0,0.0,-3.8707,-3.8707,-3.8707,-3.8707,-3.8707,-3.8707,-3.8707,-3.8707,-3.8707,-3.8872,-3.9221,-3.9239,-3.9625,-4.0432,-4.0432,-4.0671,-4.1111,-4.1111,-4.1497,-4.2158,-4.2158,-4.2158,-4.2158,-4.2158,-4.2158,-4.2158,-4.2158,-4.2158,-4.2158,-4.2158,-4.2158,-4.2158,-4.2158,-4.1919,-4.1644,-4.1644,-4.1405,-4.1111,-4.1111,-4.0799,-4.0432,-4.0432,-4.0102,-3.968,-3.9313,-3.9239,-3.9148,-3.8781,-3.8707,-3.8799,-3.9148,-3.8946,-3.8707,-3.8707,-3.8707,-3.8707,-3.8707,-3.8707,-3.8707,-3.8707,-3.8707,-3.8707,-3.8707,-3.8707,-3.8707,-3.8707,-3.8707,-3.8707,-3.8707,-3.8707,-3.8707,-3.8707,-3.8707,-3.8707,-3.8707,-3.8707,-3.8707,-3.8707,-3.8707,-3.8707,-3.8707,-3.8707,-3.8707,-3.8707,-3.8707,-3.8707,0.0,0.0,0.0,0.0,0.0,0.0,0.0,0.0,0.0,0.0,0.0,0.0,0.0,0.0,0.0,0.0,0.0,0.0,0.0,0.0,0.0,0.0,0.0,0.0,0.0,0.0,-3.8707,-3.8707,-3.8707,-3.8707,-3.8707,-3.8707,-3.8707,-3.8707,-3.8707,-3.8707,-3.8707,-3.8707,-3.9001,-3.9588,-3.9588,-3.9918,-4.0506,-4.0506,-4.0506,-4.0524,-4.0928,-4.1111,-4.1111,-4.1111,-4.1111,-4.1111,-4.1111,-4.1111,-4.1111,-4.1111,-4.1111,-4.1111,-4.1111,-4.0983,-4.0799,-4.0799,-4.0671,-4.0506,-4.0506,-4.0084,-3.9588,-3.9588,-3.9166,-3.8707,-3.8707,-3.8707,-3.8707,-3.8707,-3.8707,-3.8707,-3.8707,-3.8707,-3.8707,-3.8707,-3.8707,-3.8707,-3.8707,-3.8707,-3.8707,-3.8707,-3.8707,-3.8707,-3.8707,-3.8891,-3.9001,-3.9001,-3.9203,-3.9313,-3.9313,-3.9129,-3.9001,-3.9001,-3.8817,-3.8707,-3.8707,-3.8707,-3.8707,-3.8707,-3.8707,-3.8707,-3.8707,-3.8707,-3.8707,-3.8707,-3.8707,-3.8707,0.0,0.0,0.0,0.0,0.0,0.0,0.0,0.0,0.0,0.0,0.0,0.0,0.0,0.0,0.0,0.0,0.0,0.0,0.0,0.0,0.0,0.0,0.0,0.0,0.0,0.0,-3.8707,-3.8707,-3.8707,-3.8707,-3.8707,-3.8707,-3.8707,-3.8707,-3.8707,-3.8707,-3.8707,-3.8707,-3.8726,-3.8762,-3.8762,-3.8781,-3.8836,-3.8836,-3.8836,-3.8909,-4.0451,-4.1111,-4.1111,-4.1111,-4.1111,-4.1111,-4.1111,-4.1111,-4.1111,-4.1111,-4.1111,-4.1111,-4.1111,-4.0598,-3.9955,-3.9955,-3.9441,-3.8836,-3.8836,-3.8799,-3.8762,-3.8762,-3.8726,-3.8707,-3.8707,-3.8707,-3.8707,-3.8707,-3.8707,-3.8707,-3.8707,-3.8707,-3.8707,-3.8707,-3.8707,-3.8707,-3.8707,-3.8707,-3.8707,-3.8707,-3.8707,-3.8707,-3.8707,-3.9368,-3.9827,-3.9827,-4.0524,-4.0983,-4.0983,-4.0286,-3.9827,-3.9827,-3.9129,-3.8707,-3.8707,-3.8707,-3.8707,-3.8707,-3.8707,-3.8707,-3.8707,-3.8707,-3.8707,-3.8707,-3.8707,-3.8707,0.0,0.0,0.0,0.0,0.0,0.0,0.0,0.0,0.0,0.0,0.0,0.0,0.0,0.0,0.0,0.0,0.0,0.0,0.0,0.0,0.0,0.0,0.0,0.0,0.0,0.0,0.0,-3.8707,-3.8707,-3.8707,-3.8707,-3.8707,-3.8707,-3.8707,-3.8707,-3.8707,-3.8707,-3.8707,-3.8707,-3.8707,-3.8707,-3.8707,-3.8707,-3.8707,-3.8707,-3.8726,-3.9313,-3.957,-3.957,-3.957,-3.957,-3.957,-3.957,-3.957,-3.957,-3.957,-3.957,-3.957,-3.957,-3.9368,-3.9129,-3.9129,-3.8927,-3.8707,-3.8707,-3.8707,-3.8707,-3.8707,-3.8707,-3.8707,-3.8707,-3.8707,-3.8707,-3.8707,-3.8707,-3.8707,-3.8707,-3.8707,-3.8707,-3.8707,-3.8707,-3.8707,-3.8707,-3.8707,-3.8707,-3.8707,-3.8707,-3.8707,-3.8707,-3.9405,-3.99,-3.99,-4.0616,-4.1111,-4.1111,-4.0855,-4.0671,-4.0671,-3.9918,-3.946,-3.946,-3.8964,-3.8707,-3.8707,-3.8707,-3.8707,-3.8707,-3.8707,-3.8707,-3.8707,-3.8707,-3.8707,0.0,0.0,0.0,0.0,0.0,0.0,0.0,0.0,0.0,0.0,0.0,0.0,0.0,0.0,0.0,0.0,0.0,0.0,0.0,0.0,0.0,0.0,0.0,0.0,0.0,0.0,0.0,-3.8707,-3.8707,0.0,-3.8707,-3.8707,-3.8707,-3.8707,-3.8707,-3.8707,-3.8707,-3.8707,-3.8707,-3.8707,-3.8707,-3.8707,-3.8707,-3.8707,-3.8707,-3.8707,-3.8707,-3.8707,-3.8707,-3.8707,-3.8707,-3.8707,-3.8707,-3.8707,-3.8707,-3.8707,-3.8707,-3.8707,-3.8707,-3.8707,-3.8707,-3.8707,-3.8707,-3.8707,-3.8707,-3.8707,-3.8707,-3.8707,-3.8707,-3.8707,-3.8707,-3.8707,-3.8707,-3.8707,-3.8707,-3.8707,-3.8707,-3.8707,-3.8707,-3.8707,-3.8707,-3.8707,-3.8707,-3.8707,-3.8707,-3.8707,-3.8707,-3.8707,-3.8707,-3.9405,-3.9992,-4.0267,-4.102,-4.1625,-4.1882,-4.1662,-4.1515,-4.1515,-4.0744,-4.0175,-3.99,-3.9386,-3.8982,-3.8707,-3.8707,-3.8707,-3.8707,-3.8707,-3.8707,-3.8707,-3.8707,-3.8707,0.0,0.0,0.0,0.0,0.0,0.0,0.0,0.0,0.0,0.0,0.0,0.0,0.0,0.0,0.0,0.0,0.0,0.0,0.0,0.0,0.0,0.0,0.0,0.0,0.0,0.0,-3.8707,-3.8707,-3.8707,-3.8707,-3.8707,-3.8707,-3.8707,-3.8707,-3.8707,-3.8707,-3.8707,-3.8707,-3.8707,-3.8707,-3.8707,-3.8707,-3.8707,-3.8707,-3.8707,-3.8707,-3.8707,-3.8707,-3.8707,-3.8707,-3.8707,-3.8707,-3.8707,-3.8707,-3.8707,-3.8707,-3.8707,-3.8707,-3.8707,-3.8707,-3.8707,-3.8707,-3.8707,-3.8707,-3.8707,-3.8707,-3.8707,-3.8707,-3.8707,-3.8707,-3.8707,-3.8707,-3.8707,-3.8707,-3.8707,-3.8707,-3.8707,-3.8707,-3.8707,-3.8707,-3.8707,-3.8707,-3.8707,-3.8707,-3.8707,-3.8707,-3.8707,-3.8707,-3.8707,-3.9405,-4.0194,-4.0983,-4.1809,-4.2616,-4.3387,-4.2763,-4.2341,-4.2341,-4.1589,-4.0799,-3.9992,-3.9918,-3.9533,-3.8762,-3.8707,-3.8707,-3.8707,-3.8707,-3.8707,-3.8707,-3.8707,-3.8707,-3.8707,0.0,0.0,0.0,0.0,0.0,0.0,0.0,0.0,0.0,0.0,0.0,0.0,0.0,0.0,0.0,0.0,0.0,0.0,0.0,0.0,0.0,0.0,0.0,0.0,0.0,-3.8707,0.0,-3.8707,-3.8707,-3.8707,-3.8707,-3.8707,-3.8707,-3.8707,-3.8707,-3.8707,-3.8707,-3.8707,-3.8707,-3.8707,-3.8707,-3.8707,-3.8707,-3.8707,-3.8707,-3.8707,-3.8707,-3.8707,-3.8707,-3.8707,-3.8707,-3.8707,-3.8707,-3.8707,-3.8707,-3.8707,-3.8707,-3.8707,-3.8707,-3.8707,-3.8707,-3.8707,-3.8707,-3.8707,-3.8707,-3.8707,-3.8707,-3.8707,-3.8707,-3.8707,-3.8707,-3.8707,-3.8707,-3.8707,-3.8707,-3.8707,-3.8707,-3.8707,-3.8707,-3.8707,-3.8707,-3.8707,-3.8707,-3.8707,-3.8707,-3.8707,-3.8707,-3.8707,-3.9405,-3.9992,-4.0212,-4.1479,-4.2396,-4.2598,-4.2947,-4.3167,-4.3167,-4.2415,-4.1882,-4.1644,-4.0506,-3.979,-3.957,-3.9001,-3.8707,-3.8707,-3.8707,-3.8707,-3.8707,-3.8707,-3.8707,0.0,0.0,0.0,0.0,0.0,0.0,-3.8707,-3.8707,-3.8707,0.0,0.0,0.0,0.0,0.0,0.0,0.0,0.0,0.0,0.0,0.0,0.0,0.0,0.0,0.0,0.0,-3.8707,-3.8707,-3.8707,-3.8707,-3.8707,-3.8707,-3.8707,-3.8707,-3.8707,-3.8707,-3.8707,-3.8707,-3.8707,-3.8707,-3.8707,-3.8707,-3.8707,-3.8707,-3.8707,-3.8707,-3.8707,-3.8707,-3.8707,-3.8707,-3.8707,-3.8707,-3.8707,-3.8707,-3.8707,-3.8707,-3.8707,-3.8707,-3.8707,-3.8707,-3.8707,-3.8707,-3.8707,-3.8707,-3.8707,-3.8707,-3.8707,-3.8707,-3.8707,-3.8707,-3.8707,-3.8707,-3.8707,-3.8707,-3.8707,-3.8707,-3.8707,-3.8707,-3.8707,-3.8707,-3.8707,-3.8707,-3.8707,-3.8707,-3.8707,-3.8707,-3.8707,-3.8707,-3.8707,-3.8707,-3.9111,-3.9533,-3.9845,-4.0726,-4.157,-4.2249,-4.2727,-4.313,-4.3461,-4.3057,-4.2653,-4.2304,-4.1405,-4.0744,-4.0414,-3.9606,-3.9038,-3.8707,-3.8707,-3.8707,-3.8707,-3.8707,-3.8707,0.0,0.0,0.0,0.0,0.0,0.0,-3.8707,-3.8707,-3.8707,-3.8707,0.0,0.0,0.0,0.0,0.0,0.0,0.0,0.0,0.0,0.0,0.0,0.0,0.0,0.0,-3.8707,-3.8707,-3.8707,-3.8707,-3.8707,-3.8707,-3.8707,-3.8707,-3.8707,-3.8707,-3.8707,-3.8707,-3.8707,-3.8707,-3.8707,-3.8707,-3.8707,-3.8707,-3.8707,-3.8707,-3.8707,-3.8707,-3.8707,-3.8707,-3.8707,-3.8707,-3.8707,-3.8707,-3.8707,-3.8707,-3.8707,-3.8707,-3.8707,-3.8707,-3.8707,-3.8707,-3.8707,-3.8707,-3.8707,-3.8707,-3.8707,-3.8707,-3.8707,-3.8707,-3.8707,-3.8707,-3.8707,-3.8707,-3.8707,-3.8707,-3.8707,-3.8707,-3.8707,-3.8707,-3.8707,-3.8707,-3.8707,-3.8707,-3.8707,-3.8707,-3.8707,-3.8707,-3.8707,-3.8707,-3.8707,-3.8707,-3.8964,-3.968,-3.9845,-4.0469,-4.1901,-4.2194,-4.2598,-4.3314,-4.3442,-4.3167,-4.2451,-4.2359,-4.1974,-4.1258,-4.0359,-3.9551,-3.8836,-3.8744,-3.8707,-3.8707,-3.8707,-3.8707,0.0,0.0,0.0,0.0,0.0,0.0,-3.8707,-3.8707,-3.8707,0.0,0.0,0.0,0.0,0.0,0.0,0.0,0.0,0.0,0.0,0.0,0.0,0.0,0.0,0.0,-3.8707,-3.8707,-3.8707,-3.8707,-3.8707,-3.8707,-3.8707,-3.8707,-3.8707,-3.8707,-3.8707,-3.8707,-3.8707,-3.8707,-3.8707,-3.8707,-3.8707,-3.8707,-3.8707,-3.8707,-3.8707,-3.8707,-3.8707,-3.8707,-3.8707,-3.8707,-3.8707,-3.8707,-3.8707,-3.8707,-3.8707,-3.8707,-3.8707,-3.8707,-3.8707,-3.8707,-3.8707,-3.8707,-3.8707,-3.8707,-3.8707,-3.8707,-3.8707,-3.8707,-3.8707,-3.8707,-3.8707,-3.8707,-3.8707,-3.8707,-3.8707,-3.8707,-3.8707,-3.8707,-3.8707,-3.8707,-3.8707,-3.8707,-3.8707,-3.8707,-3.8707,-3.8707,-3.8707,-3.8707,-3.8707,-3.8707,-3.8762,-3.8927,-3.9515,-4.0029,-4.0341,-4.1552,-4.2378,-4.2525,-4.313,-4.3424,-4.3259,-4.2635,-4.2231,-4.2066,-4.0634,-3.9808,-3.9662,-3.9019,-3.8707,-3.8707,-3.8707,-3.8707,0.0,0.0,0.0,-3.8658,0.0,0.0,0.0,-3.8707,-3.8707,-3.8707,0.0,0.0,0.0,0.0,0.0,0.0,0.0,0.0,0.0,0.0,0.0,0.0,0.0,0.0,-3.8707,-3.8707,-3.8707,-3.8707,-3.8707,-3.8707,-3.8707,-3.8707,-3.8707,-3.8707,-3.8707,-3.8707,-3.8707,-3.8707,-3.8707,-3.8707,-3.8707,-3.8707,-3.8707,-3.8707,-3.8707,-3.8707,-3.8707,-3.8707,-3.8707,-3.8707,-3.8707,-3.8707,-3.8707,-3.8707,-3.8707,-3.8707,-3.8707,-3.8707,-3.8707,-3.8707,-3.8707,-3.8707,-3.8707,-3.8707,-3.8707,-3.8707,-3.8707,-3.8707,-3.8707,-3.8707,-3.8707,-3.8707,-3.8707,-3.8707,-3.8707,-3.8707,-3.8707,-3.8707,-3.8707,-3.8707,-3.8707,-3.8707,-3.8707,-3.8707,-3.8707,-3.8707,-3.8707,-3.8707,-3.8707,-3.8707,-3.8707,-3.8707,-3.9056,-3.946,-3.9863,-4.0634,-4.1442,-4.2249,-4.2671,-4.3075,-4.3461,-4.3112,-4.2708,-4.2304,-4.1515,-4.0689,-3.99,-3.9528,-3.9136,-3.875,-3.884,-3.8851,0.0,0.0,0.0,0.0,0.0,-3.8658,0.0,0.0,0.0,0.0,0.0,0.0,0.0,0.0,0.0,0.0,0.0,0.0,0.0,0.0,0.0,0.0,0.0,0.0,-3.8707,-3.8707,-3.8707,-3.8707,-3.8707,-3.8707,-3.8707,-3.8707,-3.8707,-3.8707,-3.8707,-3.8707,-3.8707,-3.8707,-3.8707,-3.8707,-3.8707,-3.8707,-3.8707,-3.8707,-3.8707,-3.8707,-3.8707,-3.8707,-3.8707,-3.8707,-3.8707,-3.8707,-3.8707,-3.8707,-3.8707,-3.8707,-3.8707,-3.8707,-3.8707,-3.8707,-3.8707,-3.8707,-3.8707,-3.8707,-3.8707,-3.8707,-3.8707,-3.8707,-3.8707,-3.8707,-3.8707,-3.8707,-3.8707,-3.8707,-3.8707,-3.8707,-3.8707,-3.8707,-3.8707,-3.8707,-3.8707,-3.8707,-3.8707,-3.8707,-3.8707,-3.8707,-3.8707,-3.8707,-3.8707,-3.8707,-3.8707,-3.8707,-3.8707,-3.8964,-3.9606,-3.9808,-4.0524,-4.1992,-4.2213,-4.2653,-4.3461,-4.3497,-4.3185,-4.2543,-4.2378,-4.1589,-4.0152,-4.0081,-3.9614,-3.8822,-3.895,-3.9036,0.0,0.0,0.0,0.0,-3.8433,0.0,0.0,0.0,-3.8707,-3.8707,0.0,0.0,0.0,0.0,0.0,0.0,0.0,0.0,0.0,0.0,0.0,0.0,0.0,0.0,0.0,-3.8707,-3.8707,-3.8707,-3.8707,-3.8707,-3.8707,-3.8707,-3.8707,-3.8707,-3.8707,-3.8707,-3.8707,-3.8707,-3.8707,-3.8707,-3.8707,-3.8707,-3.8707,-3.8707,-3.8707,-3.8707,-3.8707,-3.8707,-3.8707,-3.8707,-3.8707,-3.8707,-3.8707,-3.8707,-3.8707,-3.8707,-3.8707,-3.8707,-3.8707,-3.8707,-3.8707,-3.8707,-3.8707,-3.8707,-3.8707,-3.8707,-3.8707,-3.8707,-3.8707,-3.8707,-3.8707,-3.8707,-3.8707,-3.8707,-3.8707,-3.8707,-3.8707,-3.8707,-3.8707,-3.8707,-3.8707,-3.8707,-3.8707,-3.8707,-3.8707,-3.8707,-3.8707,-3.8707,-3.8707,-3.8707,-3.8707,-3.8707,-3.8707,-3.8744,-3.8836,-3.9478,-4.0286,-4.1185,-4.1919,-4.2653,-4.3461,-4.3497,-4.3442,-4.3369,-4.2653,-4.1879,-4.1043,-4.0461,-3.9745,-3.8892,-3.9036,-3.9129,0.0,0.0,0.0,0.0,0.0,0.0,-3.851,0.0,-3.8707,0.0,0.0,0.0,0.0,0.0,0.0,0.0,-3.8707,0.0,0.0,0.0,0.0,0.0,0.0,0.0,-3.8707,0.0,-3.8707,-3.8707,-3.8707,-3.8707,-3.8707,-3.8707,-3.8707,-3.8707,-3.8707,-3.8707,-3.8707,-3.8707,-3.8707,-3.8707,-3.8707,-3.8707,-3.8707,-3.8707,-3.8707,-3.8707,-3.8707,-3.8707,-3.8707,-3.8707,-3.8707,-3.8707,-3.8707,-3.8707,-3.8707,-3.8707,-3.8707,-3.8707,-3.8707,-3.8707,-3.8707,-3.8707,-3.8707,-3.8707,-3.8707,-3.8707,-3.8707,-3.8707,-3.8707,-3.8707,-3.8707,-3.8707,-3.8707,-3.8707,-3.8707,-3.8707,-3.8707,-3.8707,-3.8707,-3.8707,-3.8707,-3.8707,-3.8707,-3.8707,-3.8707,-3.8707,-3.8707,-3.8707,-3.8707,-3.8707,-3.8707,-3.8707,-3.8707,-3.8707,-3.8707,-3.9019,-3.9753,-4.1038,-4.2286,-4.3149,-4.3479,-4.3497,-4.3497,-4.3497,-4.3167,-4.2613,-4.1885,-4.1213,-4.0548,-3.9872,-3.96,-3.9483,-3.7354,0.0,0.0,0.0,0.0,0.0,0.0,0.0,0.0,0.0,0.0,0.0,0.0,0.0,0.0,0.0,0.0,-3.8707,0.0,0.0,0.0,0.0,0.0,0.0,0.0,-3.8707,-3.8707,-3.8707,-3.8707,-3.8707,-3.8707,-3.8707,-3.8707,-3.8707,-3.8707,-3.8707,-3.8707,-3.8707,-3.8707,-3.8707,-3.8707,-3.8707,-3.8707,-3.8707,-3.8707,-3.8707,-3.8707,-3.8707,-3.8707,-3.8707,-3.8707,-3.8707,-3.8707,-3.8707,-3.8707,-3.8707,-3.8707,-3.8707,-3.8707,-3.8707,-3.8707,-3.8707,-3.8707,-3.8707,-3.8658,-3.8658,-3.8627,-3.8596,-3.8596,-3.8564,-3.8564,-3.8564,-3.8596,-3.8596,-3.8627,-3.8658,-3.8658,-3.8658,-3.8707,-3.8707,-3.8707,-3.8707,-3.8707,-3.8707,-3.8707,-3.8707,-3.8707,-3.8707,-3.8707,-3.8707,-3.8707,-3.8707,-3.8707,-3.8707,-3.8707,-3.8707,-3.9405,-4.102,-4.2598,-4.3497,-4.3497,-4.3497,-4.3497,-4.3497,-4.3497,-4.3162,-4.2433,-4.1983,-4.137,-4.0652,-4.0024,-3.9826,0.0,0.0,0.0,-3.7577,0.0,0.0,0.0,0.0,-3.8707,0.0,0.0,0.0,0.0,0.0,0.0,0.0,0.0,0.0,0.0,0.0,0.0,0.0,0.0,0.0,0.0,-3.8707,-3.8707,-3.8707,-3.8707,-3.8707,-3.8707,-3.8707,-3.8707,-3.8707,-3.8707,-3.8707,-3.8707,-3.8707,-3.8707,-3.8707,-3.8707,-3.8707,-3.8707,-3.8707,-3.8707,-3.8707,-3.8707,-3.8707,-3.8707,-3.8707,-3.8707,-3.8707,-3.8707,-3.8707,-3.8707,-3.8707,-3.8707,-3.8707,-3.8707,-3.8707,-3.8707,-3.8707,-3.8707,-3.8676,-3.8559,-3.851,-3.8478,-3.8354,-3.8307,-3.8289,-3.8153,-3.8204,-3.8307,-3.8307,-3.8401,-3.851,-3.851,-3.8609,-3.8707,-3.8707,-3.8707,-3.8707,-3.8707,-3.8707,-3.8707,-3.8707,-3.8707,-3.8707,-3.8707,-3.8707,-3.8707,-3.8707,-3.8707,-3.8707,-3.8707,-3.8707,-3.9405,-4.102,-4.2598,-4.3497,-4.3497,-4.3497,-4.3497,-4.3497,-4.3497,-4.3177,-4.2498,-4.2668,-4.208,-4.0779,-4.0113,-3.9892,0.0,0.0,-3.7261,-3.7411,0.0,0.0,0.0,0.0,0.0,0.0,0.0,0.0,0.0,0.0,0.0,0.0,0.0,0.0,0.0,0.0,0.0,0.0,0.0,0.0,0.0,0.0,0.0,-3.8707,-3.8707,-3.8707,-3.8707,-3.8707,-3.8707,-3.8707,-3.8707,-3.8707,-3.8707,-3.8707,-3.8707,-3.8707,-3.8707,-3.8707,-3.8707,-3.8707,-3.8707,-3.8707,-3.8707,-3.8707,-3.8707,-3.8707,-3.8707,-3.8707,-3.8707,-3.8707,-3.8707,-3.8707,-3.8707,-3.8707,-3.8707,-3.8707,-3.8707,-3.8707,-3.8658,-3.8559,-3.8446,-3.835,-3.8201,-3.8138,-3.8018,-3.7949,-3.7897,-3.7931,-3.7984,-3.807,-3.8138,-3.8219,-3.8336,-3.8387,-3.8469,-3.8559,-3.8559,-3.8609,-3.8689,-3.8707,-3.8707,-3.8707,-3.8707,-3.8707,-3.8707,-3.8707,-3.8707,-3.8707,-3.8707,-3.8707,-3.8707,-3.968,-4.0524,-4.1075,-4.2598,-4.3497,-4.3497,-4.3497,-4.3497,-4.3497,-4.3497,-4.3419,-4.3244,-4.2921,-4.259,-4.2302,-4.1141,-4.0426,-3.6276,-3.6609,0.0,-3.7069,-3.7468,0.0,-3.7931,0.0,-3.8252,0.0,0.0,0.0,0.0,0.0,0.0,0.0,0.0,0.0,0.0,-3.8707,0.0,0.0,0.0,0.0,0.0,0.0,-3.8707,-3.8707,-3.8707,-3.8707,0.0,-3.8707,-3.8707,-3.8707,-3.8707,-3.8707,-3.8707,-3.8707,-3.8707,-3.8707,-3.8707,-3.8707,-3.8707,-3.8707,-3.8707,-3.8707,-3.8707,-3.8707,-3.8707,-3.8707,-3.8707,-3.8707,-3.8707,-3.8707,-3.8707,-3.8707,-3.8707,-3.8707,-3.8707,-3.8707,-3.8707,-3.864,-3.8559,-3.8446,-3.8318,-3.8119,-3.7931,-3.7721,-3.7559,-3.7469,-3.7413,-3.745,-3.7505,-3.7596,-3.7703,-3.7862,-3.8036,-3.8138,-3.8271,-3.8446,-3.8478,-3.8541,-3.8658,-3.8707,-3.8707,-3.8707,-3.8707,-3.8707,-3.8707,-3.8707,-3.8707,-3.8707,-3.8707,-3.8817,-3.9093,-4.0341,-4.124,-4.1515,-4.2763,-4.3497,-4.3497,-4.3497,-4.3497,-4.3497,-4.3497,-4.3513,-4.3582,-4.3282,-4.3095,-4.2996,-4.2208,-4.1321]}]]